[[{"header":{"parameterUnit":"m.s-1","parameterCategory":1,"la1":31.0,"la2":29.5877,"lo1":-88.7671,"lo2":-86.6584,"dx":0.0162,"dy":0.0185,"nx":115,"ny":88,"refTime":"2022-12-22T06:00:00:Z","depth":0,"parameterNumber":2,"parameterNumberName":"U-component_of_WINDS"},"data":[0.0,0.0,0.0,0.0,0.0,0.0,0.0,0.0,0.0,0.0,0.0,0.0,0.0,0.0,0.0,0.0,0.0,0.0,0.0,0.0,0.0,0.0,0.0,0.0,0.0,0.0,0.0,0.0,0.0,0.0,0.0,0.0,0.0,0.0,0.0,0.0,0.0,0.0,0.0,0.0,0.0,0.0,0.0,0.0,0.0,0.0,0.0,0.0,0.0,0.0,0.0,0.0,0.0,0.0,0.0,0.0,0.0,0.0,0.0,0.0,0.0,0.0,0.0,0.0,0.0,0.0,0.0,0.0,0.0,0.0,0.0,0.0,0.0,0.0,0.0,0.0,0.0,0.0,0.0,0.0,0.0,0.0,0.0,0.0,0.0,0.0,0.0,0.0,0.0,0.0,0.0,0.0,0.0,0.0,0.0,0.0,0.0,0.0,0.0,0.0,0.0,0.0,0.0,0.0,0.0,0.0,0.0,0.0,0.0,0.0,0.0,0.0,0.0,0.0,0.0,0.0,0.0,0.0,0.0,0.0,0.0,0.0,0.0,0.0,0.0,0.0,0.0,0.0,0.0,0.0,0.0,0.0,0.0,0.0,0.0,0.0,0.0,0.0,0.0,0.0,0.0,0.0,0.0,0.0,0.0,0.0,0.0,0.0,0.0,0.0,0.0,0.0,0.0,0.0,0.0,0.0,0.0,0.0,0.0,0.0,0.0,0.0,0.0,0.0,0.0,0.0,0.0,0.0,0.0,0.0,0.0,0.0,0.0,0.0,0.0,0.0,0.0,0.0,0.0,0.0,0.0,0.0,0.0,0.0,0.0,0.0,0.0,0.0,0.0,0.0,0.0,0.0,0.0,0.0,0.0,0.0,0.0,0.0,0.0,0.0,0.0,0.0,0.0,0.0,0.0,0.0,0.0,0.0,0.0,0.0,0.0,0.0,0.0,0.0,0.0,0.0,0.0,0.0,0.0,0.0,0.0,0.0,0.0,0.0,0.0,0.0,0.0,0.0,0.0,0.0,0.0,0.0,0.0,0.0,0.0,0.0,0.0,0.0,0.0,0.0,0.0,0.0,0.0,0.0,0.0,0.0,0.0,0.0,0.0,0.0,0.0,0.0,0.0,0.0,0.0,0.0,0.0,0.0,0.0,0.0,0.0,0.0,0.0,0.0,0.0,0.0,0.0,0.0,0.0,0.0,0.0,0.0,0.0,0.0,0.0,0.0,0.0,0.0,0.0,0.0,0.0,0.0,0.0,0.0,0.0,0.0,0.0,0.0,0.0,0.0,0.0,0.0,0.0,0.0,0.0,0.0,0.0,0.0,0.0,0.0,0.0,0.0,0.0,0.0,0.0,0.0,0.0,0.0,0.0,0.0,0.0,0.0,0.0,0.0,0.0,0.0,0.0,0.0,0.0,0.0,0.0,0.0,0.0,0.0,0.0,0.0,0.0,0.0,0.0,0.0,0.0,0.0,0.0,0.0,0.0,0.0,0.0,0.0,0.0,0.0,0.0,0.0,0.0,0.0,0.0,0.0,0.0,0.0,0.0,0.0,0.0,0.0,0.0,0.0,0.0,0.0,0.0,0.0,0.0,0.0,0.0,0.0,0.0,0.0,0.0,0.0,0.0,0.0,0.0,0.0,0.0,0.0,0.0,0.0,0.0,0.0,0.0,0.0,0.0,0.0,0.0,0.0,0.0,0.0,0.0,0.0,0.0,0.0,0.0,0.0,0.0,0.0,0.0,0.0,0.0,0.0,0.0,0.0,0.0,0.0,0.0,0.0,0.0,0.0,0.0,0.0,0.0,0.0,0.0,0.0,0.0,0.0,0.0,0.0,0.0,0.0,0.0,0.0,0.0,0.0,0.0,0.0,0.0,0.0,0.0,0.0,0.0,0.0,0.0,0.0,0.0,0.0,0.0,0.0,0.0,0.0,0.0,0.0,0.0,0.0,0.0,0.0,0.0,0.0,0.0,0.0,0.0,0.0,0.0,0.0,0.0,0.0,0.0,0.0,0.0,0.0,0.0,0.0,0.0,0.0,0.0,0.0,0.0,0.0,0.0,0.0,0.0,0.0,0.0,0.0,0.0,0.0,0.0,0.0,0.0,0.0,0.0,0.0,0.0,0.0,0.0,0.0,0.0,0.0,0.0,0.0,0.0,0.0,0.0,0.0,0.0,0.0,0.0,0.0,0.0,0.0,0.0,0.0,0.0,0.0,0.0,0.0,0.0,0.0,0.0,0.0,0.0,0.0,0.0,0.0,0.0,0.0,0.0,0.0,0.0,0.0,0.0,0.0,0.0,0.0,0.0,0.0,0.0,0.0,0.0,0.0,0.0,0.0,0.0,0.0,0.0,0.0,0.0,0.0,0.0,0.0,0.0,0.0,0.0,0.0,0.0,0.0,0.0,0.0,0.0,0.0,0.0,0.0,0.0,0.0,0.0,0.0,0.0,0.0,0.0,0.0,0.0,0.0,0.0,0.0,0.0,0.0,0.0,0.0,0.0,0.0,0.0,0.0,0.0,0.0,0.0,0.0,0.0,0.0,0.0,0.0,0.0,0.0,0.0,0.0,0.0,0.0,0.0,0.0,0.0,0.0,0.0,0.0,0.0,0.0,0.0,0.0,0.0,0.0,0.0,0.0,0.0,0.0,0.0,0.0,0.0,0.0,0.0,0.0,0.0,0.0,0.0,0.0,0.0,0.0,0.0,0.0,0.0,0.0,0.0,0.0,0.0,0.0,0.0,0.0,0.0,0.0,0.0,0.0,0.0,0.0,0.0,0.0,0.0,0.0,0.0,0.0,0.0,0.0,0.0,0.0,0.0,0.0,0.0,0.0,0.0,0.0,0.0,0.0,0.0,0.0,0.0,0.0,0.0,0.0,0.0,0.0,0.0,0.0,0.0,0.0,0.0,0.0,0.0,0.0,0.0,0.0,0.0,0.0,0.0,0.0,0.0,0.0,0.0,0.0,0.0,0.0,0.0,0.0,0.0,0.0,0.0,0.0,0.0,0.0,0.0,0.0,0.0,0.0,0.0,0.0,0.0,0.0,0.0,0.0,0.0,0.0,0.0,0.0,0.0,0.0,0.0,0.0,0.0,0.0,0.0,0.0,0.0,0.0,0.0,0.0,0.0,0.0,0.0,0.0,0.0,0.0,0.0,0.0,0.0,0.0,0.0,0.0,0.0,0.0,0.0,0.0,0.0,0.0,0.0,0.0,0.0,0.0,0.0,0.0,0.0,0.0,0.0,0.0,0.0,0.0,0.0,0.0,0.0,0.0,0.0,0.0,0.0,0.0,0.0,0.0,0.0,0.0,0.0,0.0,0.0,0.0,0.0,0.0,0.0,0.0,0.0,0.0,0.0,0.0,0.0,0.0,0.0,0.0,0.0,0.0,0.0,0.0,0.0,0.0,0.0,0.0,0.0,0.0,0.0,0.0,0.0,0.0,0.0,0.0,0.0,0.0,0.0,0.0,0.0,0.0,0.0,0.0,0.0,0.0,0.0,0.0,0.0,0.0,0.0,0.0,0.0,0.0,0.0,0.0,0.0,0.0,0.0,0.0,0.0,0.0,0.0,0.0,0.0,0.0,0.0,0.0,0.0,0.0,0.0,0.0,0.0,0.0,0.0,0.0,0.0,0.0,0.0,0.0,0.0,0.0,0.0,0.0,0.0,0.0,0.0,0.0,0.0,0.0,0.0,0.0,0.0,0.0,0.0,0.0,0.0,0.0,0.0,0.0,0.0,0.0,0.0,0.0,0.0,0.0,0.0,0.0,0.0,0.0,0.0,0.0,0.0,0.0,0.0,0.0,0.0,0.0,0.0,0.0,0.0,0.0,0.0,0.0,0.0,0.0,0.0,0.0,0.0,0.0,0.0,0.0,0.0,0.0,0.0,0.0,0.0,0.0,0.0,0.0,0.0,0.0,0.0,0.0,0.0,0.0,0.0,0.0,0.0,0.0,0.0,0.0,0.0,0.0,0.0,0.0,0.0,0.0,0.0,0.0,0.0,0.0,0.0,0.0,0.0,0.0,0.0,0.0,0.0,0.0,0.0,0.0,0.0,0.0,0.0,0.0,0.0,0.0,0.0,0.0,0.0,0.0,0.0,0.0,0.0,0.0,0.0,0.0,0.0,0.0,0.0,0.0,0.0,0.0,0.0,0.0,0.0,0.0,0.0,0.0,0.0,0.0,0.0,0.0,0.0,0.0,0.0,0.0,0.0,0.0,0.0,0.0,0.0,0.0,0.0,0.0,0.0,0.0,2.427,0.0,0.0,0.0,2.2614,0.0,0.0,0.0,0.0,0.0,0.0,0.0,0.0,0.0,0.0,0.0,0.0,0.0,0.0,0.0,0.0,0.0,0.0,0.0,0.0,0.0,0.0,0.0,0.0,0.0,0.0,0.0,0.0,0.0,0.0,0.0,0.0,0.0,0.0,0.0,0.0,0.0,0.0,0.0,0.0,0.0,0.0,0.0,0.0,0.0,0.0,0.0,0.0,0.0,0.0,0.0,0.0,0.0,0.0,0.0,0.0,0.0,0.0,0.0,0.0,0.0,0.0,0.0,0.0,0.0,0.0,0.0,0.0,0.0,0.0,0.0,0.0,0.0,0.0,0.0,0.0,0.0,0.0,0.0,0.0,0.0,0.0,0.0,0.0,0.0,0.0,0.0,0.0,0.0,0.0,0.0,0.0,0.0,0.0,0.0,0.0,0.0,0.0,0.0,0.0,0.0,0.0,0.0,0.0,0.0,0.0,0.0,0.0,0.0,0.0,2.3825,2.2937,2.3108,2.2725,2.1696,0.0,0.0,0.0,0.0,0.0,0.0,0.0,0.0,0.0,0.0,0.0,0.0,0.0,0.0,0.0,0.0,0.0,0.0,0.0,0.0,0.0,0.0,0.0,0.0,0.0,0.0,0.0,0.0,0.0,0.0,0.0,0.0,0.0,0.0,0.0,0.0,0.0,0.0,0.0,0.0,0.0,0.0,0.0,0.0,0.0,0.0,0.0,0.0,0.0,0.0,0.0,0.0,0.0,0.0,0.0,0.0,0.0,0.0,0.0,0.0,0.0,0.0,0.0,0.0,0.0,0.0,0.0,0.0,0.0,0.0,0.0,0.0,0.0,0.0,0.0,0.0,0.0,0.0,0.0,0.0,0.0,0.0,0.0,0.0,0.0,0.0,0.0,0.0,0.0,0.0,0.0,0.0,0.0,0.0,0.0,0.0,0.0,0.0,0.0,0.0,0.0,0.0,0.0,0.0,0.0,0.0,0.0,0.0,0.0,0.0,0.0,0.0,2.3486,2.3254,2.1461,0.0,0.0,0.0,0.0,0.0,0.0,0.0,0.0,0.0,0.0,0.0,0.0,0.0,0.0,0.0,0.0,0.0,0.0,0.0,0.0,0.0,0.0,0.0,0.0,0.0,0.0,0.0,0.0,0.0,0.0,0.0,0.0,0.0,0.0,0.0,0.0,0.0,0.0,0.0,0.0,0.0,0.0,0.0,0.0,0.0,0.0,0.0,0.0,0.0,0.0,0.0,0.0,0.0,0.0,0.0,0.0,0.0,0.0,0.0,0.0,0.0,0.0,0.0,0.0,0.0,0.0,0.0,0.0,0.0,0.0,0.0,0.0,0.0,0.0,0.0,0.0,0.0,0.0,0.0,0.0,0.0,0.0,0.0,0.0,0.0,0.0,0.0,0.0,0.0,0.0,0.0,0.0,0.0,0.0,0.0,0.0,0.0,0.0,0.0,0.0,0.0,0.0,0.0,0.0,0.0,0.0,0.0,0.0,0.0,0.0,2.3346,2.4064,2.3529,0.0,2.3862,0.0,0.0,0.0,0.0,0.0,0.0,0.0,0.0,0.0,0.0,0.0,0.0,0.0,0.0,0.0,0.0,0.0,0.0,0.0,0.0,0.0,0.0,0.0,0.0,0.0,0.0,0.0,0.0,0.0,0.0,0.0,0.0,0.0,0.0,0.0,0.0,0.0,0.0,0.0,0.0,0.0,0.0,0.0,0.0,0.0,0.0,0.0,0.0,0.0,0.0,0.0,0.0,0.0,0.0,0.0,0.0,0.0,0.0,0.0,0.0,0.0,0.0,0.0,0.0,0.0,0.0,0.0,0.0,0.0,0.0,0.0,0.0,0.0,0.0,0.0,0.0,0.0,0.0,0.0,0.0,0.0,0.0,0.0,0.0,0.0,0.0,0.0,0.0,0.0,0.0,0.0,0.0,0.0,0.0,0.0,0.0,0.0,0.0,0.0,0.0,0.0,0.0,0.0,0.0,0.0,0.0,0.0,0.0,0.0,0.0,2.3114,2.3525,2.3288,2.3535,0.0,0.0,0.0,0.0,0.0,0.0,0.0,0.0,0.0,0.0,0.0,0.0,0.0,0.0,0.0,0.0,0.0,0.0,0.0,0.0,0.0,0.0,0.0,0.0,0.0,0.0,0.0,0.0,0.0,0.0,0.0,0.0,0.0,0.0,0.0,0.0,0.0,0.0,0.0,0.0,0.0,0.0,0.0,0.0,0.0,0.0,0.0,0.0,0.0,0.0,0.0,0.0,0.0,0.0,0.0,0.0,0.0,0.0,0.0,0.0,0.0,0.0,0.0,0.0,0.0,0.0,0.0,0.0,0.0,0.0,0.0,0.0,0.0,0.0,0.0,0.0,0.0,0.0,0.0,0.0,0.0,0.0,0.0,0.0,0.0,0.0,0.0,0.0,0.0,0.0,0.0,0.0,0.0,0.0,0.0,0.0,0.0,0.0,0.0,0.0,0.0,0.0,0.0,0.0,0.0,0.0,0.0,0.0,0.0,0.0,2.2728,2.3386,2.3692,2.3587,2.3904,2.4715,0.0,0.0,0.0,0.0,0.0,0.0,0.0,0.0,0.0,0.0,0.0,0.0,0.0,0.0,0.0,0.0,0.0,0.0,0.0,0.0,0.0,0.0,0.0,0.0,0.0,0.0,0.0,0.0,0.0,0.0,0.0,0.0,0.0,0.0,0.0,0.0,0.0,0.0,0.0,0.0,0.0,0.0,0.0,0.0,0.0,0.0,0.0,0.0,0.0,0.0,0.0,0.0,0.0,0.0,0.0,0.0,0.0,0.0,0.0,0.0,0.0,0.0,0.0,0.0,0.0,0.0,0.0,0.0,0.0,0.0,0.0,0.0,0.0,0.0,0.0,0.0,0.0,0.0,0.0,0.0,0.0,0.0,0.0,0.0,0.0,0.0,0.0,0.0,0.0,0.0,0.0,0.0,0.0,0.0,0.0,0.0,0.0,0.0,0.0,0.0,0.0,0.0,0.0,0.0,0.0,0.0,0.0,0.0,2.2602,2.3568,2.4509,2.5416,2.4746,2.4752,0.0,0.0,0.0,0.0,0.0,0.0,0.0,0.0,0.0,0.0,0.0,0.0,0.0,0.0,0.0,0.0,0.0,0.0,0.0,0.0,0.0,0.0,0.0,0.0,0.0,0.0,0.0,0.0,0.0,0.0,0.0,0.0,0.0,0.0,0.0,0.0,0.0,0.0,0.0,0.0,0.0,0.0,0.0,0.0,0.0,0.0,0.0,0.0,0.0,0.0,0.0,0.0,0.0,0.0,0.0,0.0,0.0,0.0,0.0,0.0,0.0,0.0,0.0,0.0,0.0,0.0,0.0,0.0,0.0,0.0,0.0,0.0,0.0,0.0,0.0,0.0,0.0,0.0,0.0,0.0,0.0,0.0,0.0,0.0,0.0,0.0,0.0,0.0,0.0,0.0,0.0,0.0,0.0,0.0,0.0,0.0,0.0,0.0,0.0,0.0,0.0,0.0,0.0,0.0,0.0,0.0,0.0,0.0,0.0,2.2766,2.421,2.5441,2.6353,2.5664,2.5648,0.0,0.0,0.0,0.0,0.0,0.0,0.0,0.0,0.0,0.0,0.0,0.0,0.0,0.0,0.0,0.0,0.0,0.0,0.0,0.0,0.0,0.0,0.0,0.0,0.0,0.0,0.0,0.0,0.0,0.0,0.0,0.0,0.0,0.0,0.0,0.0,0.0,0.0,0.0,0.0,0.0,0.0,0.0,0.0,0.0,0.0,0.0,0.0,0.0,0.0,0.0,0.0,0.0,0.0,0.0,0.0,0.0,0.0,0.0,0.0,0.0,0.0,0.0,0.0,0.0,0.0,0.0,0.0,0.0,0.0,0.0,0.0,0.0,0.0,0.0,0.0,0.0,0.0,0.0,0.0,0.0,0.0,0.0,0.0,0.0,0.0,0.0,0.0,0.0,0.0,0.0,0.0,0.0,0.0,0.0,0.0,0.0,0.0,0.0,0.0,0.0,0.0,0.0,0.0,0.0,0.0,0.0,0.0,0.0,2.4058,2.5584,2.6565,2.6854,2.6366,2.6244,0.0,0.0,0.0,0.0,0.0,0.0,0.0,0.0,0.0,0.0,0.0,0.0,0.0,0.0,0.0,0.0,0.0,0.0,0.0,0.0,0.0,0.0,0.0,0.0,0.0,0.0,0.0,0.0,0.0,0.0,0.0,0.0,0.0,0.0,0.0,0.0,0.0,0.0,0.0,0.0,0.0,0.0,0.0,0.0,0.0,0.0,0.0,0.0,0.0,0.0,0.0,0.0,0.0,0.0,0.0,0.0,0.0,0.0,0.0,0.0,0.0,0.0,0.0,0.0,0.0,0.0,0.0,0.0,0.0,0.0,0.0,0.0,0.0,0.0,0.0,0.0,0.0,0.0,0.0,0.0,0.0,0.0,0.0,0.0,0.0,0.0,0.0,0.0,0.0,0.0,0.0,0.0,0.0,0.0,0.0,0.0,0.0,0.0,0.0,0.0,0.0,0.0,0.0,0.0,0.0,0.0,0.0,0.0,2.4146,2.666,2.7641,2.7751,2.6952,2.6901,2.6522,0.0,0.0,0.0,0.0,0.0,0.0,0.0,0.0,0.0,0.0,0.0,0.0,0.0,0.0,0.0,0.0,0.0,0.0,0.0,0.0,0.0,0.0,0.0,0.0,0.0,0.0,0.0,0.0,0.0,0.0,0.0,0.0,0.0,0.0,0.0,0.0,0.0,0.0,0.0,0.0,0.0,0.0,0.0,0.0,0.0,0.0,0.0,0.0,0.0,0.0,0.0,0.0,0.0,0.0,0.0,0.0,0.0,0.0,0.0,0.0,0.0,0.0,0.0,0.0,0.0,0.0,0.0,0.0,0.0,0.0,0.0,0.0,0.0,0.0,0.0,0.0,0.0,0.0,0.0,0.0,0.0,0.0,0.0,0.0,0.0,0.0,0.0,0.0,0.0,0.0,0.0,0.0,0.0,0.0,0.0,0.0,0.0,0.0,0.0,0.0,0.0,0.0,0.0,0.0,0.0,0.0,0.0,0.0,0.0,2.6808,2.7731,2.8359,2.8639,2.7585,2.7147,0.0,0.0,0.0,0.0,0.0,0.0,0.0,0.0,0.0,0.0,0.0,0.0,0.0,0.0,0.0,0.0,0.0,0.0,0.0,0.0,0.0,0.0,0.0,0.0,0.0,0.0,0.0,0.0,0.0,0.0,0.0,0.0,0.0,0.0,0.0,0.0,0.0,0.0,0.0,0.0,0.0,0.0,0.0,0.0,0.0,0.0,0.0,0.0,0.0,0.0,0.0,0.0,0.0,0.0,0.0,0.0,0.0,0.0,0.0,0.0,0.0,0.0,0.0,0.0,0.0,0.0,0.0,0.0,0.0,0.0,0.0,0.0,0.0,0.0,0.0,0.0,0.0,0.0,0.0,0.0,0.0,0.0,0.0,0.0,0.0,0.0,0.0,0.0,0.0,0.0,0.0,0.0,0.0,0.0,0.0,0.0,0.0,0.0,0.0,0.0,0.0,0.0,0.0,0.0,0.0,0.0,0.0,0.0,0.0,2.8767,2.9629,3.0214,3.0479,2.8834,2.8045,2.8239,0.0,0.0,0.0,0.0,0.0,0.0,0.0,0.0,0.0,0.0,0.0,0.0,0.0,0.0,0.0,0.0,0.0,0.0,0.0,0.0,0.0,0.0,0.0,0.0,0.0,0.0,0.0,0.0,0.0,0.0,0.0,0.0,0.0,0.0,0.0,0.0,0.0,0.0,0.0,0.0,0.0,0.0,0.0,0.0,0.0,0.0,0.0,0.0,0.0,0.0,0.0,0.0,0.0,0.0,0.0,0.0,0.0,0.0,0.0,0.0,0.0,0.0,0.0,0.0,0.0,0.0,0.0,0.0,0.0,0.0,0.0,0.0,0.0,0.0,0.0,0.0,0.0,0.0,0.0,0.0,0.0,0.0,0.0,0.0,0.0,0.0,0.0,0.0,0.0,0.0,0.0,0.0,0.0,0.0,0.0,0.0,0.0,0.0,0.0,0.0,0.0,0.0,0.0,0.0,0.0,0.0,0.0,0.0,3.201,3.306,3.3131,3.2226,3.0552,2.9236,0.0,0.0,0.0,0.0,0.0,0.0,0.0,0.0,0.0,0.0,0.0,0.0,0.0,0.0,0.0,0.0,0.0,0.0,0.0,0.0,0.0,0.0,0.0,0.0,0.0,0.0,0.0,0.0,0.0,0.0,0.0,0.0,0.0,0.0,0.0,0.0,0.0,0.0,0.0,0.0,0.0,0.0,0.0,0.0,0.0,0.0,0.0,0.0,0.0,0.0,0.0,0.0,0.0,0.0,0.0,0.0,0.0,0.0,0.0,0.0,0.0,0.0,0.0,0.0,0.0,0.0,0.0,0.0,0.0,0.0,0.0,0.0,0.0,0.0,0.0,0.0,0.0,0.0,0.0,0.0,0.0,0.0,0.0,0.0,0.0,0.0,0.0,0.0,0.0,0.0,0.0,0.0,0.0,0.0,0.0,0.0,0.0,0.0,0.0,0.0,0.0,0.0,0.0,0.0,0.0,0.0,0.0,0.0,0.0,3.3654,3.5785,3.5939,3.3924,3.2294,3.0722,0.0,0.0,0.0,0.0,0.0,0.0,0.0,0.0,0.0,0.0,0.0,0.0,0.0,0.0,0.0,0.0,0.0,0.0,0.0,0.0,0.0,0.0,0.0,0.0,0.0,0.0,0.0,0.0,0.0,0.0,0.0,0.0,0.0,0.0,0.0,0.0,0.0,0.0,0.0,0.0,0.0,0.0,0.0,0.0,0.0,0.0,0.0,0.0,0.0,0.0,0.0,0.0,0.0,0.0,0.0,0.0,0.0,0.0,0.0,0.0,0.0,0.0,0.0,0.0,0.0,0.0,0.0,0.0,0.0,0.0,0.0,0.0,0.0,0.0,0.0,0.0,0.0,0.0,0.0,0.0,0.0,0.0,0.0,0.0,0.0,0.0,0.0,0.0,0.0,0.0,0.0,0.0,0.0,0.0,0.0,0.0,0.0,0.0,0.0,0.0,0.0,0.0,0.0,0.0,0.0,0.0,0.0,0.0,3.2967,3.5263,3.7568,3.8054,3.6642,3.4401,3.2207,0.0,0.0,0.0,0.0,0.0,0.0,0.0,0.0,0.0,0.0,0.0,0.0,0.0,0.0,0.0,0.0,0.0,0.0,0.0,0.0,0.0,0.0,0.0,0.0,0.0,0.0,0.0,0.0,0.0,0.0,0.0,0.0,0.0,0.0,0.0,0.0,0.0,0.0,0.0,0.0,0.0,0.0,0.0,0.0,0.0,0.0,0.0,0.0,0.0,0.0,0.0,0.0,0.0,0.0,0.0,0.0,0.0,0.0,0.0,0.0,0.0,0.0,0.0,0.0,0.0,0.0,0.0,0.0,0.0,0.0,0.0,0.0,0.0,0.0,0.0,0.0,0.0,0.0,0.0,0.0,0.0,0.0,0.0,0.0,0.0,0.0,0.0,0.0,0.0,0.0,0.0,0.0,0.0,0.0,0.0,0.0,0.0,0.0,0.0,0.0,0.0,0.0,0.0,0.0,0.0,0.0,0.0,0.0,3.4052,3.6781,3.8659,3.9568,3.9413,3.6548,3.3683,0.0,0.0,0.0,0.0,0.0,0.0,0.0,0.0,0.0,0.0,0.0,0.0,0.0,0.0,0.0,0.0,0.0,0.0,0.0,0.0,0.0,0.0,0.0,0.0,0.0,0.0,0.0,0.0,0.0,0.0,0.0,0.0,0.0,0.0,0.0,0.0,0.0,0.0,0.0,0.0,0.0,0.0,0.0,0.0,0.0,0.0,0.0,0.0,0.0,0.0,0.0,0.0,0.0,0.0,0.0,0.0,0.0,0.0,0.0,0.0,0.0,0.0,0.0,0.0,0.0,0.0,0.0,0.0,0.0,0.0,0.0,0.0,0.0,0.0,0.0,0.0,0.0,0.0,0.0,0.0,0.0,0.0,0.0,0.0,0.0,0.0,0.0,0.0,0.0,0.0,0.0,0.0,0.0,0.0,0.0,0.0,0.0,0.0,0.0,0.0,0.0,0.0,0.0,0.0,0.0,0.0,0.0,0.0,3.5017,3.7651,3.9499,4.014,3.9519,3.7656,3.5135,0.0,0.0,0.0,0.0,0.0,0.0,0.0,0.0,0.0,0.0,0.0,0.0,0.0,0.0,0.0,0.0,0.0,0.0,0.0,0.0,0.0,0.0,0.0,0.0,0.0,0.0,0.0,0.0,0.0,0.0,0.0,0.0,0.0,0.0,0.0,0.0,0.0,0.0,0.0,0.0,0.0,0.0,0.0,0.0,0.0,0.0,0.0,0.0,2.7579,0.0,0.0,0.0,0.0,0.0,0.0,0.0,0.0,0.0,0.0,0.0,0.0,0.0,0.0,0.0,0.0,0.0,0.0,0.0,0.0,0.0,0.0,0.0,0.0,0.0,0.0,0.0,0.0,0.0,0.0,0.0,0.0,0.0,0.0,0.0,0.0,0.0,0.0,0.0,0.0,0.0,0.0,0.0,0.0,0.0,0.0,0.0,0.0,0.0,0.0,0.0,0.0,0.0,0.0,0.0,0.0,0.0,0.0,0.0,3.5458,3.842,3.9895,4.0494,4.0092,3.8984,3.6392,0.0,0.0,0.0,0.0,0.0,0.0,0.0,0.0,0.0,0.0,0.0,0.0,0.0,0.0,0.0,0.0,0.0,0.0,0.0,0.0,0.0,0.0,0.0,0.0,0.0,0.0,0.0,0.0,0.0,0.0,0.0,0.0,0.0,0.0,0.0,0.0,0.0,0.0,0.0,0.0,0.0,0.0,0.0,0.0,0.0,0.0,0.0,0.0,0.0,0.0,0.0,0.0,0.0,0.0,0.0,0.0,0.0,0.0,0.0,0.0,0.0,0.0,0.0,0.0,0.0,0.0,0.0,0.0,0.0,0.0,0.0,0.0,0.0,0.0,0.0,0.0,0.0,0.0,0.0,0.0,0.0,0.0,0.0,0.0,0.0,0.0,0.0,0.0,0.0,0.0,0.0,0.0,0.0,0.0,0.0,0.0,0.0,0.0,0.0,0.0,0.0,0.0,0.0,0.0,0.0,0.0,0.0,3.3328,3.5828,3.8802,3.989,4.0455,4.0587,3.9758,3.7113,3.2498,0.0,0.0,0.0,0.0,0.0,0.0,0.0,0.0,0.0,0.0,0.0,0.0,0.0,0.0,0.0,0.0,0.0,0.0,0.0,0.0,0.0,0.0,0.0,0.0,0.0,0.0,0.0,0.0,0.0,0.0,0.0,0.0,0.0,0.0,0.0,0.0,0.0,0.0,2.6136,2.7675,0.0,0.0,0.0,0.0,0.0,0.0,0.0,0.0,2.8447,0.0,0.0,0.0,0.0,0.0,0.0,0.0,0.0,0.0,0.0,0.0,0.0,0.0,0.0,0.0,0.0,0.0,0.0,0.0,0.0,0.0,0.0,0.0,0.0,0.0,0.0,0.0,0.0,0.0,0.0,0.0,0.0,0.0,0.0,0.0,0.0,0.0,0.0,0.0,0.0,0.0,0.0,0.0,0.0,0.0,0.0,0.0,0.0,0.0,0.0,0.0,0.0,0.0,0.0,0.0,0.0,3.2241,3.4618,3.6589,3.8047,3.9031,3.9607,3.9742,3.8325,3.6157,3.3351,0.0,0.0,0.0,0.0,0.0,0.0,0.0,0.0,0.0,0.0,0.0,0.0,0.0,0.0,0.0,0.0,0.0,0.0,0.0,0.0,0.0,0.0,0.0,0.0,0.0,0.0,0.0,0.0,0.0,0.0,0.0,0.0,0.0,0.0,0.0,0.0,0.0,0.0,0.0,2.9739,3.0689,0.0,0.0,0.0,0.0,0.0,0.0,0.0,0.0,2.937,0.0,0.0,0.0,0.0,0.0,0.0,0.0,0.0,0.0,0.0,0.0,0.0,0.0,0.0,0.0,0.0,0.0,0.0,0.0,0.0,0.0,0.0,0.0,0.0,0.0,0.0,0.0,0.0,0.0,0.0,0.0,0.0,0.0,0.0,0.0,0.0,0.0,0.0,0.0,0.0,0.0,0.0,0.0,0.0,0.0,0.0,0.0,0.0,0.0,0.0,0.0,0.0,0.0,0.0,0.0,3.3045,3.5312,3.7162,3.8554,3.8628,3.8904,3.943,3.8341,3.6528,0.0,0.0,0.0,0.0,0.0,0.0,0.0,0.0,0.0,0.0,0.0,0.0,0.0,0.0,0.0,0.0,0.0,0.0,0.0,0.0,0.0,0.0,0.0,0.0,0.0,0.0,0.0,0.0,0.0,0.0,0.0,0.0,0.0,0.0,0.0,0.0,0.0,0.0,0.0,0.0,3.0929,3.1973,3.3261,0.0,0.0,0.0,0.0,0.0,0.0,3.0662,2.9822,0.0,0.0,0.0,0.0,0.0,0.0,0.0,0.0,0.0,0.0,0.0,0.0,0.0,0.0,0.0,0.0,0.0,0.0,0.0,0.0,0.0,0.0,0.0,0.0,0.0,0.0,0.0,0.0,0.0,0.0,0.0,0.0,0.0,0.0,0.0,0.0,0.0,0.0,0.0,0.0,0.0,0.0,0.0,0.0,0.0,0.0,0.0,0.0,0.0,0.0,0.0,0.0,0.0,0.0,0.0,3.3581,3.5761,3.7659,3.9181,3.8277,3.8271,3.9321,3.8346,3.6748,0.0,0.0,0.0,0.0,0.0,0.0,0.0,0.0,0.0,0.0,0.0,0.0,0.0,0.0,0.0,0.0,0.0,0.0,0.0,0.0,0.0,0.0,0.0,0.0,0.0,0.0,0.0,0.0,0.0,0.0,0.0,0.0,0.0,0.0,0.0,0.0,0.0,0.0,0.0,0.0,0.0,3.3124,3.4488,3.4705,0.0,0.0,0.0,0.0,3.2617,3.1504,0.0,0.0,0.0,0.0,0.0,0.0,0.0,0.0,0.0,0.0,0.0,0.0,0.0,0.0,0.0,0.0,0.0,0.0,0.0,0.0,0.0,0.0,0.0,0.0,0.0,0.0,0.0,0.0,0.0,0.0,0.0,0.0,0.0,0.0,0.0,0.0,0.0,0.0,0.0,0.0,0.0,0.0,0.0,0.0,0.0,0.0,0.0,0.0,0.0,0.0,0.0,0.0,0.0,0.0,0.0,0.0,3.3619,3.6156,3.8065,3.9161,3.77,3.7654,3.9301,3.7182,3.557,0.0,0.0,0.0,0.0,0.0,0.0,0.0,0.0,0.0,0.0,0.0,0.0,0.0,0.0,0.0,0.0,0.0,0.0,0.0,0.0,0.0,0.0,0.0,0.0,0.0,0.0,0.0,0.0,0.0,0.0,0.0,0.0,0.0,0.0,0.0,0.0,0.0,0.0,0.0,0.0,0.0,3.4471,3.4686,3.4705,3.4354,0.0,0.0,3.4393,3.4393,3.4237,0.0,0.0,0.0,0.0,0.0,0.0,0.0,0.0,0.0,0.0,0.0,0.0,0.0,0.0,0.0,0.0,0.0,0.0,0.0,0.0,0.0,0.0,0.0,0.0,0.0,0.0,0.0,0.0,0.0,0.0,0.0,0.0,0.0,0.0,0.0,0.0,0.0,0.0,0.0,0.0,0.0,0.0,0.0,0.0,0.0,0.0,0.0,0.0,0.0,0.0,0.0,0.0,0.0,0.0,0.0,3.2561,3.4447,3.6676,3.8527,3.9854,3.7834,3.7747,3.9957,3.8179,3.6778,0.0,0.0,0.0,0.0,0.0,0.0,0.0,0.0,0.0,0.0,0.0,0.0,0.0,0.0,0.0,0.0,0.0,0.0,0.0,0.0,0.0,0.0,0.0,0.0,0.0,0.0,0.0,0.0,0.0,0.0,0.0,0.0,0.0,0.0,0.0,0.0,0.0,0.0,0.0,0.0,0.0,0.0,3.4627,3.5135,0.0,0.0,0.0,3.5818,3.4842,0.0,0.0,0.0,0.0,0.0,0.0,0.0,0.0,0.0,0.0,0.0,0.0,0.0,0.0,0.0,0.0,0.0,0.0,0.0,0.0,0.0,0.0,0.0,0.0,0.0,0.0,0.0,0.0,0.0,0.0,0.0,0.0,0.0,0.0,0.0,0.0,0.0,0.0,0.0,0.0,0.0,0.0,0.0,0.0,0.0,0.0,0.0,0.0,0.0,0.0,0.0,0.0,0.0,0.0,0.0,0.0,0.0,3.5034,3.6983,3.8911,4.0662,3.8334,3.8238,4.0696,3.9367,0.0,0.0,0.0,0.0,0.0,0.0,0.0,0.0,0.0,0.0,0.0,0.0,0.0,0.0,0.0,0.0,0.0,0.0,0.0,0.0,0.0,0.0,0.0,0.0,0.0,0.0,0.0,2.2986,0.0,0.0,0.0,0.0,0.0,0.0,0.0,0.0,0.0,0.0,0.0,0.0,0.0,0.0,3.4042,3.492,3.5584,3.5779,0.0,0.0,3.6599,3.5525,3.5896,3.6013,0.0,0.0,0.0,0.0,0.0,0.0,0.0,0.0,0.0,0.0,0.0,0.0,0.0,0.0,0.0,0.0,0.0,0.0,0.0,0.0,0.0,0.0,0.0,0.0,0.0,0.0,0.0,0.0,0.0,0.0,0.0,0.0,0.0,0.0,0.0,0.0,0.0,0.0,0.0,0.0,0.0,0.0,0.0,0.0,0.0,0.0,0.0,0.0,0.0,0.0,0.0,0.0,0.0,0.0,0.0,3.4926,3.6952,3.9219,4.1527,3.9219,3.9123,4.1585,4.0239,3.8684,0.0,0.0,0.0,0.0,0.0,0.0,0.0,0.0,0.0,0.0,0.0,0.0,0.0,0.0,0.0,0.0,0.0,0.0,0.0,0.0,0.0,0.0,0.0,0.0,0.0,0.0,0.0,0.0,0.0,0.0,0.0,0.0,0.0,0.0,0.0,0.0,0.0,0.0,0.0,0.0,0.0,3.492,3.5779,3.5952,3.5971,0.0,0.0,3.6325,3.7028,3.7165,3.6931,3.6052,0.0,0.0,0.0,0.0,0.0,0.0,0.0,0.0,0.0,0.0,0.0,0.0,0.0,0.0,0.0,0.0,0.0,0.0,0.0,0.0,0.0,0.0,0.0,0.0,0.0,0.0,0.0,0.0,0.0,0.0,0.0,0.0,0.0,0.0,0.0,0.0,0.0,0.0,0.0,0.0,0.0,0.0,0.0,0.0,0.0,0.0,0.0,0.0,0.0,0.0,0.0,0.0,0.0,3.4033,3.5815,3.7785,4.0027,4.2412,4.0585,4.0527,4.2566,4.1613,4.0296,0.0,0.0,0.0,0.0,0.0,0.0,0.0,0.0,0.0,0.0,0.0,0.0,0.0,0.0,0.0,0.0,0.0,0.0,0.0,0.0,0.0,0.0,0.0,0.0,0.0,0.0,0.0,0.0,2.7394,2.7588,2.7054,0.0,0.0,0.0,0.0,0.0,0.0,0.0,0.0,0.0,0.0,3.4971,3.5871,3.6931,0.0,0.0,3.8355,3.8473,3.8785,3.7965,3.7181,3.6852,3.6342,0.0,0.0,0.0,0.0,0.0,0.0,0.0,0.0,0.0,0.0,0.0,0.0,0.0,0.0,0.0,0.0,0.0,0.0,0.0,0.0,0.0,0.0,0.0,0.0,0.0,0.0,0.0,0.0,0.0,0.0,0.0,0.0,0.0,0.0,0.0,0.0,0.0,0.0,0.0,0.0,0.0,0.0,0.0,0.0,0.0,0.0,0.0,0.0,0.0,0.0,0.0,0.0,3.4773,3.6347,3.8534,4.0758,4.3047,4.1893,4.197,4.3371,4.2776,4.1625,0.0,0.0,0.0,0.0,0.0,0.0,0.0,0.0,0.0,0.0,0.0,0.0,0.0,0.0,0.0,0.0,0.0,0.0,0.0,0.0,0.0,0.0,0.0,0.0,0.0,0.0,0.0,0.0,2.7993,2.8071,2.7466,0.0,0.0,0.0,0.0,0.0,0.0,0.0,0.0,0.0,0.0,3.5858,3.6282,3.7822,3.9058,3.939,3.9449,3.9523,3.9761,3.8609,3.7767,3.8004,0.0,0.0,0.0,0.0,0.0,0.0,0.0,0.0,0.0,0.0,0.0,0.0,0.0,0.0,0.0,0.0,0.0,0.0,0.0,0.0,0.0,0.0,0.0,0.0,0.0,0.0,0.0,0.0,0.0,0.0,2.226,0.0,0.0,0.0,0.0,0.0,0.0,0.0,0.0,0.0,0.0,0.0,0.0,0.0,0.0,0.0,0.0,0.0,0.0,0.0,0.0,0.0,0.0,3.5325,3.6236,3.9035,4.1316,4.3028,4.3066,4.3431,4.4182,4.3569,4.2414,4.0811,0.0,0.0,0.0,0.0,0.0,0.0,0.0,0.0,0.0,0.0,0.0,0.0,0.0,0.0,0.0,0.0,0.0,0.0,0.0,0.0,0.0,0.0,0.0,0.0,0.0,0.0,2.5941,2.7308,2.8323,0.0,0.0,0.0,0.0,0.0,0.0,0.0,0.0,0.0,0.0,3.6587,3.7922,3.7221,3.8565,3.9465,3.8824,3.8681,3.8935,3.9705,3.91,3.8846,0.0,0.0,0.0,0.0,0.0,0.0,0.0,0.0,0.0,0.0,0.0,0.0,0.0,0.0,0.0,0.0,0.0,0.0,0.0,0.0,0.0,0.0,0.0,0.0,0.0,0.0,0.0,2.7991,2.8442,0.0,0.0,0.0,0.0,0.0,0.0,0.0,0.0,0.0,0.0,0.0,3.4141,3.5411,0.0,0.0,0.0,0.0,0.0,0.0,0.0,0.0,0.0,0.0,0.0,0.0,3.6235,3.7277,3.995,4.1931,4.3066,4.3605,4.4008,4.4297,4.4133,4.3071,4.0996,0.0,0.0,0.0,0.0,0.0,0.0,0.0,0.0,0.0,0.0,0.0,0.0,0.0,0.0,0.0,0.0,0.0,0.0,0.0,0.0,0.0,0.0,0.0,0.0,0.0,2.7897,0.0,0.0,0.0,0.0,0.0,0.0,0.0,0.0,0.0,0.0,0.0,3.562,3.6704,3.716,3.7696,3.8563,3.9701,4.0545,0.0,0.0,0.0,0.0,0.0,0.0,0.0,0.0,0.0,0.0,0.0,0.0,0.0,0.0,3.4269,3.3492,3.348,3.3411,3.2792,0.0,0.0,0.0,0.0,0.0,0.0,0.0,0.0,0.0,0.0,0.0,0.0,0.0,0.0,3.1556,0.0,3.1716,0.0,0.0,0.0,0.0,0.0,0.0,0.0,0.0,3.5115,3.6483,3.6873,3.8089,3.83,0.0,3.7172,3.5367,0.0,0.0,0.0,0.0,0.0,0.0,0.0,0.0,3.7262,3.859,4.1003,4.2662,4.3508,4.4316,4.4759,4.4739,4.4611,4.3664,4.1891,4.0214,3.8951,0.0,0.0,0.0,0.0,0.0,0.0,0.0,0.0,0.0,0.0,0.0,0.0,0.0,0.0,0.0,0.0,0.0,0.0,0.0,0.0,0.0,0.0,0.0,3.0131,0.0,0.0,0.0,0.0,0.0,0.0,0.0,0.0,0.0,3.4357,3.5534,3.6742,3.7514,3.8202,3.8832,3.9402,0.0,0.0,0.0,0.0,0.0,0.0,0.0,3.9734,3.9723,3.919,3.8471,3.7541,3.691,3.6532,3.6542,0.0,0.0,3.4874,3.4956,3.5087,3.4475,3.4616,3.4911,3.5026,3.5361,3.5753,0.0,0.0,0.0,0.0,0.0,0.0,0.0,0.0,3.4366,3.3996,0.0,3.3158,0.0,0.0,0.0,0.0,0.0,3.4553,0.0,0.0,3.9185,4.0046,3.9431,4.0104,4.0085,3.9335,3.8546,3.8047,3.7708,3.5449,0.0,0.0,0.0,0.0,0.0,0.0,3.8385,4.0156,4.2134,4.3508,4.4278,4.5163,4.5663,4.568,4.4944,4.4195,4.3461,4.193,4.068,3.9816,3.6657,0.0,0.0,0.0,0.0,0.0,0.0,0.0,0.0,0.0,0.0,0.0,0.0,0.0,0.0,0.0,0.0,0.0,0.0,0.0,0.0,3.2129,0.0,0.0,0.0,0.0,0.0,0.0,0.0,0.0,0.0,0.0,3.4808,3.6526,3.7757,3.7026,0.0,0.0,0.0,0.0,4.2698,4.1349,4.1857,4.2164,4.1421,4.1878,4.2285,4.2246,0.0,0.0,3.8388,3.8202,3.8175,3.8187,3.8761,3.8859,3.744,3.7104,3.7027,3.7005,3.7526,3.7738,3.7103,3.7488,3.8041,3.4982,0.0,0.0,0.0,0.0,3.4653,3.5577,3.7015,3.6819,3.7018,3.7462,3.7233,0.0,0.0,0.0,0.0,0.0,0.0,3.7581,3.8501,3.9231,4.0111,4.1046,4.0681,4.07,4.1046,4.0835,4.0995,4.15,4.0651,3.8575,3.5477,0.0,0.0,0.0,0.0,3.9735,4.0521,4.2761,4.4066,4.4316,4.5759,4.6797,4.7355,4.6022,4.5214,4.5028,4.3518,4.2066,4.07,3.9178,0.0,0.0,0.0,0.0,0.0,0.0,0.0,0.0,0.0,0.0,0.0,0.0,0.0,0.0,0.0,0.0,0.0,0.0,0.0,3.1952,3.416,3.541,0.0,0.0,0.0,0.0,0.0,0.0,0.0,0.0,0.0,3.7945,3.845,3.9277,0.0,0.0,4.0523,4.184,4.2698,4.3276,4.3466,4.4229,0.0,4.4552,4.4626,4.4504,4.3929,4.2337,4.1031,4.0781,4.0236,3.9827,3.9798,4.0,4.0177,4.04,3.989,3.9504,3.9484,3.9646,3.9723,3.9508,3.9623,3.9777,3.8709,3.7999,3.6502,3.6388,3.7177,3.7483,3.8489,3.9819,3.9861,3.9928,3.9983,3.9964,3.926,3.8004,3.77,0.0,0.0,0.0,3.9355,4.0246,4.0592,4.1127,4.1777,4.1623,4.1797,4.2277,4.1848,4.2153,4.3085,4.247,4.0922,3.8459,0.0,0.0,3.858,3.9983,4.1146,4.2027,4.3508,4.4624,4.5336,4.6682,4.7605,4.8067,4.7124,4.6513,4.628,4.5068,4.3819,4.2621,4.1464,4.0054,0.0,0.0,0.0,0.0,0.0,0.0,0.0,0.0,0.0,0.0,0.0,2.885,0.0,0.0,0.0,0.0,3.3979,3.4425,3.4902,3.6754,0.0,0.0,0.0,0.0,0.0,0.0,0.0,3.7488,3.9123,4.0312,4.0296,4.0604,4.1046,4.172,4.1489,4.1835,4.3355,0.0,4.4341,4.491,4.5716,4.6177,4.5945,4.6375,4.6323,4.5124,4.3742,4.2684,4.2354,4.1876,4.155,4.1527,4.1527,4.1797,4.2624,4.2338,4.1896,4.1604,4.153,4.153,4.1546,4.1546,4.1527,4.2202,4.2696,3.9395,3.8976,4.0535,4.1282,4.2065,4.2885,4.2885,4.241,4.1609,4.1609,4.0749,3.9278,3.8548,0.0,4.0694,4.0713,4.1152,4.2027,4.2777,4.272,4.2047,4.2758,4.3124,4.3162,4.2125,4.222,4.3222,4.2259,4.1837,4.2107,4.1721,4.1626,4.1764,4.172,4.2601,4.4374,4.447,4.5336,4.7067,4.7817,4.824,4.8317,4.8259,4.7954,4.7389,4.6577,4.5802,4.5098,4.3564,4.1908,4.019,0.0,0.0,0.0,0.0,0.0,0.0,0.0,0.0,0.0,0.0,0.0,0.0,0.0,0.0,0.0,3.835,0.0,3.9429,3.9456,0.0,0.0,0.0,3.8396,3.9392,3.9435,3.9742,4.0585,0.0,0.0,4.2085,4.2797,4.3066,4.2393,4.3451,4.4374,4.4566,4.5336,4.5849,4.6081,4.6784,4.7074,4.6776,4.756,4.7789,4.6333,4.5164,4.4395,4.3682,4.3492,4.3436,4.3297,4.3355,4.3643,4.4374,4.4528,4.4393,4.3701,4.3508,4.3415,4.3451,4.3547,4.3643,4.354,4.3675,4.2811,4.2412,4.2291,4.2483,4.2659,4.2814,4.2868,4.2736,4.2507,4.2489,4.2278,4.197,4.1778,4.1948,4.2403,4.242,4.2879,4.3643,4.3278,4.3316,4.3682,4.3297,4.3412,4.397,4.3726,4.409,4.497,4.4518,4.4422,4.4703,4.5033,4.4077,4.1934,4.3013,4.4186,4.5278,4.5951,4.7105,4.874,4.899,4.9413,5.0048,4.9433,4.908,4.8996,4.8289,4.7262,4.5904,4.5523,4.4582,4.2864,4.0503,0.0,0.0,0.0,0.0,0.0,0.0,0.0,0.0,0.0,3.4163,3.2815,0.0,3.689,0.0,4.0865,4.1519,3.9598,3.9893,0.0,0.0,3.8522,3.8854,4.095,4.0623,4.0796,4.2329,4.2681,4.3278,4.4547,4.4874,4.5413,4.6413,4.5259,4.5009,4.6855,4.7439,4.7902,4.8546,4.9336,4.9879,4.9621,4.9324,4.8967,4.8586,4.774,4.695,4.6144,4.6007,4.5815,4.5201,4.5566,4.6028,4.622,4.6759,4.7086,4.6913,4.6432,4.6009,4.6009,4.6431,4.6873,4.4571,4.459,4.4571,4.4325,4.3963,4.3963,4.3963,4.3922,4.3943,4.3733,4.3329,4.2967,4.2852,4.2908,4.2944,4.3173,4.3555,4.3574,4.3841,4.4282,4.4205,4.4414,4.4874,4.4816,4.522,4.597,4.5879,4.6129,4.6664,4.6433,4.6453,4.6721,4.705,4.6262,4.4461,4.5437,4.624,4.6721,4.7567,4.8452,4.9375,4.9779,5.0202,5.0664,5.0202,4.9797,4.9579,4.9117,4.8359,4.7303,4.7288,4.6567,4.4933,4.3138,4.1986,0.0,0.0,0.0,0.0,0.0,0.0,0.0,0.0,0.0,0.0,0.0,3.8592,3.9435,4.1718,4.242,4.0646,4.117,4.147,4.1027,4.0562,4.0966,4.2739,4.2489,4.2701,4.4064,4.4547,4.5126,4.6049,4.649,4.7182,4.849,4.7471,4.7067,4.8336,4.8771,4.9092,4.9978,5.0488,5.0809,5.0808,5.0008,4.9413,4.9336,4.8663,4.7932,4.7509,4.7413,4.7277,4.6855,4.7124,4.7432,4.7451,4.7759,4.8105,4.8086,4.8086,4.7894,4.7528,4.7777,4.8085,4.5297,4.5277,4.5277,4.5277,4.5277,4.5277,4.5277,4.5277,4.5277,4.4876,4.4131,4.3446,4.3158,4.3233,4.3269,4.3728,4.4438,4.4517,4.4575,4.4613,4.54,4.5821,4.5896,4.6683,4.7432,4.8068,4.7872,4.7872,4.8087,4.7872,4.7851,4.803,4.8126,4.8025,4.7728,4.814,4.8299,4.8241,4.9087,4.9567,4.9586,5.0298,5.0683,5.0702,5.0623,5.0298,4.9688,4.9597,4.9296,4.8769,4.8758,4.8093,4.6667,4.5769,4.4598,0.0,4.1361,0.0,0.0,0.0,0.0,0.0,0.0,0.0,0.0,4.0224,4.0315,3.9996,4.2189,4.322,4.2357,4.2989,4.3431,4.3431,4.341,4.3753,4.4509,4.4645,4.4972,4.5836,4.6605,4.7068,4.7261,4.7837,4.8586,4.9548,4.9683,4.9683,4.9875,4.974,4.9856,5.0625,5.0683,5.0721,5.0645,5.0106,4.9606,4.951,4.9067,4.8414,4.8298,4.8279,4.8221,4.8105,4.8144,4.826,4.8222,4.8279,4.8395,4.8432,4.8912,4.9067,4.8433,4.8375,4.8356,4.5192,4.5297,4.5277,4.5277,4.5277,4.5277,4.5277,4.5277,4.5277,4.5243,4.5149,4.4958,4.4921,4.4921,4.494,4.5074,4.5283,4.5778,4.5982,4.6025,4.6885,4.7289,4.7329,4.7703,4.7952,4.8105,4.8049,4.8049,4.8105,4.8049,4.7893,4.7643,4.8331,4.8632,4.86,0.0,0.0,0.0,4.9892,5.0452,5.0452,5.0547,5.0623,5.0623,5.0542,0.0,5.0484,5.0465,5.014,4.9459,4.9504,0.0,0.0,0.0,0.0,0.0,0.0,0.0,0.0,0.0,0.0,0.0,4.1735,4.1286,4.1636,4.3376,4.3921,4.2628,4.4694,4.5818,4.4974,4.501,4.5124,4.5105,4.5137,4.5483,4.6297,4.6414,4.6723,4.751,4.7778,4.8164,4.8856,4.9067,4.976,5.1125,5.1414,5.1722,5.2318,5.1279,5.0567,5.0664,5.0818,5.0741,5.0683,5.0606,5.051,5.0414,5.0356,4.9952,4.9356,4.9183,4.8875,4.8337,4.8663,4.9067,4.8881,4.9332,4.964,4.9504,4.9586,4.9553,4.899,4.9347,4.9735,4.5235,0.0,4.5277,4.5277,0.0,4.5109,4.5151,4.5277,4.5277,4.5317,4.5357,4.5277,4.5256,4.5258,4.5137,4.5409,4.5953,4.6266,4.6688,4.7256,4.7698,4.812,4.8564,4.8945,4.9118,4.9116,4.9347,4.9239,4.8815,4.8838,4.8729,4.8555,4.9167,4.9377,4.9207,4.9765,4.9992,4.9848,5.0372,5.0663,5.0643,5.0582,5.0542,5.0562,5.09,0.0,0.0,0.0,0.0,0.0,0.0,0.0,0.0,0.0,0.0,4.7488,4.6674,4.6015,4.5523,4.4718,4.4526,4.5204,4.4793,4.3995,4.2753,4.4847,4.5731,4.4577,4.629,4.7317,4.6896,4.6837,4.6836,4.6817,4.6835,4.7027,4.7451,4.7875,4.8452,4.926,4.974,5.0298,5.1182,5.1279,5.1568,5.2375,5.2529,5.2702,5.3049,5.2491,5.1933,5.1934,5.1934,5.1933,5.1933,5.1933,5.1914,5.1933,5.1914,5.1568,5.0779,5.0526,5.0136,4.9367,4.9436,4.9549,4.9453,4.9744,4.9958,4.9853,4.9803,4.969,4.9311,4.9633,4.9982,4.5608,4.5567,4.5567,4.5567,4.5544,4.5255,4.5366,4.5633,0.0,0.0,0.0,4.5258,4.5293,4.5335,4.5337,4.5798,4.6561,4.6686,4.727,4.8245,4.8264,4.8747,4.9573,4.9911,5.0043,5.0012,5.0439,5.026,4.9551,4.9626,4.9654,4.9626,4.9924,4.9879,4.9514,4.9773,5.0212,5.0774,5.064,5.064,5.0794,5.0751,5.0766,5.09,5.1545,5.1882,5.1882,5.2466,5.2909,5.307,5.2473,5.1882,5.1372,5.0828,5.0139,4.935,4.8756,4.8626,4.9056,4.7762,4.722,4.7787,4.7858,4.6797,4.4297,4.6089,4.6998,4.6201,4.7615,4.8548,4.8567,4.8702,4.8836,4.899,4.9009,4.9048,4.9067,4.9606,5.0394,5.1068,5.1683,5.2355,5.297,5.3068,5.328,5.3395,5.3414,5.353,5.3568,5.3356,5.305,5.3031,5.2954,5.3106,5.3164,5.3106,5.3203,5.3049,5.3106,5.2933,5.2315,5.1897,5.1453,5.0775,5.0399,5.0231,5.0137,5.0187,5.0081,5.0043,5.0026,4.9965,4.9808,4.9877,4.9965,4.6749,4.6591,4.6591,4.6591,4.6591,4.6534,4.6703,4.6891,4.5513,4.4868,4.4924,4.5645,4.6107,4.6345,4.7048,4.7338,4.7308,4.7756,4.8284,4.8884,4.8933,4.9384,5.0147,4.9757,4.9589,4.958,4.9665,4.9646,4.9599,4.9879,4.9891,4.9618,4.9599,4.9416,4.9043,4.9386,5.0107,5.1179,5.0738,5.0867,5.1535,5.1549,5.1871,5.2537,5.2604,5.2657,5.2657,5.2747,5.2829,5.2839,5.2842,5.2813,5.2737,5.2812,5.2535,5.1715,5.1583,5.1311,5.0705,5.0433,5.0319,5.0332,5.0863,5.0175,4.7878,4.8475,4.8696,4.793,4.9356,5.0336,5.0374,5.0912,5.1548,5.2241,5.2434,5.2472,5.2299,5.2394,5.2567,5.276,5.2933,5.3049,5.3299,5.3318,5.3606,5.4147,5.4278,5.453,5.478,5.4107,5.3299,5.3183,5.3183,5.3203,5.3374,5.3201,5.3297,5.3203,5.3278,5.3236,5.2967,5.2671,5.2342,5.2203,5.1736,5.1499,5.1214,5.1269,5.1077,5.0866,5.0804,5.0805,5.0713,5.0805,5.0489,4.6977,4.7061,4.7061,4.717,4.7321,4.7143,4.6977,4.6757,4.6015,4.5866,4.6177,4.6471,4.6569,4.6533,4.6798,4.7183,4.7636,4.7864,4.8452,4.9246,4.9302,4.9521,4.9847,4.9934,4.9715,4.9227,4.9548,4.943,4.8967,4.9126,4.915,4.9061,4.9594,4.9909,4.9909,5.0466,5.1129,5.1836,5.1231,5.1353,5.2311,5.2303,5.249,5.2853,5.3269,5.3511,5.3511,5.3951,5.4205,5.4211,5.38,5.3613,5.3713,5.3407,5.307,5.2723,5.28,5.2661,5.2221,5.1725,5.1406,5.1411,5.1703,5.1683,5.1027,5.0831,5.0583,5.0259,5.1337,5.2046,5.2066,5.2394,5.2779,5.3164,5.3183,5.3183,5.3203,5.3203,5.3376,5.3799,5.3895,5.4068,5.4491,5.4549,5.4645,5.5088,5.5032,5.502,5.51,5.4508,5.409,5.4466,5.4549,5.4568,5.4528,5.4357,5.4239,5.4237,5.4044,5.3722,5.3321,5.2948,5.2594,5.2095,5.1804,5.15,5.1306,5.1281,5.1228,5.1158,5.1077,5.1095,5.1078,5.1099,5.0841,4.7346,4.7523,4.7523,4.7664,4.787,4.771,4.7395,4.6973,4.7039,4.7273,4.758,4.7266,4.7042,4.6842,4.6869,4.7345,4.7975,4.8031,4.8557,4.9427,4.9327,4.9346,4.9521,4.9832,4.9514,4.8874,4.927,4.914,4.8456,4.8698,4.8938,4.9196,5.0059,5.0594,5.0721,5.1312,5.1855,5.2319,5.1888,5.211,5.3121,5.3116,5.3187,5.3416,5.4046,5.439,5.4428,5.504,5.539,5.5364,5.474,5.4415,5.4508,5.3962,5.3656,5.3704,5.38,5.3836,5.3705,5.3047,5.266,5.2719,5.2737,5.3025,5.3586,5.3148,5.2569,5.2358,5.2933,5.3451,5.349,5.3703,5.376,5.376,5.378,5.3857,5.378,5.376,5.3991,5.4645,5.478,5.5011,5.5511,5.5599,5.5497,5.5408,5.5358,5.5069,5.4771,5.4694,5.4952,5.5225,5.544,5.5322,5.5423,5.5129,5.4905,5.4963,5.4694,5.4216,5.3652,5.3297,5.2893,5.2319,5.19,5.1784,5.163,5.1627,5.1682,5.1738,5.1753,5.1658,5.1701,5.1704,5.1429,4.8435,4.8237,4.8218,4.82,4.8309,4.8537,4.8587,4.8553,4.887,4.8888,4.8528,4.788,4.7708,4.8028,4.8628,4.8805,4.8649,4.8686,4.899,4.9398,4.8789,4.8844,4.9416,4.8843,4.8437,4.8401,4.8491,4.864,4.8659,4.9472,5.0282,5.0951,5.1138,5.1102,5.0853,5.0906,5.1451,5.2492,5.2803,5.3267,5.3945,5.397,5.4352,5.5154,5.5212,5.5269,5.5288,5.5365,5.5403,5.5384,5.5365,5.5307,5.5269,5.5231,5.5186,5.5164,5.5224,5.5306,5.5278,5.5224,5.5071,5.5163,5.51,5.516,5.5292,5.5297,5.4666,5.3645,5.3893,5.4355,5.4451,5.4951,5.528,5.5241,5.528,5.5472,5.5357,5.5453,5.5511,5.5568,5.5491,5.5626,5.5624,5.5418,5.5153,5.508,5.4996,5.4862,5.4752,5.4733,5.4678,5.4633,5.4624,5.4635,5.4659,5.4628,5.4538,5.4553,5.453,5.4279,5.4043,5.3901,5.3756,5.3125,5.3119,5.2858,5.2867,5.2986,5.2894,5.2697,5.2752,5.2913,5.2949,5.2881,5.2445,4.8569,4.8586,4.8586,4.8711,4.89,4.8832,4.8816,4.8816,4.8746,4.8604,4.8495,4.8181,4.8106,4.8231,4.8581,4.8604,4.8495,4.8495,4.8605,4.8783,4.8453,4.8489,4.8765,4.8584,4.862,4.904,4.9118,4.9375,4.9871,5.0339,5.0692,5.1062,5.1484,5.1643,5.1555,5.1995,5.2548,5.3218,5.3367,5.3703,5.4193,5.4626,5.504,5.5345,5.5403,5.5651,5.6052,5.611,5.6339,5.6816,5.6893,5.6645,5.6136,5.6116,5.5887,5.5454,5.5428,5.5454,5.5523,5.5476,5.5499,5.5596,5.5618,5.5599,5.566,5.5703,5.5376,5.4895,5.503,5.5201,5.5182,5.5429,5.564,5.564,5.5596,5.5596,5.5599,5.5615,5.5596,5.5577,5.5577,5.5596,5.5531,5.526,5.495,5.4723,5.4574,5.4443,5.4123,5.3968,5.3926,5.3773,5.3709,5.3999,5.4307,5.4221,5.4119,5.4062,5.3859,5.3717,5.3734,5.3656,5.3502,5.3444,5.3341,5.3254,5.3115,5.3206,5.3206,5.3206,5.3206,5.3206,5.3206,5.3206,5.2863,4.8439,4.8658,4.8658,4.8816,4.8982,4.8781,4.8658,4.8658,4.8402,4.8324,4.8324,4.8324,4.8324,4.8324,4.8324,4.8324,4.8324,4.8324,4.8324,4.8324,4.8324,4.8324,4.8324,4.8676,4.9081,4.9556,4.9871,5.0404,5.1041,5.1132,5.1224,5.1518,5.205,5.2325,5.238,5.2949,5.3295,5.3563,5.3944,5.4334,5.4721,5.5579,5.595,5.566,5.5931,5.6377,5.6931,5.695,5.7103,5.7504,5.7772,5.7485,5.6671,5.6811,5.6697,5.6167,5.6091,5.6097,5.616,5.6104,5.6154,5.6303,5.6322,5.6303,5.6371,5.6395,5.6398,5.6398,5.6374,5.6332,5.6008,5.5986,5.606,5.6272,5.6303,5.6284,5.6326,5.6261,5.6318,5.6222,5.6395,5.6141,5.6012,5.5789,5.5484,5.5273,5.4876,5.4478,5.4185,5.4167,5.4142,5.3873,5.3885,5.3942,5.411,5.387,5.3665,5.3591,5.3415,5.3254,5.3206,5.3206,5.3206,5.3336,5.323,5.3206,5.3206,5.3206,5.3261,5.3225,5.3206,5.3206,5.3206,5.3206,5.3206,4.8306,4.8344,4.8344,4.8382,4.8326,4.8344,4.8344,4.8364,4.8306,4.8324,4.8324,4.8324,4.8324,4.8324,4.8324,4.8324,4.8324,4.8324,4.8324,4.8324,4.8361,4.8324,4.8361,4.9132,4.9612,4.9848,5.0453,5.1151,5.1922,5.194,5.2344,5.3041,5.3059,5.3133,5.317,5.3243,5.3243,5.3534,5.4596,5.5369,5.5567,5.688,5.7054,5.6337,5.7158,5.7714,5.7829,5.7848,5.7542,5.674,5.7581,5.7581,5.6843,5.7385,5.7748,5.7695,5.7714,5.7714,5.7703,5.7638,5.7691,5.7826,5.7742,5.7925,5.7843,5.7893,5.7879,5.8019,5.7847,5.7608,5.7117,5.6947,5.722,5.7831,5.8066,5.7985,5.8066,5.7785,5.8054,5.7915,5.7733,5.7449,5.7245,5.6964,5.6538,5.6328,5.6164,5.5806,5.5677,5.5771,5.5577,5.5392,5.5207,5.4975,5.3676,5.3543,5.3465,5.3285,5.3308,5.3225,5.3206,5.3206,5.3243,5.3316,5.3518,5.3537,5.3316,5.3261,5.3335,5.3316,5.3243,5.3225,5.3206,5.3206,5.3206,4.8229,4.8324,4.8324,4.8324,4.8324,4.8324,4.8324,4.8324,4.8324,4.8324,4.8324,4.8324,4.8324,4.8324,4.8324,4.8324,4.8324,4.8324,4.8324,4.8379,4.8875,4.9114,4.9224,4.9976,5.0674,5.1132,5.1426,5.1977,5.2692,5.2766,5.2913,5.3133,5.3206,5.3445,5.3885,5.3959,5.4197,5.4699,5.4829,5.5047,5.5535,5.5882,5.6372,5.728,5.7672,5.8154,5.8651,5.867,5.8765,5.8994,5.9338,5.9109,5.8307,5.7989,5.7886,5.7889,5.7898,5.7913,5.7939,5.7913,5.7939,5.8042,5.8042,5.8144,5.8117,5.8165,5.815,5.815,5.8146,5.8136,5.8355,5.7996,5.7766,5.8016,5.8087,5.8131,5.8021,5.801,5.8011,5.7951,5.7768,5.7517,5.7371,5.6779,5.6357,5.6271,5.6014,5.5872,5.5803,5.5789,5.5846,5.568,5.5574,5.539,5.495,5.4252,5.3885,5.3408,5.3225,5.328,5.3298,5.3812,5.3995,5.4106,5.4197,5.4454,5.4399,5.4112,5.4057,5.3904,5.3794,5.339,5.3206,5.3261,5.3243,4.8247,4.8306,4.8324,4.8324,4.8324,4.8324,4.8324,4.8324,4.8324,4.8324,4.8324,4.8324,4.8453,4.8691,4.8728,4.8893,4.9058,4.8857,4.8691,4.8802,4.9572,4.9994,5.0123,5.0802,5.1463,5.1977,5.2289,5.2692,5.3133,5.3206,5.3206,5.3206,5.3445,5.3849,5.4326,5.4418,5.4693,5.5005,5.4809,5.4986,5.5692,5.5933,5.6743,5.8087,5.8343,5.8682,5.9463,5.951,5.9606,5.995,6.0236,6.0122,5.9529,5.9014,5.87,5.871,5.8738,5.8735,5.8762,5.8735,5.8781,5.8866,5.884,5.884,5.8917,5.8917,5.8897,5.8897,5.8892,5.9173,5.9381,5.9033,5.8642,5.8769,5.8795,5.8719,5.861,5.87,5.8716,5.8587,5.8292,5.8012,5.781,5.7344,5.7063,5.6889,5.6596,5.6408,5.6381,5.6363,5.6363,5.6363,5.6473,5.6326,5.5996,5.5493,5.4979,5.4528,5.4081,5.3897,5.3922,5.4436,5.4766,5.4895,5.5133,5.5445,5.5453,5.5085,5.4883,5.4686,5.4289,5.383,5.361,5.3371,5.3329,4.8398,4.8453,4.8343,4.8489,4.8563,4.8563,4.8416,4.8526,4.8489,4.8581,4.8673,4.8471,4.8967,4.9462,4.9591,4.9994,5.0362,4.9903,4.9609,4.9682,5.0435,5.0802,5.0875,5.1628,5.2013,5.216,5.2821,5.317,5.3206,5.3298,5.3335,5.3408,5.4069,5.4454,5.4454,5.4528,5.4491,5.4669,5.487,5.5387,5.6211,5.7061,5.796,5.8953,5.899,5.9326,6.0189,6.0284,5.9941,5.9453,5.9988,6.037,6.0293,6.0198,6.0274,6.0179,6.0274,6.0313,6.0274,6.0198,6.013,6.0204,6.0384,6.0257,6.0207,6.031,6.0329,6.0284,6.0296,6.0376,6.0293,5.9957,5.9832,6.0403,6.0127,5.9955,5.9907,6.0162,6.0253,5.9655,5.9171,5.9122,5.9066,5.852,5.8168,5.811,5.7918,5.7666,5.7593,5.7574,5.785,5.7831,5.7574,5.7226,5.6997,5.6713,5.6282,5.5805,5.5438,5.5145,5.5034,5.5372,5.5556,5.5684,5.5779,5.6072,5.5944,5.5642,5.5259,5.5058,5.4627,5.4122,5.3867,5.3586,5.3469,5.0031,5.0031,5.0031,5.0031,5.0031,5.0031,5.0031,5.0013,5.0031,5.0031,5.0031,5.0031,5.0196,5.0362,5.0435,5.0582,5.082,5.1022,5.0949,5.0655,5.1261,5.1628,5.1775,5.2435,5.2839,5.2858,5.3078,5.3206,5.3316,5.3757,5.4032,5.4179,5.4821,5.5188,5.5225,5.5225,5.5207,5.5251,5.5319,5.581,5.6473,5.6441,5.713,5.8508,5.825,5.8447,5.9499,5.9842,5.9996,5.996,6.0236,6.0389,6.0389,6.0389,6.0389,6.0389,6.0389,6.0389,6.0389,6.0389,6.0417,6.0417,6.0417,6.0444,6.0444,6.0472,6.0491,6.0464,6.0444,6.0436,6.0408,6.0332,6.0159,6.0061,5.9804,5.9703,5.9569,5.957,5.9526,5.9405,5.9028,5.8818,5.8692,5.8428,5.8217,5.8223,5.807,5.7978,5.7978,5.7978,5.7978,5.7978,5.7941,5.7941,5.7611,5.7363,5.7171,5.673,5.6355,5.6153,5.6098,5.6198,5.6363,5.642,5.651,5.6478,5.6394,5.6079,5.5686,5.5153,5.4535,5.4241,5.4005,5.3712,5.3399,5.082,5.082,5.082,5.082,5.082,5.082,5.082,5.082,5.082,5.082,5.0802,5.0802,5.0967,5.1206,5.1242,5.1426,5.172,5.2252,5.2179,5.1811,5.2179,5.2454,5.2491,5.2913,5.3206,5.3206,5.3206,5.3371,5.3665,5.4142,5.4546,5.4913,5.5647,5.6033,5.6033,5.6033,5.6033,5.6014,5.5739,5.5978,5.6528,5.6308,5.6816,5.8067,5.787,5.8204,5.914,5.9449,5.9758,6.0129,6.0313,6.0389,6.0389,6.0389,6.0389,6.0389,6.0389,6.0389,6.0389,6.0389,6.0389,6.0389,6.0389,6.0389,6.0389,6.0389,6.0389,6.0389,6.0389,6.0389,6.0389,6.0256,6.0049,5.9823,5.9758,5.9582,5.9448,5.9156,5.899,5.8895,5.8632,5.8411,5.8317,5.8226,5.7978,5.7978,5.7978,5.7978,5.7978,5.7978,5.7978,5.7978,5.7978,5.796,5.7978,5.7941,5.7941,5.7593,5.7207,5.6997,5.695,5.7097,5.7244,5.7106,5.712,5.6861,5.6726,5.6201,5.5725,5.5147,5.4581,5.4454,5.4201,5.3363,5.3037,5.0949,5.093,5.0949,5.1059,5.1077,5.1077,5.1132,5.1041,5.1059,5.1114,5.1077,5.1169,5.1444,5.1958,5.2068,5.2399,5.3059,5.3059,5.3059,5.3004,5.3096,5.3078,5.3096,5.317,5.3206,5.3206,5.3316,5.3683,5.4252,5.4638,5.4913,5.5684,5.6436,5.6804,5.6712,5.6785,5.6657,5.64,5.5978,5.6143,5.6785,5.6895,5.7189,5.7987,5.8015,5.827,5.8891,5.9159,5.9413,5.9823,6.0237,6.0389,6.0389,6.0389,6.0389,6.0389,6.0389,6.0389,6.0389,6.0389,6.0389,6.0389,6.0389,6.0389,6.0389,6.0389,6.0389,6.0389,6.0389,6.0389,6.0342,6.0129,5.9937,5.9906,5.9981,5.9924,5.9668,5.9024,5.8708,5.8561,5.8245,5.8015,5.8033,5.8015,5.7997,5.7978,5.7978,5.7978,5.7978,5.7978,5.7978,5.7978,5.7978,5.7978,5.7978,5.7978,5.7978,5.7886,5.7611,5.7556,5.7519,5.7666,5.7776,5.7674,5.7389,5.718,5.6753,5.6097,5.5668,5.515,5.4856,5.4715,5.4208,5.3402,5.3247,5.2582,5.2582,5.2582,5.2582,5.2582,5.2582,5.2546,5.2564,5.2546,5.2454,5.2546,5.2582,5.2601,5.2858,5.2876,5.3023,5.317,5.3206,5.3206,5.3206,5.3206,5.3206,5.3206,5.3206,5.3225,5.3316,5.3775,5.4216,5.4491,5.5537,5.6216,5.651,5.7226,5.7354,5.6914,5.684,5.6455,5.6088,5.6381,5.6565,5.6859,5.7409,5.7758,5.7923,5.7978,5.8115,5.8369,5.891,5.9537,6.0159,6.0313,6.0389,6.0389,6.0389,6.0389,6.0389,6.0389,6.0389,6.0389,6.0389,6.0389,6.0389,6.0389,6.0389,6.0389,6.0389,6.0389,6.0389,6.0389,6.0389,6.0389,6.0285,6.0237,6.0169,5.9935,5.9469,5.9084,5.876,5.8505,5.8201,5.8051,5.8024,5.7978,5.7978,5.7978,5.7978,5.7978,5.7978,5.7978,5.7978,5.7978,5.7978,5.7978,5.7978,5.7978,5.7978,5.7978,5.7978,5.7886,5.785,5.7813,5.7868,5.7923,5.7895,5.718,5.6843,5.6258,5.5631,5.529,5.5044,5.4616,5.4312,5.4146,5.3619,5.3795,5.3206,5.3206,5.3206,5.3206,5.3206,5.3206,5.3206,5.3206,5.3206,5.3206,5.3206,5.3206,5.3206,5.3206,5.3206,5.3206,5.3206,5.3206,5.3206,5.3206,5.3206,5.3206,5.3206,5.3206,5.339,5.3739,5.4179,5.4785,5.5445,5.64,5.6914,5.7317,5.7758,5.7721,5.7391,5.7281,5.7097,5.6785,5.7079,5.7317,5.7354,5.774,5.7923,5.7978,5.7978,5.8042,5.8326,5.9026,5.9673,6.008,6.0285,6.0389,6.0389,6.0389,6.0389,6.0389,6.0389,6.0389,6.0389,6.0389,6.0389,6.0389,6.0389,6.0389,6.0389,6.0389,6.0389,6.0389,6.0389,6.0389,6.0389,6.0389,6.0389,6.0342,5.9965,5.9454,5.8912,5.8874,5.8572,5.8194,5.7978,5.7978,5.7978,5.7978,5.7978,5.7978,5.7978,5.7978,5.7978,5.7978,5.7978,5.7978,5.7978,5.7978,5.7978,5.7978,5.7978,5.7978,5.7978,5.7978,5.7978,5.7978,5.7978,5.7821,5.7065,5.6492,5.5999,5.5496,5.4938,5.4598,5.4213,5.3949,5.3844,5.3669,5.396,5.3206,5.3206,5.3206,5.3206,5.3206,5.3206,5.3206,5.3206,5.3206,5.3206,5.3206,5.3206,5.3206,5.3206,5.3206,5.3206,5.3206,5.3206,5.3206,5.3206,5.3225,5.328,5.3482,5.35,5.3775,5.4289,5.4491,5.5464,5.6363,5.684,5.7317,5.7758,5.796,5.7997,5.7822,5.7905,5.796,5.7813,5.7776,5.785,5.785,5.7941,5.7978,5.7978,5.7978,5.8142,5.8521,5.9159,5.9639,5.9725,6.0159,6.037,6.0389,6.0389,6.0389,6.0389,6.0389,6.0389,6.0389,6.0389,6.0389,6.0389,6.0389,6.0389,6.0389,6.0389,6.0389,6.0389,6.0389,6.0389,6.0389,6.0389,6.0389,6.0389,6.0342,6.0019,5.9467,5.9234,5.8908,5.8168,5.807,5.7978,5.7978,5.7978,5.7978,5.7978,5.7978,5.7978,5.7978,5.7978,5.7978,5.7978,5.7978,5.7978,5.7978,5.7978,5.7978,5.7978,5.7978,5.7978,5.7978,5.7978,5.7978,5.7708,5.7184,5.6704,5.6276,5.5631,5.4911,5.4329,5.3966,5.3785,5.3551,5.3445,5.3485,5.3206,5.3206,5.3206,5.3206,5.3206,5.3206,5.3206,5.3206,5.3206,5.3206,5.3206,5.3206,5.3206,5.3206,5.3206,5.3206,5.3206,5.3206,5.3206,5.3206,5.3206,5.361,5.4014,5.4161,5.4271,5.473,5.5757,5.6455,5.6914,5.7382,5.7749,5.7802,5.7904,5.795,5.7839,5.7932,5.7978,5.7978,5.7978,5.7978,5.7978,5.7997,5.7997,5.7978,5.7978,5.8024,5.8168,5.8605,5.9026,5.9432,5.9937,6.0342,6.0389,6.0389,6.0389,6.0389,6.0389,6.0389,6.0389,6.0389,6.0389,6.0389,6.0389,6.0389,6.0389,6.0389,6.0389,6.0389,6.0389,6.0389,6.0389,6.0389,6.0389,6.0389,6.0389,6.0207,5.9744,5.9402,5.898,5.8535,5.8186,5.7978,5.7978,5.7978,5.7978,5.7978,5.7978,5.7978,5.7978,5.7978,5.7978,5.7978,5.7978,5.7978,5.7978,5.7978,5.7978,5.7978,5.7978,5.7978,5.7978,5.7978,5.7978,5.7755,5.7333,5.6912,5.6546,5.5798,5.5052,5.4408,5.3932,5.3785,5.3668,5.3413,5.3195,5.3206,5.3206,5.3206,5.3206,5.3206,5.3206,5.3206,5.3206,5.3206,5.3206,5.3206,5.3206,5.3206,5.3206,5.3206,5.3206,5.3206,5.3206,5.3206,5.3316,5.3537,5.3995,5.4528,5.517,5.5537,5.5684,5.6308,5.6887,5.7299,5.7629,5.7802,5.7697,5.7792,5.781,5.7792,5.7886,5.7932,5.7932,5.7932,5.7932,5.7997,5.795,5.795,5.7978,5.7978,5.7978,5.8024,5.8394,5.871,5.9046,5.9673,6.0207,6.0361,6.0389,6.0389,6.0389,6.0389,6.0389,6.0389,6.0389,6.0389,6.0389,6.0389,6.0389,6.0389,6.0389,6.0389,6.0389,6.0389,6.0389,6.0389,6.0389,6.0389,6.0389,6.0389,6.0313,6.0038,5.9581,5.9059,5.8665,5.8231,5.807,5.7978,5.8024,5.7978,5.7978,5.7978,5.7978,5.7978,5.7978,5.7978,5.7978,5.7978,5.7978,5.7978,5.7978,5.7978,5.7978,5.7978,5.7978,5.7978,5.7978,5.7978,5.7708,5.7498,5.7234,5.6791,5.5968,5.5384,5.4991,5.4603,5.4226,5.3883,5.3713,5.3498,5.3164,5.3206,5.3206,5.3206,5.3206,5.3206,5.3206,5.3206,5.3206,5.3206,5.3206,5.3206,5.3206,5.3206,5.3206,5.3206,5.3206,5.3225,5.3261,5.3592,5.4032,5.4564,5.5115,5.6014,5.6667,5.6905,5.7015,5.7317,5.7591,5.7745,5.7697,5.7649,5.7649,5.7745,5.7792,5.7792,5.7839,5.7932,5.7839,5.7792,5.7904,5.7839,5.7886,5.795,5.7997,5.7997,5.8024,5.8238,5.8521,5.8646,5.927,5.9791,6.0207,6.0389,6.0389,6.0389,6.0389,6.0389,6.0389,6.0389,6.0389,6.0389,6.0389,6.0389,6.0389,6.0389,6.0389,6.0389,6.0389,6.0389,6.0389,6.0389,6.0389,6.0389,6.0389,6.0389,6.0266,5.9739,5.9248,5.891,5.8521,5.8257,5.8142,5.8115,5.8024,5.7978,5.7978,5.7978,5.7978,5.7978,5.7978,5.7978,5.7978,5.7978,5.7978,5.7978,5.7978,5.7978,5.7978,5.7978,5.7978,5.7978,5.7978,5.7997,5.7774,5.7401,5.7029,5.6401,5.595,5.5601,5.5224,5.4747,5.4408,5.4124,5.3963,5.3103,5.3206,5.3206,5.3206,5.3206,5.3206,5.3206,5.3206,5.3206,5.3206,5.3206,5.3206,5.3206,5.3206,5.3206,5.3206,5.3206,5.3298,5.361,5.4069,5.4528,5.5078,5.6161,5.6638,5.7143,5.7528,5.7601,5.758,5.7594,5.7649,5.7619,5.7601,5.7649,5.7745,5.7745,5.7792,5.7792,5.7792,5.7679,5.7631,5.7697,5.7745,5.7792,5.7857,5.7904,5.7904,5.7886,5.8006,5.8238,5.8545,5.8732,5.9178,5.9791,6.0178,6.0361,6.0389,6.0389,6.0389,6.0389,6.0389,6.0389,6.0389,6.0389,6.0389,6.0389,6.0389,6.0389,6.0389,6.0389,6.0389,6.0389,6.0389,6.0389,6.0389,6.0389,6.0389,6.0284,6.0017,5.9659,5.948,5.9008,5.8449,5.8349,5.817,5.8024,5.7978,5.7978,5.7978,5.7978,5.7978,5.7978,5.7978,5.7978,5.7978,5.7978,5.7978,5.7978,5.7978,5.7978,5.7978,5.7978,5.7978,5.7978,5.7978,5.7792,5.7468,5.7112,5.6714,5.6366,5.6019,5.5627,5.5268,5.5059,5.4844,5.4844,5.3146,5.3206,5.3206,5.3206,5.3206,5.3206,5.3206,5.3206,5.3206,5.3206,5.3206,5.3206,5.3206,5.3206,5.3206,5.3206,5.3298,5.3702,5.4032,5.4473,5.5262,5.5941,5.6895,5.7189,5.7436,5.7653,5.7697,5.7649,5.7504,5.7504,5.7504,5.7504,5.7504,5.7553,5.7649,5.7583,5.7631,5.7649,5.7583,5.7534,5.7601,5.7697,5.7697,5.7697,5.7745,5.7792,5.7839,5.7839,5.8024,5.8257,5.8461,5.893,5.9432,5.9842,6.0207,6.0342,6.0389,6.0389,6.0389,6.0389,6.0389,6.0389,6.0389,6.0389,6.0389,6.0389,6.0389,6.0389,6.0389,6.0389,6.0389,6.0389,6.0389,6.0389,6.0389,6.0389,6.0351,6.0198,6.0103,5.9969,5.9214,5.8661,5.8489,5.8299,5.8061,5.7978,5.7978,5.7978,5.7978,5.7978,5.7978,5.7978,5.7978,5.7978,5.7978,5.7978,5.7978,5.7978,5.7978,5.7978,5.7978,5.7978,5.7978,5.7978,5.7774,5.7534,5.7401,5.7162,5.6755,5.6456,5.6148,5.5887,5.5773,5.5676,5.5618,5.3164,5.3206,5.3206,5.3206,5.3206,5.3206,5.3206,5.3206,5.3206,5.3206,5.3206,5.3206,5.3206,5.3206,5.3225,5.328,5.3463,5.4161,5.4546,5.5225,5.6088,5.6804,5.7226,5.7529,5.7821,5.7594,5.7583,5.7504,5.7388,5.7356,5.7388,5.7406,5.7289,5.7338,5.7534,5.7486,5.7486,5.7486,5.7437,5.7437,5.7553,5.7553,5.7553,5.7601,5.7619,5.7697,5.7745,5.7839,5.7904,5.8115,5.8344,5.871,5.9159,5.9502,5.9906,6.0313,6.0389,6.0389,6.0389,6.0389,6.0389,6.0389,6.0389,6.0389,6.0389,6.0389,6.0389,6.0389,6.0389,6.0389,6.0389,6.0389,6.0389,6.0389,6.0389,6.0389,6.0389,6.0332,6.0332,5.9969,5.9251,5.8924,5.8757,5.846,5.8231,5.7978,5.7978,5.7978,5.7978,5.7978,5.7978,5.7978,5.7978,5.7978,5.7978,5.7978,5.7978,5.7978,5.7978,5.7978,5.7978,5.7978,5.7978,5.7932,5.7792,5.7601,5.7583,5.7486,5.7134,5.6793,5.6635,5.6527,5.6438,5.6294,5.6239,5.3103,5.3206,5.3206,5.3206,5.3206,5.3206,5.3206,5.3206,5.3206,5.3206,5.3206,5.3206,5.3206,5.3225,5.328,5.3647,5.4106,5.4564,5.5262,5.6161,5.6712,5.7244,5.774,5.7886,5.7839,5.7631,5.7583,5.7437,5.7289,5.7257,5.7307,5.7356,5.7388,5.7437,5.7553,5.7437,5.7388,5.7388,5.7289,5.7289,5.7388,5.7437,5.7437,5.7504,5.7601,5.7697,5.7697,5.7839,5.795,5.7978,5.8024,5.8437,5.9065,5.9233,5.9692,6.0129,6.0389,6.0389,6.0389,6.0389,6.0389,6.0389,6.0389,6.0389,6.0389,6.0389,6.0389,6.0389,6.0389,6.0389,6.0389,6.0389,6.0389,6.0389,6.0389,6.0389,6.0389,6.0389,6.0389,6.0313,5.9758,5.9401,5.915,5.8777,5.8455,5.8168,5.7978,5.7978,5.7978,5.7978,5.7978,5.7978,5.7978,5.7978,5.7978,5.7978,5.7978,5.7978,5.7978,5.7978,5.7978,5.7978,5.7932,5.7886,5.7745,5.7697,5.7697,5.7553,5.7388,5.7156,5.6935,5.6969,5.7087,5.6966,5.674,5.3146,5.3206,5.3206,5.3206,5.3206,5.3206,5.3206,5.3206,5.3206,5.3206,5.3206,5.3206,5.3206,5.3298,5.3628,5.4051,5.4546,5.5299,5.6051,5.6822,5.7244,5.7629,5.7886,5.7886,5.7745,5.7649,5.7553,5.7437,5.7356,5.7307,5.7338,5.7406,5.7406,5.7388,5.7504,5.7338,5.7289,5.7239,5.7239,5.7239,5.7239,5.7307,5.7356,5.7406,5.7553,5.7583,5.7745,5.7792,5.795,5.7978,5.7978,5.8375,5.9001,5.9253,5.9537,6.0285,6.0389,6.0389,6.0389,6.0389,6.0389,6.0389,6.0389,6.0389,6.0389,6.0389,6.0389,6.0389,6.0389,6.0389,6.0389,6.0389,6.0389,6.0389,6.0389,6.0389,6.0389,6.0389,6.0389,6.0313,6.0226,5.9772,5.9309,5.8924,5.8479,5.8142,5.7978,5.7978,5.7978,5.7978,5.7978,5.7978,5.7978,5.7978,5.7978,5.7978,5.7978,5.7978,5.7978,5.7978,5.7978,5.7978,5.7932,5.7839,5.7745,5.7745,5.7745,5.7553,5.7289,5.7239,5.7257,5.7206,5.7188,5.7188,5.7018,5.3206,5.3206,5.3206,5.3206,5.3206,5.3206,5.3206,5.3206,5.3206,5.3206,5.3206,5.3225,5.3298,5.3573,5.4124,5.4601,5.5152,5.6271,5.684,5.7281,5.7648,5.7941,5.795,5.7857,5.7697,5.7534,5.7486,5.7437,5.7406,5.7455,5.7437,5.7406,5.7406,5.7406,5.7356,5.7239,5.7188,5.7188,5.7188,5.7188,5.7188,5.7188,5.7289,5.7388,5.7455,5.7534,5.7679,5.7839,5.7932,5.7886,5.8123,5.8548,5.9092,5.9384,5.9696,6.0256,6.0389,6.0389,6.0389,6.0389,6.0389,6.0389,6.0389,6.0389,6.0389,6.0389,6.0389,6.0389,6.0389,6.0389,6.0389,6.0389,6.0389,6.0389,6.0389,6.0389,6.0389,6.0389,6.0389,6.0361,6.0207,5.9874,5.9434,5.9026,5.8586,5.8142,5.7978,5.7978,5.7978,5.7978,5.7978,5.7978,5.7978,5.7978,5.7978,5.7978,5.7978,5.7978,5.7978,5.7978,5.7978,5.7978,5.7932,5.7839,5.7726,5.7601,5.7553,5.7338,5.7188,5.7239,5.7307,5.7239,5.7188,5.7188,5.7188,5.3206,5.3206,5.3206,5.3206,5.3206,5.3206,5.3206,5.3206,5.3206,5.3206,5.3248,5.328,5.3768,5.4265,5.4712,5.5423,5.6565,5.6748,5.7226,5.7685,5.7978,5.7932,5.7839,5.7792,5.7649,5.7504,5.7486,5.7437,5.7455,5.7553,5.7486,5.7388,5.7388,5.7307,5.7257,5.7188,5.7188,5.7188,5.7188,5.7188,5.7188,5.7257,5.7289,5.7406,5.7504,5.7583,5.7631,5.7839,5.7932,5.7886,5.8168,5.8619,5.9094,5.944,5.9824,6.0256,6.0389,6.0389,6.0389,6.0389,6.0389,6.0389,6.0389,6.0389,6.0389,6.0389,6.0389,6.0389,6.0389,6.0389,6.0389,6.0389,6.0389,6.0389,6.0389,6.0389,6.0389,6.0389,6.0389,6.0389,6.0207,5.9925,5.954,5.9121,5.8605,5.8142,5.7978,5.7978,5.7978,5.7978,5.7978,5.7978,5.7978,5.7978,5.7978,5.7978,5.7978,5.7978,5.7978,5.7978,5.7978,5.7932,5.7932,5.7792,5.7631,5.7504,5.7375,5.7325,5.7275,5.7289,5.7289,5.7239,5.7188,5.7188,5.7188,5.3206,5.3206,5.3206,5.3206,5.3206,5.3206,5.3206,5.3206,5.3206,5.3336,5.3579,5.41,5.457,5.517,5.5992,5.652,5.718,5.7445,5.773,5.7868,5.7978,5.7886,5.7839,5.7697,5.7601,5.7437,5.7437,5.7534,5.7534,5.7601,5.7601,5.7553,5.7437,5.7338,5.7239,5.7188,5.7188,5.7188,5.7188,5.7188,5.7188,5.7307,5.7406,5.7504,5.7649,5.7745,5.7857,5.795,5.795,5.8006,5.8186,5.8633,5.9134,5.9403,5.9828,6.0304,6.0389,6.0389,6.0389,6.0389,6.0389,6.0389,6.0389,6.0389,6.0389,6.0389,6.0389,6.0389,6.0389,6.0389,6.0389,6.0389,6.0389,6.0389,6.0389,6.0389,6.0389,6.0389,6.0389,6.0389,6.0275,6.0064,5.9631,5.9196,5.8684,5.8186,5.807,5.7978,5.7978,5.7978,5.7978,5.7978,5.7978,5.7978,5.7978,5.7978,5.7978,5.7978,5.7978,5.7978,5.7978,5.7978,5.7932,5.7792,5.7631,5.7504,5.7375,5.7361,5.7293,5.7307,5.7289,5.7188,5.7188,5.7188,5.7188,5.329,5.3318,5.3359,5.3272,5.3206,5.3206,5.329,5.3336,5.3359,5.373,5.4298,5.5119,5.5827,5.6423,5.708,5.7627,5.7802,5.8012,5.805,5.8024,5.7932,5.7839,5.7745,5.7601,5.7437,5.7388,5.7388,5.7455,5.7583,5.7649,5.7649,5.7553,5.7455,5.7289,5.7239,5.7188,5.7188,5.7188,5.7188,5.7188,5.7188,5.7289,5.7437,5.7553,5.7679,5.7792,5.7904,5.795,5.8051,5.8168,5.8406,5.8768,5.9188,5.9534,5.9862,6.0186,6.0389,6.0389,6.0389,6.0389,6.0389,6.0389,6.0389,6.0389,6.0389,6.0389,6.0389,6.0389,6.0389,6.0389,6.0389,6.0389,6.0389,6.0389,6.0389,6.0389,6.0389,6.0389,6.0389,6.0389,6.0245,6.0156,5.9647,5.9197,5.8665,5.8213,5.807,5.7997,5.7978,5.7978,5.7978,5.7978,5.7978,5.7978,5.7978,5.7978,5.7978,5.7978,5.7978,5.7978,5.7978,5.7978,5.7886,5.7697,5.7601,5.7504,5.7424,5.7293,5.7275,5.7307,5.7239,5.7188,5.7239,5.7239,5.7257,5.34,5.37,5.37,5.3579,5.3345,5.3206,5.3437,5.383,5.3924,5.4503,5.5516,5.6378,5.7164,5.7745,5.8067,5.8353,5.8474,5.8553,5.8351,5.8142,5.7932,5.7726,5.7583,5.7486,5.7388,5.7307,5.7356,5.7455,5.7583,5.7534,5.7534,5.7486,5.7338,5.7239,5.7188,5.7188,5.7188,5.7188,5.7188,5.7188,5.7239,5.7289,5.7437,5.7583,5.7679,5.7792,5.7904,5.807,5.8213,5.8332,5.8791,5.9166,5.9613,5.9952,6.0213,6.0361,6.0389,6.0389,6.0389,6.0389,6.0389,6.0389,6.0389,6.0389,6.0389,6.0389,6.0389,6.0389,6.0389,6.0389,6.0389,6.0389,6.0389,6.0389,6.0389,6.0389,6.0389,6.0389,6.0389,6.0389,6.0361,6.0245,5.9677,5.9178,5.8609,5.822,5.807,5.7997,5.7978,5.7978,5.7978,5.7978,5.7978,5.7978,5.7978,5.7978,5.7978,5.7978,5.7978,5.7978,5.7978,5.795,5.7839,5.7649,5.7601,5.7553,5.7406,5.7206,5.7275,5.7343,5.7257,5.7239,5.7289,5.7289,5.7257,5.3584,5.3775,5.4558,5.4837,5.4652,5.4131,5.4296,5.4947,5.5488,5.6131,5.6776,5.7635,5.8237,5.8698,5.9043,5.9201,5.9231,5.8691,5.8437,5.8369,5.8033,5.7726,5.7583,5.7486,5.7406,5.7356,5.7406,5.7504,5.7583,5.7565,5.7486,5.7437,5.7289,5.7188,5.7188,5.7188,5.7188,5.7188,5.7188,5.7239,5.7338,5.7406,5.7553,5.7679,5.7774,5.7867,5.7978,5.8231,5.8461,5.865,5.9084,5.9403,5.9756,6.005,6.0134,6.0313,6.0389,6.0389,6.0389,6.0389,6.0389,6.0389,6.0389,6.0389,6.0389,6.0389,6.0389,6.0389,6.0389,6.0389,6.0389,6.0389,6.0389,6.0389,6.0389,6.0389,6.0389,6.0389,6.0389,6.0389,6.0361,6.0207,5.9809,5.948,5.8934,5.8549,5.8369,5.8133,5.8042,5.7978,5.7978,5.7978,5.7978,5.7978,5.7978,5.7978,5.7978,5.7978,5.7978,5.7978,5.7932,5.795,5.7857,5.7715,5.7697,5.7649,5.7437,5.7289,5.7361,5.7379,5.7275,5.7257,5.7289,5.7239,5.7239,5.4408,5.4664,5.5676,5.6215,5.6172,5.5503,5.5529,5.6229,5.7135,5.7725,5.8068,5.8821,5.9329,5.9588,5.9824,5.9874,5.9758,5.9306,5.871,5.8628,5.822,5.7923,5.7726,5.7553,5.7504,5.7486,5.7613,5.769,5.7631,5.7737,5.7642,5.7437,5.7257,5.7188,5.7188,5.7188,5.7188,5.7188,5.7188,5.7257,5.7338,5.7486,5.7601,5.7792,5.8006,5.8168,5.8344,5.8563,5.8852,5.8989,5.9289,5.9609,5.9843,6.005,6.0134,6.0342,6.0389,6.0389,6.0389,6.0389,6.0389,6.0389,6.0389,6.0389,6.0389,6.0389,6.0389,6.0389,6.0389,6.0389,6.0389,6.0389,6.0389,6.0389,6.0389,6.0389,6.0389,6.0389,6.0389,6.0389,6.0389,6.0159,6.0049,5.9709,5.9329,5.9028,5.8728,5.8486,5.8207,5.8088,5.8024,5.7978,5.7978,5.7978,5.7978,5.7978,5.7978,5.7978,5.7978,5.7978,5.7932,5.795,5.7857,5.7763,5.7649,5.7534,5.7449,5.7351,5.7375,5.7343,5.7325,5.7307,5.7239,5.7239,5.7188,5.5772,5.6228,5.7017,5.7596,5.7749,5.7219,5.7121,5.7484,5.8587,5.912,5.9196,5.9941,6.0189,6.0293,6.0389,6.0207,5.9906,5.9758,5.9306,5.8812,5.8484,5.8157,5.7895,5.7697,5.766,5.7784,5.7905,5.7932,5.7708,5.7766,5.7719,5.7468,5.7257,5.7188,5.7188,5.7188,5.7188,5.7188,5.7239,5.7307,5.7437,5.7486,5.7631,5.7867,5.8168,5.8394,5.8628,5.893,5.9306,5.9571,5.9791,6.0068,6.0256,6.0389,6.0389,6.0389,6.0389,6.0389,6.0389,6.0389,6.0389,6.0389,6.0389,6.0389,6.0389,6.0389,6.0389,6.0389,6.0389,6.0389,6.0389,6.0389,6.0389,6.0389,6.0389,6.0389,6.0389,6.0389,6.0389,6.0389,6.0389,6.0313,6.0285,6.0034,6.0121,5.9968,5.9741,5.9619,5.9218,5.8286,5.8179,5.7978,5.7978,5.7978,5.7997,5.8052,5.7978,5.7978,5.7978,5.7978,5.7932,5.7969,5.7839,5.7745,5.7553,5.7419,5.7401,5.7351,5.7289,5.7289,5.7307,5.7307,5.7289,5.7239,5.7188,5.6848,5.7055,5.812,5.8644,5.8814,5.9187,5.9082,5.8768,5.9616,6.0026,6.0045,6.0274,6.0389,6.0389,6.0389,6.0294,6.0159,5.9956,5.9725,5.9306,5.8793,5.8442,5.8113,5.7923,5.7905,5.8068,5.8227,5.8252,5.8068,5.8005,5.7624,5.7289,5.7257,5.7239,5.7188,5.7188,5.7188,5.7239,5.7289,5.7406,5.7534,5.7631,5.7774,5.8033,5.8437,5.8609,5.8812,5.9325,5.9692,5.9791,6.008,6.0313,6.0342,6.0389,6.0389,6.0389,6.0389,6.0389,6.0389,6.0389,6.0389,6.0389,6.0389,6.0389,6.0389,6.0389,6.0389,6.0389,6.0389,6.0389,6.0389,6.0389,6.0389,6.0389,6.0408,6.0465,6.0485,6.0599,6.0618,6.0809,6.079,6.0733,6.0695,6.101,6.1088,6.0974,6.0815,6.0715,6.0262,5.9334,5.8788,5.861,5.84,5.8529,5.8235,5.8198,5.807,5.7978,5.818,5.8309,5.829,5.8244,5.7949,5.7781,5.7692,5.754,5.737,5.732,5.7338,5.7239,5.7257,5.7307,5.7338,5.7239,5.7188,5.8014,5.8158,5.9159,5.9606,5.9701,6.0179,6.0083,5.9759,6.0179,6.0389,6.0389,6.0389,6.0389,6.0389,6.0389,6.0389,6.0361,6.0178,5.9956,5.9605,5.9178,5.8833,5.8466,5.8314,5.8375,5.8526,5.8713,5.8854,5.8531,5.8094,5.7671,5.7486,5.7356,5.7307,5.7289,5.7289,5.7307,5.7289,5.7406,5.7504,5.7679,5.7895,5.8105,5.8326,5.8732,5.8969,5.9122,5.9725,5.9988,6.0019,6.0342,6.0389,6.0389,6.0389,6.0389,6.0389,6.0389,6.0389,6.0389,6.0389,6.0389,6.0389,6.0389,6.0389,6.0389,6.0389,6.0389,6.0389,6.0389,6.0389,6.0389,6.0389,6.0389,6.0389,6.0465,6.057,6.0695,6.0867,6.1077,6.1353,6.1373,6.1315,6.144,6.1822,6.2099,6.1987,6.1913,6.1837,6.137,6.0559,6.0083,5.9826,5.9458,5.9208,5.8896,5.8731,5.8906,5.9016,5.9236,5.9208,5.8933,5.8849,5.8893,5.8403,5.7868,5.7717,5.7564,5.7406,5.7388,5.7397,5.7402,5.7361,5.7343,5.7257,5.7239,5.9205,5.9234,6.0064,6.0313,6.037,6.0389,6.037,6.0389,6.037,6.0389,6.0389,6.0389,6.0389,6.0389,6.0389,6.0389,6.0389,6.0313,6.0178,5.9823,5.9692,5.9342,5.9027,5.8988,5.8891,5.9008,5.9178,5.9323,5.897,5.8531,5.8094,5.7821,5.7631,5.7516,5.7437,5.7516,5.7594,5.769,5.7719,5.7859,5.7969,5.822,5.8526,5.875,5.9233,5.9706,5.9823,6.0099,6.0389,6.0389,6.0389,6.0389,6.0389,6.0389,6.0389,6.0389,6.0389,6.0389,6.0389,6.0389,6.0389,6.0389,6.0389,6.0523,6.0599,6.0446,6.0408,6.0389,6.0389,6.0637,6.0714,6.0828,6.0867,6.1096,6.1325,6.1258,6.1162,6.1134,6.0991,6.1191,6.1134,6.1134,6.1373,6.1678,6.2223,6.2527,6.2947,6.2898,6.2667,6.1939,6.117,6.0883,6.0393,6.0001,5.9869,5.9777,6.0037,6.0202,6.021,6.0059,5.9718,5.9773,5.992,5.9146,5.8251,5.7935,5.7777,5.7764,5.7892,5.8024,5.7937,5.7543,5.7384,5.7384,5.7239,6.0083,6.0083,6.0313,6.0389,6.0389,6.0389,6.0389,6.0389,6.0389,6.0389,6.0389,6.0389,6.0389,6.0389,6.0389,6.0389,6.0389,6.0389,6.0342,6.0129,5.9988,5.9758,5.9449,5.9361,5.9342,5.9537,5.9673,5.9706,5.9376,5.899,5.8572,5.8139,5.8005,5.7932,5.7708,5.7859,5.805,5.8139,5.8338,5.8381,5.84,5.8503,5.871,5.9084,5.9571,5.9823,5.9956,6.0178,6.0342,6.0389,6.0389,6.0389,6.0389,6.0389,6.0389,6.0389,6.0389,6.0389,6.0427,6.0465,6.0523,6.0485,6.0561,6.0848,6.0886,6.0599,6.0465,6.0465,6.0599,6.0943,6.1144,6.1306,6.1478,6.1841,6.2147,6.1927,6.1687,6.1325,6.101,6.0991,6.0943,6.1096,6.1354,6.1736,6.2194,6.2853,6.3599,6.3913,6.4088,6.3581,6.2098,6.16,6.1168,6.0829,6.0803,6.0768,6.0945,6.0816,6.0731,6.0597,6.0499,6.0439,6.0341,5.9475,5.872,5.8531,5.8464,5.8401,5.8546,5.871,5.8555,5.8181,5.7804,5.7713,5.7424,6.0389,6.0389,6.0389,6.0389,6.0389,6.0389,6.0389,6.0389,6.0389,6.0389,6.0389,6.0389,6.0389,6.0389,6.0389,6.0389,6.0389,6.0389,6.0389,6.0285,6.0178,5.9969,5.9791,5.9801,5.9725,5.9874,5.9969,5.9969,5.9687,5.9518,5.9122,5.8694,5.8591,5.8466,5.8227,5.8466,5.8591,5.8654,5.8989,5.9065,5.895,5.9103,5.9196,5.9537,5.9809,6.0019,6.0129,6.0313,6.0342,6.0389,6.0389,6.0389,6.0389,6.0389,6.0389,6.0389,6.0389,6.0389,6.0504,6.0714,6.0905,6.0943,6.1382,6.1956,6.2032,6.1803,6.1765,6.1784,6.1803,6.207,6.2079,6.2194,6.2261,6.249,6.2586,6.2471,6.2137,6.1755,6.1784,6.2003,6.1841,6.1621,6.1898,6.2261,6.2672,6.2701,6.3503,6.3618,6.4043,6.4438,6.3163,6.2294,6.1759,6.1937,6.2207,6.2019,6.1796,6.1563,6.1288,6.1545,6.1624,6.1147,6.0671,6.0097,5.9664,5.9499,5.9383,5.9265,5.9219,5.9383,5.9139,5.8802,5.8477,5.8097,5.7713,6.0389,6.0389,6.0389,6.0389,6.0389,6.0389,6.0389,6.0389,6.0389,6.0389,6.0389,6.0389,6.0389,6.0389,6.0389,6.0389,6.0389,6.0389,6.0389,6.0561,6.0446,6.0608,6.0624,6.0502,6.0422,6.0289,6.0303,6.0167,5.9937,5.9842,5.9673,5.9361,5.9178,5.9046,5.9046,5.9084,5.914,5.9214,5.9378,5.959,5.9725,5.9823,5.9791,5.9956,6.0178,6.0389,6.0389,6.0389,6.0389,6.0389,6.0389,6.0389,6.0523,6.058,6.0695,6.0752,6.1039,6.1019,6.1058,6.1497,6.1669,6.1936,6.2605,6.2911,6.2949,6.3054,6.3016,6.3112,6.3112,6.2949,6.2987,6.3083,6.3102,6.3178,6.3197,6.2968,6.2529,6.2041,6.2214,6.249,6.2147,6.1812,6.2041,6.2424,6.2615,6.2662,6.2777,6.2824,6.2996,6.3326,6.2947,6.2448,6.2122,6.2537,6.2996,6.2778,6.2223,6.2365,6.2132,6.2548,6.2677,6.204,6.1581,6.1202,6.0823,6.0494,6.0298,6.0163,6.0154,6.0201,5.9903,5.9618,5.9184,5.8802,5.8112,6.0389,6.0389,6.0389,6.0389,6.0389,6.0389,6.0389,6.0389,6.0389,6.0389,6.0389,6.0389,6.0389,6.0389,6.0389,6.0389,6.0408,6.0446,6.0924,6.1268,6.0924,6.1363,6.1677,6.1478,6.1325,6.1134,6.0876,6.0428,6.0578,6.0455,6.0118,5.9801,5.9711,5.9537,5.927,5.9378,5.9639,5.9706,5.9887,6.0129,6.0068,6.0099,6.0068,6.0178,6.0361,6.0389,6.0389,6.0389,6.0389,6.0389,6.0408,6.0427,6.0637,6.0962,6.1211,6.1488,6.1774,6.2013,6.2185,6.2433,6.2624,6.2701,6.3216,6.3532,6.3666,6.4011,6.4107,6.4393,6.425,6.3723,6.3675,6.3915,6.3991,6.4172,6.4267,6.3503,6.2873,6.2041,6.1545,6.1392,6.1019,6.0914,6.0952,6.1258,6.1468,6.1593,6.186,6.1975,6.2395,6.2546,6.262,6.2378,6.2107,6.2248,6.2333,6.2656,6.2443,6.2695,6.2823,6.2823,6.2805,6.2787,6.2352,6.1911,6.1655,6.138,6.1221,6.1048,6.1226,6.1236,6.081,6.0449,6.0033,5.949,5.8782]},{"header":{"parameterUnit":"m.s-1","parameterCategory":1,"la1":31.0,"la2":29.5877,"lo1":-88.7671,"lo2":-86.6584,"dx":0.0162,"dy":0.0185,"nx":115,"ny":88,"refTime":"2022-12-22T06:00:00:Z","depth":0,"parameterNumber":3,"parameterNumberName":"V-component_of_WINDS"},"data":[0.0,0.0,0.0,0.0,0.0,0.0,0.0,0.0,0.0,0.0,0.0,0.0,0.0,0.0,0.0,0.0,0.0,0.0,0.0,0.0,0.0,0.0,0.0,0.0,0.0,0.0,0.0,0.0,0.0,0.0,0.0,0.0,0.0,0.0,0.0,0.0,0.0,0.0,0.0,0.0,0.0,0.0,0.0,0.0,0.0,0.0,0.0,0.0,0.0,0.0,0.0,0.0,0.0,0.0,0.0,0.0,0.0,0.0,0.0,0.0,0.0,0.0,0.0,0.0,0.0,0.0,0.0,0.0,0.0,0.0,0.0,0.0,0.0,0.0,0.0,0.0,0.0,0.0,0.0,0.0,0.0,0.0,0.0,0.0,0.0,0.0,0.0,0.0,0.0,0.0,0.0,0.0,0.0,0.0,0.0,0.0,0.0,0.0,0.0,0.0,0.0,0.0,0.0,0.0,0.0,0.0,0.0,0.0,0.0,0.0,0.0,0.0,0.0,0.0,0.0,0.0,0.0,0.0,0.0,0.0,0.0,0.0,0.0,0.0,0.0,0.0,0.0,0.0,0.0,0.0,0.0,0.0,0.0,0.0,0.0,0.0,0.0,0.0,0.0,0.0,0.0,0.0,0.0,0.0,0.0,0.0,0.0,0.0,0.0,0.0,0.0,0.0,0.0,0.0,0.0,0.0,0.0,0.0,0.0,0.0,0.0,0.0,0.0,0.0,0.0,0.0,0.0,0.0,0.0,0.0,0.0,0.0,0.0,0.0,0.0,0.0,0.0,0.0,0.0,0.0,0.0,0.0,0.0,0.0,0.0,0.0,0.0,0.0,0.0,0.0,0.0,0.0,0.0,0.0,0.0,0.0,0.0,0.0,0.0,0.0,0.0,0.0,0.0,0.0,0.0,0.0,0.0,0.0,0.0,0.0,0.0,0.0,0.0,0.0,0.0,0.0,0.0,0.0,0.0,0.0,0.0,0.0,0.0,0.0,0.0,0.0,0.0,0.0,0.0,0.0,0.0,0.0,0.0,0.0,0.0,0.0,0.0,0.0,0.0,0.0,0.0,0.0,0.0,0.0,0.0,0.0,0.0,0.0,0.0,0.0,0.0,0.0,0.0,0.0,0.0,0.0,0.0,0.0,0.0,0.0,0.0,0.0,0.0,0.0,0.0,0.0,0.0,0.0,0.0,0.0,0.0,0.0,0.0,0.0,0.0,0.0,0.0,0.0,0.0,0.0,0.0,0.0,0.0,0.0,0.0,0.0,0.0,0.0,0.0,0.0,0.0,0.0,0.0,0.0,0.0,0.0,0.0,0.0,0.0,0.0,0.0,0.0,0.0,0.0,0.0,0.0,0.0,0.0,0.0,0.0,0.0,0.0,0.0,0.0,0.0,0.0,0.0,0.0,0.0,0.0,0.0,0.0,0.0,0.0,0.0,0.0,0.0,0.0,0.0,0.0,0.0,0.0,0.0,0.0,0.0,0.0,0.0,0.0,0.0,0.0,0.0,0.0,0.0,0.0,0.0,0.0,0.0,0.0,0.0,0.0,0.0,0.0,0.0,0.0,0.0,0.0,0.0,0.0,0.0,0.0,0.0,0.0,0.0,0.0,0.0,0.0,0.0,0.0,0.0,0.0,0.0,0.0,0.0,0.0,0.0,0.0,0.0,0.0,0.0,0.0,0.0,0.0,0.0,0.0,0.0,0.0,0.0,0.0,0.0,0.0,0.0,0.0,0.0,0.0,0.0,0.0,0.0,0.0,0.0,0.0,0.0,0.0,0.0,0.0,0.0,0.0,0.0,0.0,0.0,0.0,0.0,0.0,0.0,0.0,0.0,0.0,0.0,0.0,0.0,0.0,0.0,0.0,0.0,0.0,0.0,0.0,0.0,0.0,0.0,0.0,0.0,0.0,0.0,0.0,0.0,0.0,0.0,0.0,0.0,0.0,0.0,0.0,0.0,0.0,0.0,0.0,0.0,0.0,0.0,0.0,0.0,0.0,0.0,0.0,0.0,0.0,0.0,0.0,0.0,0.0,0.0,0.0,0.0,0.0,0.0,0.0,0.0,0.0,0.0,0.0,0.0,0.0,0.0,0.0,0.0,0.0,0.0,0.0,0.0,0.0,0.0,0.0,0.0,0.0,0.0,0.0,0.0,0.0,0.0,0.0,0.0,0.0,0.0,0.0,0.0,0.0,0.0,0.0,0.0,0.0,0.0,0.0,0.0,0.0,0.0,0.0,0.0,0.0,0.0,0.0,0.0,0.0,0.0,0.0,0.0,0.0,0.0,0.0,0.0,0.0,0.0,0.0,0.0,0.0,0.0,0.0,0.0,0.0,0.0,0.0,0.0,0.0,0.0,0.0,0.0,0.0,0.0,0.0,0.0,0.0,0.0,0.0,0.0,0.0,0.0,0.0,0.0,0.0,0.0,0.0,0.0,0.0,0.0,0.0,0.0,0.0,0.0,0.0,0.0,0.0,0.0,0.0,0.0,0.0,0.0,0.0,0.0,0.0,0.0,0.0,0.0,0.0,0.0,0.0,0.0,0.0,0.0,0.0,0.0,0.0,0.0,0.0,0.0,0.0,0.0,0.0,0.0,0.0,0.0,0.0,0.0,0.0,0.0,0.0,0.0,0.0,0.0,0.0,0.0,0.0,0.0,0.0,0.0,0.0,0.0,0.0,0.0,0.0,0.0,0.0,0.0,0.0,0.0,0.0,0.0,0.0,0.0,0.0,0.0,0.0,0.0,0.0,0.0,0.0,0.0,0.0,0.0,0.0,0.0,0.0,0.0,0.0,0.0,0.0,0.0,0.0,0.0,0.0,0.0,0.0,0.0,0.0,0.0,0.0,0.0,0.0,0.0,0.0,0.0,0.0,0.0,0.0,0.0,0.0,0.0,0.0,0.0,0.0,0.0,0.0,0.0,0.0,0.0,0.0,0.0,0.0,0.0,0.0,0.0,0.0,0.0,0.0,0.0,0.0,0.0,0.0,0.0,0.0,0.0,0.0,0.0,0.0,0.0,0.0,0.0,0.0,0.0,0.0,0.0,0.0,0.0,0.0,0.0,0.0,0.0,0.0,0.0,0.0,0.0,0.0,0.0,0.0,0.0,0.0,0.0,0.0,0.0,0.0,0.0,0.0,0.0,0.0,0.0,0.0,0.0,0.0,0.0,0.0,0.0,0.0,0.0,0.0,0.0,0.0,0.0,0.0,0.0,0.0,0.0,0.0,0.0,0.0,0.0,0.0,0.0,0.0,0.0,0.0,0.0,0.0,0.0,0.0,0.0,0.0,0.0,0.0,0.0,0.0,0.0,0.0,0.0,0.0,0.0,0.0,0.0,0.0,0.0,0.0,0.0,0.0,0.0,0.0,0.0,0.0,0.0,0.0,0.0,0.0,0.0,0.0,0.0,0.0,0.0,0.0,0.0,0.0,0.0,0.0,0.0,0.0,0.0,0.0,0.0,0.0,0.0,0.0,0.0,0.0,0.0,0.0,0.0,0.0,0.0,0.0,0.0,0.0,0.0,0.0,0.0,0.0,0.0,0.0,0.0,0.0,0.0,0.0,0.0,0.0,0.0,0.0,0.0,0.0,0.0,0.0,0.0,0.0,0.0,0.0,0.0,0.0,0.0,0.0,0.0,0.0,0.0,0.0,0.0,0.0,0.0,0.0,0.0,0.0,0.0,0.0,0.0,0.0,0.0,0.0,0.0,0.0,0.0,0.0,0.0,0.0,0.0,0.0,0.0,0.0,0.0,0.0,0.0,0.0,0.0,0.0,0.0,0.0,0.0,0.0,0.0,0.0,0.0,0.0,0.0,0.0,0.0,0.0,0.0,0.0,0.0,0.0,0.0,0.0,0.0,0.0,0.0,0.0,0.0,0.0,0.0,0.0,0.0,0.0,0.0,0.0,0.0,0.0,0.0,0.0,0.0,0.0,0.0,0.0,0.0,0.0,0.0,0.0,0.0,0.0,0.0,0.0,0.0,0.0,0.0,0.0,0.0,0.0,0.0,0.0,0.0,0.0,0.0,0.0,0.0,0.0,0.0,0.0,0.0,0.0,0.0,0.0,0.0,0.0,0.0,0.0,0.0,0.0,0.0,0.0,0.0,0.0,0.0,0.0,0.0,0.0,0.0,0.0,0.0,0.0,0.0,0.0,0.0,0.0,0.0,0.0,0.0,0.0,0.0,0.0,0.0,0.0,0.0,0.0,0.0,0.0,0.0,0.0,0.0,0.0,0.0,0.0,0.0,0.0,0.3141,0.0,0.0,0.0,-0.0345,0.0,0.0,0.0,0.0,0.0,0.0,0.0,0.0,0.0,0.0,0.0,0.0,0.0,0.0,0.0,0.0,0.0,0.0,0.0,0.0,0.0,0.0,0.0,0.0,0.0,0.0,0.0,0.0,0.0,0.0,0.0,0.0,0.0,0.0,0.0,0.0,0.0,0.0,0.0,0.0,0.0,0.0,0.0,0.0,0.0,0.0,0.0,0.0,0.0,0.0,0.0,0.0,0.0,0.0,0.0,0.0,0.0,0.0,0.0,0.0,0.0,0.0,0.0,0.0,0.0,0.0,0.0,0.0,0.0,0.0,0.0,0.0,0.0,0.0,0.0,0.0,0.0,0.0,0.0,0.0,0.0,0.0,0.0,0.0,0.0,0.0,0.0,0.0,0.0,0.0,0.0,0.0,0.0,0.0,0.0,0.0,0.0,0.0,0.0,0.0,0.0,0.0,0.0,0.0,0.0,0.0,0.0,0.0,0.0,0.0,0.2925,0.2613,0.1869,0.1141,0.0379,0.0,0.0,0.0,0.0,0.0,0.0,0.0,0.0,0.0,0.0,0.0,0.0,0.0,0.0,0.0,0.0,0.0,0.0,0.0,0.0,0.0,0.0,0.0,0.0,0.0,0.0,0.0,0.0,0.0,0.0,0.0,0.0,0.0,0.0,0.0,0.0,0.0,0.0,0.0,0.0,0.0,0.0,0.0,0.0,0.0,0.0,0.0,0.0,0.0,0.0,0.0,0.0,0.0,0.0,0.0,0.0,0.0,0.0,0.0,0.0,0.0,0.0,0.0,0.0,0.0,0.0,0.0,0.0,0.0,0.0,0.0,0.0,0.0,0.0,0.0,0.0,0.0,0.0,0.0,0.0,0.0,0.0,0.0,0.0,0.0,0.0,0.0,0.0,0.0,0.0,0.0,0.0,0.0,0.0,0.0,0.0,0.0,0.0,0.0,0.0,0.0,0.0,0.0,0.0,0.0,0.0,0.0,0.0,0.0,0.0,0.0,0.0,0.1797,0.1117,0.0421,0.0,0.0,0.0,0.0,0.0,0.0,0.0,0.0,0.0,0.0,0.0,0.0,0.0,0.0,0.0,0.0,0.0,0.0,0.0,0.0,0.0,0.0,0.0,0.0,0.0,0.0,0.0,0.0,0.0,0.0,0.0,0.0,0.0,0.0,0.0,0.0,0.0,0.0,0.0,0.0,0.0,0.0,0.0,0.0,0.0,0.0,0.0,0.0,0.0,0.0,0.0,0.0,0.0,0.0,0.0,0.0,0.0,0.0,0.0,0.0,0.0,0.0,0.0,0.0,0.0,0.0,0.0,0.0,0.0,0.0,0.0,0.0,0.0,0.0,0.0,0.0,0.0,0.0,0.0,0.0,0.0,0.0,0.0,0.0,0.0,0.0,0.0,0.0,0.0,0.0,0.0,0.0,0.0,0.0,0.0,0.0,0.0,0.0,0.0,0.0,0.0,0.0,0.0,0.0,0.0,0.0,0.0,0.0,0.0,0.0,0.3125,0.2901,0.1748,0.0,-0.1459,0.0,0.0,0.0,0.0,0.0,0.0,0.0,0.0,0.0,0.0,0.0,0.0,0.0,0.0,0.0,0.0,0.0,0.0,0.0,0.0,0.0,0.0,0.0,0.0,0.0,0.0,0.0,0.0,0.0,0.0,0.0,0.0,0.0,0.0,0.0,0.0,0.0,0.0,0.0,0.0,0.0,0.0,0.0,0.0,0.0,0.0,0.0,0.0,0.0,0.0,0.0,0.0,0.0,0.0,0.0,0.0,0.0,0.0,0.0,0.0,0.0,0.0,0.0,0.0,0.0,0.0,0.0,0.0,0.0,0.0,0.0,0.0,0.0,0.0,0.0,0.0,0.0,0.0,0.0,0.0,0.0,0.0,0.0,0.0,0.0,0.0,0.0,0.0,0.0,0.0,0.0,0.0,0.0,0.0,0.0,0.0,0.0,0.0,0.0,0.0,0.0,0.0,0.0,0.0,0.0,0.0,0.0,0.0,0.0,0.0,0.3094,0.2628,0.122,-0.0,0.0,0.0,0.0,0.0,0.0,0.0,0.0,0.0,0.0,0.0,0.0,0.0,0.0,0.0,0.0,0.0,0.0,0.0,0.0,0.0,0.0,0.0,0.0,0.0,0.0,0.0,0.0,0.0,0.0,0.0,0.0,0.0,0.0,0.0,0.0,0.0,0.0,0.0,0.0,0.0,0.0,0.0,0.0,0.0,0.0,0.0,0.0,0.0,0.0,0.0,0.0,0.0,0.0,0.0,0.0,0.0,0.0,0.0,0.0,0.0,0.0,0.0,0.0,0.0,0.0,0.0,0.0,0.0,0.0,0.0,0.0,0.0,0.0,0.0,0.0,0.0,0.0,0.0,0.0,0.0,0.0,0.0,0.0,0.0,0.0,0.0,0.0,0.0,0.0,0.0,0.0,0.0,0.0,0.0,0.0,0.0,0.0,0.0,0.0,0.0,0.0,0.0,0.0,0.0,0.0,0.0,0.0,0.0,0.0,0.0,0.3701,0.2975,0.1917,0.0566,-0.0313,-0.0755,0.0,0.0,0.0,0.0,0.0,0.0,0.0,0.0,0.0,0.0,0.0,0.0,0.0,0.0,0.0,0.0,0.0,0.0,0.0,0.0,0.0,0.0,0.0,0.0,0.0,0.0,0.0,0.0,0.0,0.0,0.0,0.0,0.0,0.0,0.0,0.0,0.0,0.0,0.0,0.0,0.0,0.0,0.0,0.0,0.0,0.0,0.0,0.0,0.0,0.0,0.0,0.0,0.0,0.0,0.0,0.0,0.0,0.0,0.0,0.0,0.0,0.0,0.0,0.0,0.0,0.0,0.0,0.0,0.0,0.0,0.0,0.0,0.0,0.0,0.0,0.0,0.0,0.0,0.0,0.0,0.0,0.0,0.0,0.0,0.0,0.0,0.0,0.0,0.0,0.0,0.0,0.0,0.0,0.0,0.0,0.0,0.0,0.0,0.0,0.0,0.0,0.0,0.0,0.0,0.0,0.0,0.0,0.0,0.4087,0.3891,0.2792,0.0832,-0.0,-0.081,0.0,0.0,0.0,0.0,0.0,0.0,0.0,0.0,0.0,0.0,0.0,0.0,0.0,0.0,0.0,0.0,0.0,0.0,0.0,0.0,0.0,0.0,0.0,0.0,0.0,0.0,0.0,0.0,0.0,0.0,0.0,0.0,0.0,0.0,0.0,0.0,0.0,0.0,0.0,0.0,0.0,0.0,0.0,0.0,0.0,0.0,0.0,0.0,0.0,0.0,0.0,0.0,0.0,0.0,0.0,0.0,0.0,0.0,0.0,0.0,0.0,0.0,0.0,0.0,0.0,0.0,0.0,0.0,0.0,0.0,0.0,0.0,0.0,0.0,0.0,0.0,0.0,0.0,0.0,0.0,0.0,0.0,0.0,0.0,0.0,0.0,0.0,0.0,0.0,0.0,0.0,0.0,0.0,0.0,0.0,0.0,0.0,0.0,0.0,0.0,0.0,0.0,0.0,0.0,0.0,0.0,0.0,0.0,0.0,0.4168,0.3834,0.2899,0.1323,-0.0,-0.0896,0.0,0.0,0.0,0.0,0.0,0.0,0.0,0.0,0.0,0.0,0.0,0.0,0.0,0.0,0.0,0.0,0.0,0.0,0.0,0.0,0.0,0.0,0.0,0.0,0.0,0.0,0.0,0.0,0.0,0.0,0.0,0.0,0.0,0.0,0.0,0.0,0.0,0.0,0.0,0.0,0.0,0.0,0.0,0.0,0.0,0.0,0.0,0.0,0.0,0.0,0.0,0.0,0.0,0.0,0.0,0.0,0.0,0.0,0.0,0.0,0.0,0.0,0.0,0.0,0.0,0.0,0.0,0.0,0.0,0.0,0.0,0.0,0.0,0.0,0.0,0.0,0.0,0.0,0.0,0.0,0.0,0.0,0.0,0.0,0.0,0.0,0.0,0.0,0.0,0.0,0.0,0.0,0.0,0.0,0.0,0.0,0.0,0.0,0.0,0.0,0.0,0.0,0.0,0.0,0.0,0.0,0.0,0.0,0.0,0.3918,0.3482,0.2675,0.1466,0.0288,-0.0573,0.0,0.0,0.0,0.0,0.0,0.0,0.0,0.0,0.0,0.0,0.0,0.0,0.0,0.0,0.0,0.0,0.0,0.0,0.0,0.0,0.0,0.0,0.0,0.0,0.0,0.0,0.0,0.0,0.0,0.0,0.0,0.0,0.0,0.0,0.0,0.0,0.0,0.0,0.0,0.0,0.0,0.0,0.0,0.0,0.0,0.0,0.0,0.0,0.0,0.0,0.0,0.0,0.0,0.0,0.0,0.0,0.0,0.0,0.0,0.0,0.0,0.0,0.0,0.0,0.0,0.0,0.0,0.0,0.0,0.0,0.0,0.0,0.0,0.0,0.0,0.0,0.0,0.0,0.0,0.0,0.0,0.0,0.0,0.0,0.0,0.0,0.0,0.0,0.0,0.0,0.0,0.0,0.0,0.0,0.0,0.0,0.0,0.0,0.0,0.0,0.0,0.0,0.0,0.0,0.0,0.0,0.0,0.0,0.3986,0.3392,0.2905,0.2123,0.1059,0.0822,0.0231,0.0,0.0,0.0,0.0,0.0,0.0,0.0,0.0,0.0,0.0,0.0,0.0,0.0,0.0,0.0,0.0,0.0,0.0,0.0,0.0,0.0,0.0,0.0,0.0,0.0,0.0,0.0,0.0,0.0,0.0,0.0,0.0,0.0,0.0,0.0,0.0,0.0,0.0,0.0,0.0,0.0,0.0,0.0,0.0,0.0,0.0,0.0,0.0,0.0,0.0,0.0,0.0,0.0,0.0,0.0,0.0,0.0,0.0,0.0,0.0,0.0,0.0,0.0,0.0,0.0,0.0,0.0,0.0,0.0,0.0,0.0,0.0,0.0,0.0,0.0,0.0,0.0,0.0,0.0,0.0,0.0,0.0,0.0,0.0,0.0,0.0,0.0,0.0,0.0,0.0,0.0,0.0,0.0,0.0,0.0,0.0,0.0,0.0,0.0,0.0,0.0,0.0,0.0,0.0,0.0,0.0,0.0,0.0,0.0,0.347,0.2792,0.2107,0.1376,0.0843,0.0237,0.0,0.0,0.0,0.0,0.0,0.0,0.0,0.0,0.0,0.0,0.0,0.0,0.0,0.0,0.0,0.0,0.0,0.0,0.0,0.0,0.0,0.0,0.0,0.0,0.0,0.0,0.0,0.0,0.0,0.0,0.0,0.0,0.0,0.0,0.0,0.0,0.0,0.0,0.0,0.0,0.0,0.0,0.0,0.0,0.0,0.0,0.0,0.0,0.0,0.0,0.0,0.0,0.0,0.0,0.0,0.0,0.0,0.0,0.0,0.0,0.0,0.0,0.0,0.0,0.0,0.0,0.0,0.0,0.0,0.0,0.0,0.0,0.0,0.0,0.0,0.0,0.0,0.0,0.0,0.0,0.0,0.0,0.0,0.0,0.0,0.0,0.0,0.0,0.0,0.0,0.0,0.0,0.0,0.0,0.0,0.0,0.0,0.0,0.0,0.0,0.0,0.0,0.0,0.0,0.0,0.0,0.0,0.0,0.0,0.3851,0.3049,0.2179,0.1331,0.0881,0.0306,-0.0431,0.0,0.0,0.0,0.0,0.0,0.0,0.0,0.0,0.0,0.0,0.0,0.0,0.0,0.0,0.0,0.0,0.0,0.0,0.0,0.0,0.0,0.0,0.0,0.0,0.0,0.0,0.0,0.0,0.0,0.0,0.0,0.0,0.0,0.0,0.0,0.0,0.0,0.0,0.0,0.0,0.0,0.0,0.0,0.0,0.0,0.0,0.0,0.0,0.0,0.0,0.0,0.0,0.0,0.0,0.0,0.0,0.0,0.0,0.0,0.0,0.0,0.0,0.0,0.0,0.0,0.0,0.0,0.0,0.0,0.0,0.0,0.0,0.0,0.0,0.0,0.0,0.0,0.0,0.0,0.0,0.0,0.0,0.0,0.0,0.0,0.0,0.0,0.0,0.0,0.0,0.0,0.0,0.0,0.0,0.0,0.0,0.0,0.0,0.0,0.0,0.0,0.0,0.0,0.0,0.0,0.0,0.0,0.0,0.4356,0.3475,0.2462,0.1125,0.0933,0.0383,0.0,0.0,0.0,0.0,0.0,0.0,0.0,0.0,0.0,0.0,0.0,0.0,0.0,0.0,0.0,0.0,0.0,0.0,0.0,0.0,0.0,0.0,0.0,0.0,0.0,0.0,0.0,0.0,0.0,0.0,0.0,0.0,0.0,0.0,0.0,0.0,0.0,0.0,0.0,0.0,0.0,0.0,0.0,0.0,0.0,0.0,0.0,0.0,0.0,0.0,0.0,0.0,0.0,0.0,0.0,0.0,0.0,0.0,0.0,0.0,0.0,0.0,0.0,0.0,0.0,0.0,0.0,0.0,0.0,0.0,0.0,0.0,0.0,0.0,0.0,0.0,0.0,0.0,0.0,0.0,0.0,0.0,0.0,0.0,0.0,0.0,0.0,0.0,0.0,0.0,0.0,0.0,0.0,0.0,0.0,0.0,0.0,0.0,0.0,0.0,0.0,0.0,0.0,0.0,0.0,0.0,0.0,0.0,0.0,0.473,0.4235,0.354,0.2595,0.0846,-0.0134,0.0,0.0,0.0,0.0,0.0,0.0,0.0,0.0,0.0,0.0,0.0,0.0,0.0,0.0,0.0,0.0,0.0,0.0,0.0,0.0,0.0,0.0,0.0,0.0,0.0,0.0,0.0,0.0,0.0,0.0,0.0,0.0,0.0,0.0,0.0,0.0,0.0,0.0,0.0,0.0,0.0,0.0,0.0,0.0,0.0,0.0,0.0,0.0,0.0,0.0,0.0,0.0,0.0,0.0,0.0,0.0,0.0,0.0,0.0,0.0,0.0,0.0,0.0,0.0,0.0,0.0,0.0,0.0,0.0,0.0,0.0,0.0,0.0,0.0,0.0,0.0,0.0,0.0,0.0,0.0,0.0,0.0,0.0,0.0,0.0,0.0,0.0,0.0,0.0,0.0,0.0,0.0,0.0,0.0,0.0,0.0,0.0,0.0,0.0,0.0,0.0,0.0,0.0,0.0,0.0,0.0,0.0,0.0,0.6558,0.5585,0.4779,0.4168,0.377,0.1502,0.0141,0.0,0.0,0.0,0.0,0.0,0.0,0.0,0.0,0.0,0.0,0.0,0.0,0.0,0.0,0.0,0.0,0.0,0.0,0.0,0.0,0.0,0.0,0.0,0.0,0.0,0.0,0.0,0.0,0.0,0.0,0.0,0.0,0.0,0.0,0.0,0.0,0.0,0.0,0.0,0.0,0.0,0.0,0.0,0.0,0.0,0.0,0.0,0.0,0.0,0.0,0.0,0.0,0.0,0.0,0.0,0.0,0.0,0.0,0.0,0.0,0.0,0.0,0.0,0.0,0.0,0.0,0.0,0.0,0.0,0.0,0.0,0.0,0.0,0.0,0.0,0.0,0.0,0.0,0.0,0.0,0.0,0.0,0.0,0.0,0.0,0.0,0.0,0.0,0.0,0.0,0.0,0.0,0.0,0.0,0.0,0.0,0.0,0.0,0.0,0.0,0.0,0.0,0.0,0.0,0.0,0.0,0.0,0.0,0.7005,0.6568,0.5175,0.4508,0.4491,0.2315,0.0735,0.0,0.0,0.0,0.0,0.0,0.0,0.0,0.0,0.0,0.0,0.0,0.0,0.0,0.0,0.0,0.0,0.0,0.0,0.0,0.0,0.0,0.0,0.0,0.0,0.0,0.0,0.0,0.0,0.0,0.0,0.0,0.0,0.0,0.0,0.0,0.0,0.0,0.0,0.0,0.0,0.0,0.0,0.0,0.0,0.0,0.0,0.0,0.0,0.0,0.0,0.0,0.0,0.0,0.0,0.0,0.0,0.0,0.0,0.0,0.0,0.0,0.0,0.0,0.0,0.0,0.0,0.0,0.0,0.0,0.0,0.0,0.0,0.0,0.0,0.0,0.0,0.0,0.0,0.0,0.0,0.0,0.0,0.0,0.0,0.0,0.0,0.0,0.0,0.0,0.0,0.0,0.0,0.0,0.0,0.0,0.0,0.0,0.0,0.0,0.0,0.0,0.0,0.0,0.0,0.0,0.0,0.0,0.0,0.6965,0.647,0.5376,0.4662,0.4241,0.1726,0.0307,0.0,0.0,0.0,0.0,0.0,0.0,0.0,0.0,0.0,0.0,0.0,0.0,0.0,0.0,0.0,0.0,0.0,0.0,0.0,0.0,0.0,0.0,0.0,0.0,0.0,0.0,0.0,0.0,0.0,0.0,0.0,0.0,0.0,0.0,0.0,0.0,0.0,0.0,0.0,0.0,0.0,0.0,0.0,0.0,0.0,0.0,0.0,0.0,-0.2534,0.0,0.0,0.0,0.0,0.0,0.0,0.0,0.0,0.0,0.0,0.0,0.0,0.0,0.0,0.0,0.0,0.0,0.0,0.0,0.0,0.0,0.0,0.0,0.0,0.0,0.0,0.0,0.0,0.0,0.0,0.0,0.0,0.0,0.0,0.0,0.0,0.0,0.0,0.0,0.0,0.0,0.0,0.0,0.0,0.0,0.0,0.0,0.0,0.0,0.0,0.0,0.0,0.0,0.0,0.0,0.0,0.0,0.0,0.0,0.7053,0.6947,0.6051,0.5151,0.4391,0.247,0.1032,0.0,0.0,0.0,0.0,0.0,0.0,0.0,0.0,0.0,0.0,0.0,0.0,0.0,0.0,0.0,0.0,0.0,0.0,0.0,0.0,0.0,0.0,0.0,0.0,0.0,0.0,0.0,0.0,0.0,0.0,0.0,0.0,0.0,0.0,0.0,0.0,0.0,0.0,0.0,0.0,0.0,0.0,0.0,0.0,0.0,0.0,0.0,0.0,0.0,0.0,0.0,0.0,0.0,0.0,0.0,0.0,0.0,0.0,0.0,0.0,0.0,0.0,0.0,0.0,0.0,0.0,0.0,0.0,0.0,0.0,0.0,0.0,0.0,0.0,0.0,0.0,0.0,0.0,0.0,0.0,0.0,0.0,0.0,0.0,0.0,0.0,0.0,0.0,0.0,0.0,0.0,0.0,0.0,0.0,0.0,0.0,0.0,0.0,0.0,0.0,0.0,0.0,0.0,0.0,0.0,0.0,0.0,0.7312,0.7289,0.7455,0.6586,0.5596,0.4535,0.3391,0.2026,0.0355,0.0,0.0,0.0,0.0,0.0,0.0,0.0,0.0,0.0,0.0,0.0,0.0,0.0,0.0,0.0,0.0,0.0,0.0,0.0,0.0,0.0,0.0,0.0,0.0,0.0,0.0,0.0,0.0,0.0,0.0,0.0,0.0,0.0,0.0,0.0,0.0,0.0,0.0,-0.0913,-0.0121,0.0,0.0,0.0,0.0,0.0,0.0,0.0,0.0,-0.0745,0.0,0.0,0.0,0.0,0.0,0.0,0.0,0.0,0.0,0.0,0.0,0.0,0.0,0.0,0.0,0.0,0.0,0.0,0.0,0.0,0.0,0.0,0.0,0.0,0.0,0.0,0.0,0.0,0.0,0.0,0.0,0.0,0.0,0.0,0.0,0.0,0.0,0.0,0.0,0.0,0.0,0.0,0.0,0.0,0.0,0.0,0.0,0.0,0.0,0.0,0.0,0.0,0.0,0.0,0.0,0.0,0.7517,0.8072,0.7944,0.7138,0.6269,0.5302,0.4177,0.3185,0.1974,0.0728,0.0,0.0,0.0,0.0,0.0,0.0,0.0,0.0,0.0,0.0,0.0,0.0,0.0,0.0,0.0,0.0,0.0,0.0,0.0,0.0,0.0,0.0,0.0,0.0,0.0,0.0,0.0,0.0,0.0,0.0,0.0,0.0,0.0,0.0,0.0,0.0,0.0,0.0,0.0,0.0649,0.0938,0.0,0.0,0.0,0.0,0.0,0.0,0.0,0.0,-0.0513,0.0,0.0,0.0,0.0,0.0,0.0,0.0,0.0,0.0,0.0,0.0,0.0,0.0,0.0,0.0,0.0,0.0,0.0,0.0,0.0,0.0,0.0,0.0,0.0,0.0,0.0,0.0,0.0,0.0,0.0,0.0,0.0,0.0,0.0,0.0,0.0,0.0,0.0,0.0,0.0,0.0,0.0,0.0,0.0,0.0,0.0,0.0,0.0,0.0,0.0,0.0,0.0,0.0,0.0,0.0,0.7933,0.7748,0.7392,0.6972,0.6551,0.5814,0.4841,0.3861,0.2875,0.0,0.0,0.0,0.0,0.0,0.0,0.0,0.0,0.0,0.0,0.0,0.0,0.0,0.0,0.0,0.0,0.0,0.0,0.0,0.0,0.0,0.0,0.0,0.0,0.0,0.0,0.0,0.0,0.0,0.0,0.0,0.0,0.0,0.0,0.0,0.0,0.0,0.0,0.0,0.0,0.0742,0.1117,0.1161,0.0,0.0,0.0,0.0,0.0,0.0,0.0334,0.039,0.0,0.0,0.0,0.0,0.0,0.0,0.0,0.0,0.0,0.0,0.0,0.0,0.0,0.0,0.0,0.0,0.0,0.0,0.0,0.0,0.0,0.0,0.0,0.0,0.0,0.0,0.0,0.0,0.0,0.0,0.0,0.0,0.0,0.0,0.0,0.0,0.0,0.0,0.0,0.0,0.0,0.0,0.0,0.0,0.0,0.0,0.0,0.0,0.0,0.0,0.0,0.0,0.0,0.0,0.0,0.8373,0.752,0.698,0.6909,0.6749,0.6319,0.5526,0.4538,0.37,0.0,0.0,0.0,0.0,0.0,0.0,0.0,0.0,0.0,0.0,0.0,0.0,0.0,0.0,0.0,0.0,0.0,0.0,0.0,0.0,0.0,0.0,0.0,0.0,0.0,0.0,0.0,0.0,0.0,0.0,0.0,0.0,0.0,0.0,0.0,0.0,0.0,0.0,0.0,0.0,0.0,0.1157,0.128,0.1212,0.0,0.0,0.0,0.0,0.1139,0.11,0.0,0.0,0.0,0.0,0.0,0.0,0.0,0.0,0.0,0.0,0.0,0.0,0.0,0.0,0.0,0.0,0.0,0.0,0.0,0.0,0.0,0.0,0.0,0.0,0.0,0.0,0.0,0.0,0.0,0.0,0.0,0.0,0.0,0.0,0.0,0.0,0.0,0.0,0.0,0.0,0.0,0.0,0.0,0.0,0.0,0.0,0.0,0.0,0.0,0.0,0.0,0.0,0.0,0.0,0.0,0.0,0.8382,0.8181,0.7658,0.6905,0.6647,0.6217,0.5523,0.4401,0.3503,0.0,0.0,0.0,0.0,0.0,0.0,0.0,0.0,0.0,0.0,0.0,0.0,0.0,0.0,0.0,0.0,0.0,0.0,0.0,0.0,0.0,0.0,0.0,0.0,0.0,0.0,0.0,0.0,0.0,0.0,0.0,0.0,0.0,0.0,0.0,0.0,0.0,0.0,0.0,0.0,0.0,0.1204,0.1211,0.1212,0.12,0.0,0.0,0.1201,0.1201,0.1196,0.0,0.0,0.0,0.0,0.0,0.0,0.0,0.0,0.0,0.0,0.0,0.0,0.0,0.0,0.0,0.0,0.0,0.0,0.0,0.0,0.0,0.0,0.0,0.0,0.0,0.0,0.0,0.0,0.0,0.0,0.0,0.0,0.0,0.0,0.0,0.0,0.0,0.0,0.0,0.0,0.0,0.0,0.0,0.0,0.0,0.0,0.0,0.0,0.0,0.0,0.0,0.0,0.0,0.0,0.0,0.8421,0.8032,0.7629,0.7228,0.7027,0.6671,0.6486,0.6418,0.4772,0.3784,0.0,0.0,0.0,0.0,0.0,0.0,0.0,0.0,0.0,0.0,0.0,0.0,0.0,0.0,0.0,0.0,0.0,0.0,0.0,0.0,0.0,0.0,0.0,0.0,0.0,0.0,0.0,0.0,0.0,0.0,0.0,0.0,0.0,0.0,0.0,0.0,0.0,0.0,0.0,0.0,0.0,0.0,0.1209,0.1227,0.0,0.0,0.0,0.1251,0.1217,0.0,0.0,0.0,0.0,0.0,0.0,0.0,0.0,0.0,0.0,0.0,0.0,0.0,0.0,0.0,0.0,0.0,0.0,0.0,0.0,0.0,0.0,0.0,0.0,0.0,0.0,0.0,0.0,0.0,0.0,0.0,0.0,0.0,0.0,0.0,0.0,0.0,0.0,0.0,0.0,0.0,0.0,0.0,0.0,0.0,0.0,0.0,0.0,0.0,0.0,0.0,0.0,0.0,0.0,0.0,0.0,0.0,0.8008,0.7189,0.6861,0.717,0.6759,0.6742,0.7084,0.5183,0.0,0.0,0.0,0.0,0.0,0.0,0.0,0.0,0.0,0.0,0.0,0.0,0.0,0.0,0.0,0.0,0.0,0.0,0.0,0.0,0.0,0.0,0.0,0.0,0.0,0.0,0.0,-0.0301,0.0,0.0,0.0,0.0,0.0,0.0,0.0,0.0,0.0,0.0,0.0,0.0,0.0,0.0,0.1189,0.1219,0.1243,0.1249,0.0,0.0,0.1278,0.1241,0.1254,0.1258,0.0,0.0,0.0,0.0,0.0,0.0,0.0,0.0,0.0,0.0,0.0,0.0,0.0,0.0,0.0,0.0,0.0,0.0,0.0,0.0,0.0,0.0,0.0,0.0,0.0,0.0,0.0,0.0,0.0,0.0,0.0,0.0,0.0,0.0,0.0,0.0,0.0,0.0,0.0,0.0,0.0,0.0,0.0,0.0,0.0,0.0,0.0,0.0,0.0,0.0,0.0,0.0,0.0,0.0,0.0,0.8466,0.735,0.6915,0.7322,0.6915,0.6898,0.7333,0.5298,0.4151,0.0,0.0,0.0,0.0,0.0,0.0,0.0,0.0,0.0,0.0,0.0,0.0,0.0,0.0,0.0,0.0,0.0,0.0,0.0,0.0,0.0,0.0,0.0,0.0,0.0,0.0,0.0,0.0,0.0,0.0,0.0,0.0,0.0,0.0,0.0,0.0,0.0,0.0,0.0,0.0,0.0,0.1219,0.1249,0.1334,0.1335,0.0,0.0,0.1269,0.1293,0.1298,0.129,0.1259,0.0,0.0,0.0,0.0,0.0,0.0,0.0,0.0,0.0,0.0,0.0,0.0,0.0,0.0,0.0,0.0,0.0,0.0,0.0,0.0,0.0,0.0,0.0,0.0,0.0,0.0,0.0,0.0,0.0,0.0,0.0,0.0,0.0,0.0,0.0,0.0,0.0,0.0,0.0,0.0,0.0,0.0,0.0,0.0,0.0,0.0,0.0,0.0,0.0,0.0,0.0,0.0,0.0,0.8171,0.8186,0.7259,0.7058,0.7478,0.7156,0.7146,0.7506,0.5479,0.4324,0.0,0.0,0.0,0.0,0.0,0.0,0.0,0.0,0.0,0.0,0.0,0.0,0.0,0.0,0.0,0.0,0.0,0.0,0.0,0.0,0.0,0.0,0.0,0.0,0.0,0.0,0.0,0.0,0.0658,0.0722,0.0945,0.0,0.0,0.0,0.0,0.0,0.0,0.0,0.0,0.0,0.0,0.1833,0.1409,0.129,0.0,0.0,0.1339,0.1343,0.1354,0.1326,0.138,0.1287,0.1348,0.0,0.0,0.0,0.0,0.0,0.0,0.0,0.0,0.0,0.0,0.0,0.0,0.0,0.0,0.0,0.0,0.0,0.0,0.0,0.0,0.0,0.0,0.0,0.0,0.0,0.0,0.0,0.0,0.0,0.0,0.0,0.0,0.0,0.0,0.0,0.0,0.0,0.0,0.0,0.0,0.0,0.0,0.0,0.0,0.0,0.0,0.0,0.0,0.0,0.0,0.0,0.0,0.8268,0.8224,0.7403,0.7187,0.759,0.7387,0.74,0.755,0.5917,0.4743,0.0,0.0,0.0,0.0,0.0,0.0,0.0,0.0,0.0,0.0,0.0,0.0,0.0,0.0,0.0,0.0,0.0,0.0,0.0,0.0,0.0,0.0,0.0,0.0,0.0,0.0,0.0,0.0,0.0916,0.0919,0.0899,0.0,0.0,0.0,0.0,0.0,0.0,0.0,0.0,0.0,0.0,0.2665,0.1822,0.1486,0.1364,0.1376,0.1378,0.1467,0.1388,0.1348,0.1401,0.1327,0.0,0.0,0.0,0.0,0.0,0.0,0.0,0.0,0.0,0.0,0.0,0.0,0.0,0.0,0.0,0.0,0.0,0.0,0.0,0.0,0.0,0.0,0.0,0.0,0.0,0.0,0.0,0.0,0.0,0.0,0.6753,0.0,0.0,0.0,0.0,0.0,0.0,0.0,0.0,0.0,0.0,0.0,0.0,0.0,0.0,0.0,0.0,0.0,0.0,0.0,0.0,0.0,0.0,0.8644,0.8699,0.7588,0.7285,0.7587,0.7594,0.7658,0.779,0.6706,0.5678,0.4469,0.0,0.0,0.0,0.0,0.0,0.0,0.0,0.0,0.0,0.0,0.0,0.0,0.0,0.0,0.0,0.0,0.0,0.0,0.0,0.0,0.0,0.0,0.0,0.0,0.0,0.0,0.0906,0.0954,0.0989,0.0,0.0,0.0,0.0,0.0,0.0,0.0,0.0,0.0,0.0,0.3926,0.3735,0.2766,0.1937,0.1464,0.1356,0.152,0.153,0.13,0.128,0.1272,0.0,0.0,0.0,0.0,0.0,0.0,0.0,0.0,0.0,0.0,0.0,0.0,0.0,0.0,0.0,0.0,0.0,0.0,0.0,0.0,0.0,0.0,0.0,0.0,0.0,0.0,0.0,0.737,0.7422,0.0,0.0,0.0,0.0,0.0,0.0,0.0,0.0,0.0,0.0,0.0,0.6559,0.7285,0.0,0.0,0.0,0.0,0.0,0.0,0.0,0.0,0.0,0.0,0.0,0.0,0.8532,0.8179,0.7585,0.7394,0.7594,0.7689,0.776,0.7811,0.6891,0.5479,0.3587,0.0,0.0,0.0,0.0,0.0,0.0,0.0,0.0,0.0,0.0,0.0,0.0,0.0,0.0,0.0,0.0,0.0,0.0,0.0,0.0,0.0,0.0,0.0,0.0,0.0,0.0852,0.0,0.0,0.0,0.0,0.0,0.0,0.0,0.0,0.0,0.0,0.0,0.4768,0.4914,0.4892,0.4545,0.3798,0.3125,0.2835,0.0,0.0,0.0,0.0,0.0,0.0,0.0,0.0,0.0,0.0,0.0,0.0,0.0,0.0,0.2697,0.2048,0.1535,0.1751,0.3591,0.0,0.0,0.0,0.0,0.0,0.0,0.0,0.0,0.0,0.0,0.0,0.0,0.0,0.0,0.7358,0.0,0.7614,0.0,0.0,0.0,0.0,0.0,0.0,0.0,0.0,0.6667,0.6679,0.6502,0.7231,0.7272,0.0,0.7141,0.7679,0.0,0.0,0.0,0.0,0.0,0.0,0.0,0.0,0.8603,0.8115,0.7692,0.7522,0.7672,0.7814,0.7892,0.7889,0.6866,0.5458,0.3665,0.3077,0.2382,0.0,0.0,0.0,0.0,0.0,0.0,0.0,0.0,0.0,0.0,0.0,0.0,0.0,0.0,0.0,0.0,0.0,0.0,0.0,0.0,0.0,0.0,0.0,0.1645,0.0,0.0,0.0,0.0,0.0,0.0,0.0,0.0,0.0,0.5442,0.5628,0.5737,0.5858,0.588,0.563,0.4751,0.0,0.0,0.0,0.0,0.0,0.0,0.0,0.2953,0.4175,0.4552,0.4639,0.4526,0.4369,0.4243,0.4325,0.0,0.0,0.3589,0.2674,0.2761,0.4922,0.5793,0.6156,0.6176,0.5838,0.5743,0.0,0.0,0.0,0.0,0.0,0.0,0.0,0.0,0.7226,0.7459,0.0,0.7884,0.0,0.0,0.0,0.0,0.0,0.7187,0.0,0.0,0.6997,0.7061,0.6953,0.7071,0.7068,0.6936,0.6797,0.7138,0.7843,0.7293,0.0,0.0,0.0,0.0,0.0,0.0,0.8862,0.8352,0.7809,0.7672,0.7807,0.7963,0.8052,0.7952,0.7018,0.5917,0.4664,0.3668,0.2577,0.1477,0.128,0.0,0.0,0.0,0.0,0.0,0.0,0.0,0.0,0.0,0.0,0.0,0.0,0.0,0.0,0.0,0.0,0.0,0.0,0.0,0.0,0.2247,0.0,0.0,0.0,0.0,0.0,0.0,0.0,0.0,0.0,0.0,0.6059,0.6441,0.6658,0.6529,0.0,0.0,0.0,0.0,0.5148,0.3345,0.2194,0.2302,0.408,0.4586,0.4818,0.4813,0.0,0.0,0.5566,0.5199,0.5111,0.5452,0.6226,0.659,0.5429,0.4556,0.4546,0.6192,0.6617,0.6654,0.6542,0.661,0.6622,0.9047,0.0,0.0,0.0,0.0,0.7921,0.7725,0.7531,0.6907,0.7112,0.7877,0.7829,0.0,0.0,0.0,0.0,0.0,0.0,0.739,0.7049,0.7182,0.7253,0.7238,0.7173,0.7177,0.7238,0.72,0.7413,0.7692,0.8271,0.8552,0.8681,0.0,0.0,0.0,0.0,0.8265,0.751,0.7636,0.777,0.7814,0.8069,0.8252,0.835,0.7805,0.706,0.6028,0.4862,0.368,0.2578,0.1796,0.0,0.0,0.0,0.0,0.0,0.0,0.0,0.0,0.0,0.0,0.0,0.0,0.0,0.0,0.0,0.0,0.0,0.0,0.0,0.1954,0.3064,0.3722,0.0,0.0,0.0,0.0,0.0,0.0,0.0,0.0,0.0,0.6605,0.678,0.6926,0.0,0.0,0.7054,0.7002,0.6191,0.541,0.5145,0.4259,0.0,0.5273,0.6371,0.7049,0.7056,0.699,0.6866,0.6824,0.6643,0.6486,0.666,0.6873,0.6994,0.6851,0.6586,0.6522,0.6873,0.708,0.7094,0.6966,0.6987,0.7014,0.867,0.8077,0.8763,0.8568,0.7902,0.7967,0.7831,0.765,0.7208,0.749,0.8225,0.8222,0.8435,0.8861,0.8704,0.0,0.0,0.0,0.7472,0.7278,0.734,0.7344,0.7366,0.7339,0.737,0.7455,0.7851,0.7813,0.7597,0.8641,0.8792,0.835,0.0,0.0,0.7674,0.8225,0.8091,0.7411,0.7672,0.7868,0.7994,0.8231,0.8394,0.8476,0.8309,0.7471,0.6093,0.5234,0.4026,0.2514,0.181,0.1399,0.0,0.0,0.0,0.0,0.0,0.0,0.0,0.0,0.0,0.0,0.0,0.1007,0.0,0.0,0.0,0.0,0.2078,0.2709,0.3514,0.4188,0.0,0.0,0.0,0.0,0.0,0.0,0.0,0.661,0.6898,0.7017,0.7105,0.716,0.7238,0.7356,0.7316,0.7377,0.7645,0.0,0.6429,0.6312,0.5411,0.5159,0.5947,0.6827,0.7544,0.7957,0.7811,0.7622,0.7468,0.7478,0.742,0.7322,0.7322,0.737,0.7516,0.7561,0.7482,0.7336,0.7416,0.7416,0.7326,0.7326,0.7322,0.8586,0.8203,0.8914,0.8819,0.8155,0.8305,0.8272,0.8045,0.8045,0.834,0.8844,0.875,0.8569,0.8259,0.793,0.0,0.7542,0.7546,0.7534,0.7411,0.7543,0.7533,0.7414,0.7539,0.7604,0.7611,0.8475,0.8398,0.7719,0.8502,0.8417,0.7519,0.9249,0.9228,0.7552,0.8204,0.8281,0.7824,0.7841,0.7994,0.8299,0.8431,0.8506,0.852,0.8509,0.7488,0.5399,0.5101,0.4007,0.187,0.1616,0.1463,0.1403,0.0,0.0,0.0,0.0,0.0,0.0,0.0,0.0,0.0,0.0,0.0,0.0,0.0,0.0,0.0,0.3777,0.0,0.5454,0.5545,0.0,0.0,0.0,0.6857,0.6946,0.7042,0.7097,0.7156,0.0,0.0,0.7421,0.7546,0.7594,0.7475,0.7662,0.7824,0.7858,0.7994,0.7775,0.6681,0.5848,0.5572,0.6366,0.6684,0.7142,0.7961,0.8065,0.7928,0.7702,0.7767,0.7855,0.7634,0.7645,0.7695,0.7824,0.7851,0.7828,0.7706,0.7672,0.7753,0.7662,0.7678,0.7695,0.9155,0.9084,0.9295,0.8822,0.8029,0.8066,0.8389,0.8808,0.8236,0.8404,0.9035,0.8838,0.8602,0.8253,0.8215,0.8059,0.7859,0.7766,0.7754,0.7695,0.7631,0.7638,0.7702,0.7634,0.7655,0.7753,0.8006,0.7973,0.7929,0.8956,0.8937,0.7983,0.9265,0.9068,0.7488,0.7778,0.799,0.7984,0.8102,0.8306,0.8594,0.8638,0.8713,0.8825,0.8716,0.7993,0.6559,0.5609,0.4343,0.2908,0.1988,0.1557,0.1497,0.1414,0.0,0.0,0.0,0.0,0.0,0.0,0.0,0.0,0.0,0.1566,0.2223,0.0,0.2741,0.0,0.5018,0.5743,0.5653,0.6318,0.0,0.0,0.6706,0.6851,0.7221,0.7163,0.7193,0.7273,0.7526,0.7631,0.7855,0.7913,0.8007,0.8184,0.798,0.7936,0.8262,0.762,0.7052,0.6823,0.6058,0.5793,0.6753,0.7702,0.8194,0.8458,0.8418,0.8173,0.8136,0.8009,0.7975,0.797,0.8035,0.8116,0.815,0.8245,0.8303,0.8272,0.8187,0.8113,0.8113,0.8083,0.816,0.9474,0.9478,0.9474,0.922,0.8745,0.8745,0.8944,0.9236,0.894,0.8898,0.921,0.8839,0.8524,0.834,0.8153,0.8099,0.8072,0.8076,0.8027,0.8007,0.7994,0.7931,0.7913,0.7902,0.7974,0.8106,0.8607,0.8654,0.8333,0.9341,0.924,0.8238,0.8933,0.9097,0.8844,0.8421,0.8153,0.8238,0.8387,0.8543,0.8706,0.8777,0.8852,0.8933,0.8965,0.8445,0.7189,0.6685,0.551,0.3619,0.2996,0.2237,0.1569,0.1506,0.1466,0.0,0.0,0.0,0.0,0.0,0.0,0.0,0.0,0.0,0.0,0.0,0.3037,0.371,0.5585,0.6719,0.6438,0.6982,0.7312,0.7234,0.7061,0.7131,0.7536,0.7492,0.7529,0.7671,0.7855,0.8058,0.8223,0.8197,0.8319,0.855,0.837,0.8299,0.8523,0.7943,0.7666,0.7692,0.732,0.7141,0.782,0.8368,0.8713,0.8699,0.8581,0.8452,0.8377,0.836,0.823,0.8262,0.8309,0.8364,0.8367,0.8421,0.8482,0.8479,0.8479,0.8445,0.8381,0.8317,0.8371,0.9628,0.9624,0.9624,0.9624,0.9624,0.9624,0.9624,0.9624,0.9624,0.9539,0.938,0.8938,0.8585,0.8306,0.8117,0.8104,0.8236,0.8452,0.8463,0.847,0.8619,0.8492,0.8299,0.8337,0.8364,0.8584,0.9414,0.9414,0.8587,0.9414,0.9518,0.8793,0.8811,0.9444,1.0581,0.9467,0.8843,0.8723,0.8766,0.874,0.8743,0.8869,0.8937,0.894,0.9268,0.8869,0.7648,0.7855,0.6818,0.4374,0.4051,0.3258,0.1732,0.1698,0.1655,0.0,0.1444,0.0,0.0,0.0,0.0,0.0,0.0,0.0,0.0,0.3873,0.3527,0.3587,0.6023,0.7621,0.7564,0.758,0.7658,0.7658,0.7557,0.7518,0.7848,0.7973,0.8031,0.8082,0.8218,0.8405,0.8546,0.8543,0.8567,0.8737,0.876,0.876,0.8794,0.8771,0.8679,0.8927,0.8937,0.8602,0.8816,0.8722,0.8747,0.873,0.8652,0.8646,0.8516,0.8513,0.8611,0.8482,0.8489,0.8618,0.872,0.873,0.8751,0.9086,0.9176,0.9094,0.8867,0.8857,0.8744,1.0019,0.9628,0.9624,0.9624,0.9624,0.9624,0.9624,0.9624,0.9624,0.941,0.9186,0.9147,0.8935,0.8732,0.8634,0.8557,0.8393,0.9522,0.9879,0.9678,0.9859,0.9836,0.9737,0.8841,0.8455,0.8482,0.8689,0.8689,0.8482,0.8689,0.9309,1.0236,1.0383,1.0559,1.0886,0.0,0.0,0.0,0.9247,0.8896,0.8896,0.914,0.9268,0.9268,0.9596,0.0,0.7996,0.7993,0.727,0.5854,0.5094,0.0,0.0,0.0,0.0,0.0,0.0,0.0,0.0,0.0,0.0,0.0,0.3651,0.4248,0.4468,0.6,0.6858,0.6656,0.7579,0.8182,0.8133,0.8038,0.7957,0.7953,0.7655,0.7713,0.8163,0.8289,0.8449,0.8484,0.8425,0.8601,0.8835,0.8762,0.8774,0.9015,0.9066,0.912,0.9225,0.9042,0.8916,0.8933,0.896,0.8947,0.8937,0.8923,0.8906,0.8889,0.8879,0.8808,0.8703,0.8672,0.8618,0.8632,0.8581,0.9094,0.9945,0.9478,0.9425,1.1315,1.122,1.0646,1.019,1.0489,1.0912,0.9821,0.0,0.9624,0.9624,0.0,1.0207,1.0113,0.9624,0.9624,0.9529,0.9434,0.9624,0.9723,0.962,0.9903,0.9756,0.9349,1.0045,1.003,0.9507,0.9488,0.9572,0.944,0.9625,0.9659,0.977,1.0489,1.0803,1.0822,1.0715,1.1026,1.1769,1.1125,1.1173,1.1814,1.1489,1.074,0.9689,0.9336,0.9161,0.9158,0.9489,0.9596,0.9599,1.0009,0.0,0.0,0.0,0.0,0.0,0.0,0.0,0.0,0.0,0.0,0.2593,0.2038,0.1908,0.2386,0.2441,0.2723,0.3657,0.4313,0.4818,0.5344,0.7003,0.7653,0.6961,0.7746,0.8343,0.848,0.8364,0.8258,0.8255,0.8153,0.8186,0.8367,0.8549,0.8762,0.8797,0.8771,0.8982,0.914,0.9157,0.9093,0.9235,0.9262,0.9293,0.9354,0.9256,0.9157,0.8924,0.9041,0.9157,0.9157,0.9157,0.9154,0.9157,0.9154,0.9093,0.8954,0.9364,0.9745,0.9708,1.0058,1.0758,1.119,1.0687,1.0619,1.1969,1.2417,1.2389,1.2295,1.2375,1.2346,1.0216,1.0311,1.0311,1.0311,1.041,1.1283,1.0996,1.0012,0.0,0.0,0.0,1.0345,1.0457,1.0362,1.078,1.0784,1.0429,1.0671,1.048,1.0035,1.0039,0.9918,0.9973,1.0837,1.1324,1.1546,1.2693,1.3232,1.3161,1.2719,1.2611,1.2719,1.1755,1.186,1.3151,1.2295,1.1017,0.9525,0.95,0.95,0.9529,0.975,0.9983,1.0009,1.037,1.0673,1.0673,1.1032,1.0524,0.9119,0.8899,0.7638,0.506,0.5006,0.4828,0.3992,0.2982,0.2868,0.3753,0.3759,0.3924,0.4601,0.5241,0.5746,0.6324,0.7403,0.7654,0.6802,0.7755,0.856,0.8673,0.8697,0.8611,0.8638,0.8642,0.8648,0.8652,0.8858,0.8999,0.9005,0.9113,0.9349,0.9459,0.9357,0.9395,0.9415,0.9418,0.9439,0.9445,0.9408,0.9235,0.9112,0.9218,0.9364,0.9374,0.9364,0.9381,0.9354,0.9364,0.9334,0.946,1.0205,1.0819,1.0908,1.1867,1.264,1.285,1.2165,1.2023,1.3059,1.3873,1.4445,1.4636,1.4538,1.4092,1.2526,1.303,1.303,1.303,1.303,1.3234,1.2623,1.1583,1.1137,1.0979,1.0993,1.1169,1.0751,0.9957,1.0215,1.0712,1.1358,1.2462,1.3504,1.4248,1.4147,1.4277,1.4379,1.3449,1.294,1.3053,1.3192,1.3186,1.2827,1.186,1.1978,1.3063,1.3058,1.3588,1.4877,1.3696,1.2493,1.1346,1.0323,0.9772,1.0017,1.0254,1.0435,1.0689,1.0942,1.1073,1.1073,1.1212,1.1109,1.087,1.0152,0.9669,0.9655,0.7893,0.645,0.555,0.5308,0.528,0.5441,0.5412,0.5733,0.6738,0.7715,0.7947,0.6942,0.7569,0.804,0.8236,0.8703,0.9102,0.9223,0.9206,0.9089,0.9211,0.9128,0.9134,0.9222,0.9356,0.9387,0.9303,0.9334,0.9354,0.9398,0.9401,0.9452,0.9426,0.9693,0.9615,0.9659,0.954,0.9398,0.9378,0.9378,0.9381,0.9531,0.9501,0.9518,0.9381,0.9514,0.9747,0.9697,1.0716,1.1604,1.1693,1.2899,1.404,1.5049,1.3618,1.3806,1.5794,1.663,1.6876,1.6845,1.6753,1.6527,1.3028,1.272,1.272,1.2309,1.1798,1.2412,1.3028,1.3518,1.3412,1.272,1.162,1.2126,1.2369,1.2577,1.3088,1.3307,1.3211,1.3838,1.4123,1.4121,1.4137,1.4083,1.4293,1.4201,1.4256,1.4465,1.503,1.5348,1.5322,1.4669,1.4793,1.5351,1.4808,1.4429,1.4429,1.4114,1.3461,1.2325,1.1475,1.0915,1.0524,1.076,1.0918,1.0993,1.1201,1.1374,1.1374,1.1468,1.1398,1.1276,1.0946,1.0786,1.0684,0.9898,0.9119,0.8587,0.8481,0.8105,0.7339,0.75,0.7912,0.8258,0.9,0.9113,0.831,0.8051,0.8238,0.8636,0.9052,0.9412,0.9415,0.9356,0.9306,0.9374,0.9378,0.9378,0.9381,0.9381,0.9412,0.9486,0.9503,0.9534,0.9608,0.9618,0.9635,0.9713,1.0448,1.082,1.0088,1.109,1.1374,0.9972,0.9618,0.9622,0.9737,1.0443,1.0543,0.9808,1.1118,1.1787,1.1699,1.2712,1.3724,1.4081,1.4977,1.5991,1.6794,1.6169,1.6398,1.6869,1.7837,1.7843,1.7712,1.7595,1.7382,1.38,1.3179,1.3179,1.266,1.1935,1.2561,1.3702,1.5149,1.4944,1.4115,1.2972,1.3442,1.3934,1.4657,1.5342,1.5269,1.4897,1.4914,1.473,1.4407,1.4261,1.4266,1.4434,1.5235,1.5731,1.5998,1.6845,1.7281,1.7397,1.7125,1.697,1.694,1.6144,1.5348,1.4784,1.5199,1.4869,1.3774,1.3178,1.227,1.1049,1.1169,1.1305,1.1354,1.1488,1.1561,1.1569,1.1699,1.1647,1.139,1.1511,1.1442,1.109,1.1224,1.116,1.0926,1.0946,1.0465,0.9228,0.9473,0.9641,0.9533,0.9655,0.9708,0.9569,0.8894,0.8561,0.8997,0.9334,0.9545,0.9552,0.9469,0.9479,0.9479,0.9483,0.9496,0.9483,0.9479,0.952,0.9635,0.9659,0.97,0.9788,1.0179,1.0411,1.077,1.1893,1.2209,1.1268,1.2627,1.2813,1.2496,1.1405,1.1004,1.0899,1.1844,1.2046,1.0808,1.2627,1.3769,1.4,1.5157,1.6045,1.612,1.6988,1.7704,1.803,1.8155,1.8175,1.8194,1.8327,1.842,1.8181,1.8056,1.7834,1.6206,1.6963,1.6839,1.7068,1.6516,1.5771,1.5553,1.5659,1.4708,1.4714,1.5417,1.5327,1.47,1.4113,1.4289,1.4921,1.5807,1.5819,1.6392,1.7371,1.7277,1.7297,1.7378,1.7416,1.7391,1.7378,1.753,1.7463,1.7351,1.6553,1.6216,1.6432,1.6616,1.7098,1.7883,1.8027,1.7591,1.6551,1.5391,1.3776,1.1589,1.1472,1.1553,1.1723,1.1736,1.1748,1.1752,1.1768,1.1776,1.1772,1.1768,1.1756,1.1748,1.174,1.1479,1.1098,1.1487,1.1378,1.062,1.0485,1.0456,1.0598,1.0088,0.9975,1.0123,0.9875,0.9516,0.9459,0.9624,0.9707,0.9724,0.9813,0.9747,0.9741,0.9747,0.9781,0.9761,0.9778,0.9788,0.9798,0.9785,0.9808,0.9933,1.1023,1.2101,1.2337,1.3712,1.4316,1.3398,1.3393,1.4779,1.6703,1.6051,1.4257,1.4009,1.4128,1.3851,1.2971,1.3722,1.5053,1.588,1.6222,1.6563,1.7261,1.7902,1.8718,1.8981,1.9285,1.9252,1.905,1.907,1.9259,1.9272,1.9117,1.883,1.6723,1.6611,1.6611,1.618,1.5535,1.5749,1.5861,1.5861,1.6074,1.6499,1.6817,1.6708,1.6447,1.6138,1.6137,1.6499,1.6935,1.6935,1.7212,1.7756,1.7635,1.7649,1.7749,1.7444,1.7576,1.7849,1.7635,1.7727,1.7906,1.7579,1.7455,1.7582,1.7853,1.8288,1.8764,1.8925,1.8479,1.7292,1.6827,1.5653,1.4015,1.2486,1.1699,1.1764,1.1776,1.1829,1.1914,1.1926,1.1975,1.2077,1.2093,1.204,1.1804,1.18,1.1752,1.1534,1.1655,1.1534,1.0793,1.1035,1.0914,1.0304,1.0183,1.0179,1.0065,0.9822,0.9764,0.968,0.9703,0.9858,0.9854,1.0023,1.0061,1.0061,1.0304,1.0304,1.0179,1.0308,1.0304,1.0301,1.0301,1.0304,1.0543,1.2251,1.3573,1.4152,1.552,1.6385,1.5392,1.5858,1.7132,1.8647,1.8232,1.6638,1.5316,1.5548,1.5263,1.4739,1.5954,1.7713,1.7849,1.8083,1.8292,1.8402,1.8758,1.912,1.9332,1.9366,1.9366,1.9366,1.9366,1.9366,1.9366,1.9366,1.911,1.7153,1.6399,1.6399,1.5861,1.5209,1.5968,1.6399,1.6399,1.7259,1.7589,1.7589,1.7589,1.7589,1.7589,1.7589,1.7589,1.7589,1.7589,1.7589,1.7589,1.7589,1.7589,1.7589,1.7477,1.7622,1.7915,1.7906,1.8097,1.8577,1.8611,1.8644,1.8751,1.8945,1.9045,1.9065,1.9272,1.9004,1.8052,1.7397,1.6611,1.5433,1.3215,1.202,1.234,1.2016,1.1983,1.2101,1.2105,1.2138,1.2223,1.228,1.2219,1.1917,1.1817,1.1793,1.1939,1.1922,1.1796,1.1298,1.167,1.1425,1.0562,1.0566,1.0562,1.0194,0.9944,0.9818,0.9818,1.0067,1.0187,1.0002,1.0124,1.0264,1.0302,1.0562,1.0559,1.0439,1.0681,1.0692,1.0674,1.0707,1.0786,1.1141,1.3008,1.4867,1.5199,1.6908,1.7964,1.6695,1.7469,1.8775,1.9475,1.9613,1.8574,1.6543,1.6856,1.6921,1.6897,1.8002,1.912,1.9366,1.9366,1.9366,1.8887,1.9243,1.9366,1.9366,1.9366,1.9386,1.9372,1.9366,1.9366,1.9366,1.9366,1.9366,1.7582,1.7477,1.7477,1.7371,1.747,1.7477,1.7477,1.7364,1.7582,1.7589,1.7589,1.7589,1.7589,1.7589,1.7589,1.7589,1.7589,1.7589,1.7589,1.7589,1.7602,1.7589,1.7602,1.7883,1.7935,1.8143,1.8364,1.8617,1.8898,1.8905,1.9052,1.9305,1.9312,1.9339,1.9352,1.9379,1.9379,1.9089,1.7345,1.6008,1.5671,1.3656,1.291,1.3655,1.2802,1.2268,1.2292,1.2296,1.2231,1.206,1.2239,1.2239,1.1953,1.1936,1.2012,1.2264,1.2268,1.2268,1.2134,1.2251,1.2,1.1633,1.1355,1.1128,1.0721,1.0338,1.0076,0.9839,1.0591,1.0807,1.0457,1.0298,1.0218,1.0458,1.0369,1.0485,1.0369,1.071,1.076,1.0865,1.1092,1.1427,1.1647,1.3807,1.5679,1.6418,1.7305,1.7729,1.6757,1.7451,1.8866,1.9752,2.0094,1.9874,1.9272,1.8829,1.8933,1.8739,1.8616,1.9372,1.9366,1.9366,1.9379,1.9406,1.9479,1.9486,1.9406,1.9386,1.9412,1.9406,1.9379,1.9372,1.9366,1.9366,1.9366,1.7793,1.7589,1.7589,1.7589,1.7589,1.7589,1.7589,1.7589,1.7589,1.7589,1.7589,1.7589,1.7589,1.7589,1.7589,1.7589,1.7589,1.7589,1.7589,1.7609,1.7789,1.7876,1.7916,1.819,1.8444,1.8611,1.8718,1.8918,1.9178,1.9205,1.9259,1.9339,1.9366,1.9452,1.9613,1.9639,1.9726,1.9774,1.8879,1.8419,1.8313,1.6686,1.5766,1.5482,1.3447,1.2361,1.2467,1.2471,1.2491,1.254,1.2613,1.2564,1.2393,1.2194,1.2304,1.2569,1.2439,1.2178,1.2051,1.2178,1.2051,1.1545,1.1545,1.1434,1.1165,1.0912,1.0777,1.0777,1.0908,1.1169,1.1475,1.1273,1.1229,1.1277,1.1422,1.1299,1.1147,1.1407,1.1802,1.2186,1.2939,1.3676,1.4437,1.6684,1.8312,1.7877,1.8606,1.8966,1.8807,1.921,1.9639,1.9991,2.0227,2.016,2.0,1.9746,1.9613,1.9439,1.9372,1.9392,1.9399,1.9586,1.9653,1.9693,1.9726,1.982,1.98,1.9561,1.9542,1.9619,1.9579,1.9432,1.9366,1.9386,1.9379,1.7799,1.7582,1.7589,1.7589,1.7589,1.7589,1.7589,1.7589,1.7589,1.7589,1.7589,1.7589,1.7635,1.7722,1.7736,1.7796,1.7856,1.7782,1.7722,1.7762,1.8043,1.8196,1.8243,1.849,1.8731,1.8918,1.9032,1.9178,1.9339,1.9366,1.9366,1.9366,1.9452,1.9599,1.9773,1.9806,1.9907,2.002,1.9409,1.9202,1.9312,1.8039,1.7078,1.6519,1.4817,1.3413,1.2775,1.2649,1.267,1.2743,1.2804,1.2779,1.2653,1.2544,1.2611,1.2747,1.2619,1.2351,1.2222,1.2351,1.2226,1.1709,1.1838,1.1838,1.1452,1.1452,1.1449,1.1449,1.1581,1.177,1.2216,1.2548,1.2599,1.209,1.1962,1.1946,1.1393,1.1943,1.2347,1.2854,1.4129,1.5544,1.7124,1.9187,1.9649,1.8759,1.9626,2.0391,2.0521,2.0514,2.0514,2.0514,2.0555,2.0501,2.0381,2.0335,2.0147,1.9846,1.9818,1.975,1.9626,1.9813,1.9933,1.998,2.0067,2.018,2.0046,1.9913,1.984,2.0039,1.976,1.9593,1.9512,1.9426,1.9542,1.7615,1.7635,1.7595,1.7649,1.7675,1.7675,1.7622,1.7662,1.7649,1.7682,1.7716,1.7642,1.7822,1.8003,1.805,1.8196,1.833,1.8163,1.8056,1.8083,1.8357,1.849,1.8517,1.8791,1.8931,1.8985,1.9225,1.9352,1.9366,1.9399,1.9412,1.9439,1.9679,1.982,1.982,1.9846,1.9833,1.9628,1.8759,1.8264,1.8129,1.7445,1.7031,1.7044,1.6915,1.5619,1.3206,1.2951,1.2878,1.2637,1.2751,1.2832,1.2816,1.2795,1.2812,1.2791,1.2812,1.282,1.2812,1.2795,1.2644,1.2385,1.2285,1.2123,1.1976,1.186,1.1863,1.1991,1.213,1.2421,1.2816,1.3705,1.3813,1.2289,1.237,1.2334,1.178,1.2103,1.2533,1.3362,1.489,1.7232,1.9763,2.0867,2.0456,1.9726,2.0226,2.0989,2.0962,2.0955,2.1056,2.1049,2.0955,2.0828,2.0886,2.0922,2.0624,2.0449,2.0315,2.0207,2.0167,2.0154,2.0221,2.0267,2.0855,2.0965,2.1195,2.0942,2.1074,2.0997,2.0424,2.0101,1.9606,1.9636,1.9726,1.821,1.821,1.821,1.821,1.821,1.821,1.821,1.8203,1.821,1.821,1.821,1.821,1.827,1.833,1.8357,1.841,1.8497,1.8571,1.8544,1.8437,1.8657,1.8791,1.8844,1.9085,1.9232,1.9239,1.9319,1.9366,1.9406,1.9566,1.9666,1.972,1.9953,2.0087,2.01,2.01,2.0094,1.9973,1.9725,1.9626,1.986,1.9296,1.8839,1.8448,1.8227,1.7313,1.5804,1.4782,1.3713,1.2882,1.2804,1.2836,1.2836,1.2836,1.2836,1.2836,1.2836,1.2836,1.2836,1.2836,1.2704,1.2704,1.2704,1.2572,1.2572,1.2441,1.2444,1.2576,1.2572,1.2708,1.284,1.3099,1.3613,1.3866,1.4772,1.4196,1.2934,1.4164,1.5394,1.5779,1.7065,1.8828,2.0496,2.1122,2.0902,2.0475,2.0849,2.1102,2.1102,2.1102,2.1102,2.1102,2.1089,2.1089,2.0969,2.102,2.0808,2.0648,2.0651,2.0577,2.0557,2.0454,2.0514,2.0814,2.141,2.1821,2.193,2.209,2.2076,2.2564,2.2729,2.164,2.0192,2.0082,2.0632,1.8497,1.8497,1.8497,1.8497,1.8497,1.8497,1.8497,1.8497,1.8497,1.8497,1.849,1.849,1.8551,1.8637,1.8651,1.8718,1.8824,1.9018,1.8991,1.8858,1.8991,1.9092,1.9105,1.9259,1.9366,1.9366,1.9366,1.9426,1.9533,1.9706,1.9853,1.9987,2.0254,2.0394,2.0394,2.0394,2.0394,2.0388,2.0287,2.0374,2.0575,2.0494,2.012,1.9853,1.9644,1.8631,1.7098,1.6068,1.5038,1.3744,1.3095,1.2836,1.2836,1.2836,1.2836,1.2836,1.2836,1.2836,1.2836,1.2836,1.2836,1.2836,1.2836,1.2836,1.2836,1.2836,1.2836,1.2836,1.2836,1.2836,1.2836,1.3358,1.4002,1.4777,1.5038,1.4855,1.3998,1.5574,1.7055,1.7585,1.8768,2.0113,2.0795,2.1049,2.1102,2.1102,2.1102,2.1102,2.1102,2.1102,2.1102,2.1102,2.1102,2.1096,2.1102,2.1089,2.1089,2.0962,2.0822,2.0886,2.0728,2.0782,2.0835,2.1209,2.1783,2.2398,2.2631,2.2992,2.3225,2.3836,2.473,2.396,2.2868,2.224,2.2513,1.8544,1.8537,1.8544,1.8584,1.8591,1.8591,1.8611,1.8577,1.8584,1.8604,1.8591,1.8624,1.8724,1.8911,1.8951,1.9072,1.9312,1.9312,1.9312,1.9292,1.9325,1.9319,1.9325,1.9352,1.9366,1.9366,1.9406,1.9539,1.9746,1.9887,1.9987,2.0267,2.0541,2.0675,2.0641,2.0668,2.0621,2.0528,2.0374,2.0434,2.0668,2.0708,2.0815,2.0963,2.0829,1.9922,1.8005,1.7103,1.6198,1.4777,1.3354,1.2836,1.2836,1.2836,1.2836,1.2836,1.2836,1.2836,1.2836,1.2836,1.2836,1.2836,1.2836,1.2836,1.2836,1.2836,1.2836,1.2836,1.2836,1.2836,1.2964,1.3744,1.439,1.452,1.4124,1.411,1.5154,1.6508,1.753,1.8605,2.0055,2.1116,2.1122,2.1116,2.1109,2.1102,2.1102,2.1102,2.1102,2.1102,2.1102,2.1102,2.1102,2.1102,2.1102,2.1102,2.1102,2.1069,2.0969,2.0949,2.0935,2.0989,2.1029,2.142,2.2173,2.2812,2.3653,2.4246,2.4931,2.6011,2.6312,2.6244,2.5856,2.5186,2.4406,1.9138,1.9138,1.9138,1.9138,1.9138,1.9138,1.9125,1.9132,1.9125,1.9092,1.9125,1.9138,1.9145,1.9239,1.9245,1.9299,1.9352,1.9366,1.9366,1.9366,1.9366,1.9366,1.9366,1.9366,1.9372,1.9406,1.9573,1.9733,1.9833,2.0214,2.0461,2.0568,2.0828,2.0875,2.0715,2.0688,2.0548,2.0414,2.0521,2.0588,2.0695,2.0895,2.1022,2.1082,2.1102,2.0722,1.9814,1.8011,1.5814,1.3613,1.3095,1.2836,1.2836,1.2836,1.2836,1.2836,1.2836,1.2836,1.2836,1.2836,1.2836,1.2836,1.2836,1.2836,1.2836,1.2836,1.2836,1.2836,1.2836,1.2836,1.2836,1.3227,1.3354,1.3477,1.3975,1.538,1.7082,1.7965,1.8587,2.0182,2.0843,2.0976,2.1102,2.1102,2.1102,2.1102,2.1102,2.1102,2.1102,2.1102,2.1102,2.1102,2.1102,2.1102,2.1102,2.1102,2.1102,2.1102,2.1069,2.1056,2.1042,2.1062,2.1082,2.1215,2.2812,2.369,2.5048,2.6089,2.7116,2.7744,2.828,2.8273,2.8337,2.7912,2.6968,1.9366,1.9366,1.9366,1.9366,1.9366,1.9366,1.9366,1.9366,1.9366,1.9366,1.9366,1.9366,1.9366,1.9366,1.9366,1.9366,1.9366,1.9366,1.9366,1.9366,1.9366,1.9366,1.9366,1.9366,1.9432,1.9559,1.972,1.994,2.018,2.0528,2.0715,2.0862,2.1022,2.1009,2.0889,2.0848,2.0782,2.0668,2.0775,2.0862,2.0875,2.1015,2.1082,2.1102,2.1102,2.0982,1.9941,1.7625,1.5294,1.387,1.3227,1.2836,1.2836,1.2836,1.2836,1.2836,1.2836,1.2836,1.2836,1.2836,1.2836,1.2836,1.2836,1.2836,1.2836,1.2836,1.2836,1.2836,1.2836,1.2836,1.2836,1.2836,1.2836,1.2964,1.3844,1.5514,1.7871,1.7859,1.889,2.0322,2.1102,2.1102,2.1102,2.1102,2.1102,2.1102,2.1102,2.1102,2.1102,2.1102,2.1102,2.1102,2.1102,2.1102,2.1102,2.1102,2.1102,2.1102,2.1102,2.1102,2.1102,2.1102,2.1102,2.1475,2.3201,2.4564,2.5668,2.6918,2.8295,2.903,2.9742,3.0058,2.9846,2.9596,2.8691,1.9366,1.9366,1.9366,1.9366,1.9366,1.9366,1.9366,1.9366,1.9366,1.9366,1.9366,1.9366,1.9366,1.9366,1.9366,1.9366,1.9366,1.9366,1.9366,1.9366,1.9372,1.9392,1.9466,1.9472,1.9573,1.976,1.9833,2.0187,2.0514,2.0688,2.0862,2.1022,2.1096,2.1109,2.1188,2.1076,2.1096,2.1042,2.1029,2.1056,2.1056,2.1089,2.1102,2.1102,2.1102,2.0589,1.9297,1.7103,1.5424,1.5168,1.3613,1.2832,1.2836,1.2836,1.2836,1.2836,1.2836,1.2836,1.2836,1.2836,1.2836,1.2836,1.2836,1.2836,1.2836,1.2836,1.2836,1.2836,1.2836,1.2836,1.2836,1.2836,1.2836,1.2836,1.2964,1.4132,1.6073,1.6985,1.815,2.0456,2.0849,2.1102,2.1102,2.1102,2.1102,2.1102,2.1102,2.1102,2.1102,2.1102,2.1102,2.1102,2.1102,2.1102,2.1102,2.1102,2.1102,2.1102,2.1102,2.1102,2.1102,2.1102,2.1102,2.172,2.2959,2.407,2.5056,2.6684,2.8433,2.9652,3.0068,3.043,3.0762,3.0238,2.9647,1.9366,1.9366,1.9366,1.9366,1.9366,1.9366,1.9366,1.9366,1.9366,1.9366,1.9366,1.9366,1.9366,1.9366,1.9366,1.9366,1.9366,1.9366,1.9366,1.9366,1.9366,1.9512,1.9659,1.9713,1.9753,1.992,2.0294,2.0548,2.0715,2.1027,2.1162,2.1468,2.1362,2.1235,2.1481,2.1229,2.1102,2.1102,2.1102,2.1102,2.1102,2.1109,2.1109,2.1102,2.1102,2.0976,2.0456,1.9042,1.7625,1.6203,1.439,1.2964,1.2836,1.2836,1.2836,1.2836,1.2836,1.2836,1.2836,1.2836,1.2836,1.2836,1.2836,1.2836,1.2836,1.2836,1.2836,1.2836,1.2836,1.2836,1.2836,1.2836,1.2836,1.2836,1.2836,1.3486,1.5173,1.6893,1.8314,1.9444,2.0462,2.1102,2.1102,2.1102,2.1102,2.1102,2.1102,2.1102,2.1102,2.1102,2.1102,2.1102,2.1102,2.1102,2.1102,2.1102,2.1102,2.1102,2.1102,2.1102,2.1102,2.1102,2.1102,2.1594,2.2584,2.3574,2.444,2.5871,2.7598,2.8929,3.0049,3.043,3.0518,3.0374,3.0558,1.9366,1.9366,1.9366,1.9366,1.9366,1.9366,1.9366,1.9366,1.9366,1.9366,1.9366,1.9366,1.9366,1.9366,1.9366,1.9366,1.9366,1.9366,1.9366,1.9406,1.9486,1.9653,1.9846,2.008,2.0214,2.0267,2.0494,2.0846,2.1139,2.126,2.1468,2.1859,2.1607,2.1614,2.1607,2.1355,2.1229,2.1229,2.1229,2.1229,2.1109,2.1235,2.1235,2.1102,2.1102,2.1102,2.0976,1.968,1.8652,1.749,1.5294,1.3486,1.2968,1.2836,1.2836,1.2836,1.2836,1.2836,1.2836,1.2836,1.2836,1.2836,1.2836,1.2836,1.2836,1.2836,1.2836,1.2836,1.2836,1.2836,1.2836,1.2836,1.2836,1.2836,1.2836,1.3095,1.4137,1.6104,1.8056,1.892,2.0335,2.0849,2.1102,2.0976,2.1102,2.1102,2.1102,2.1102,2.1102,2.1102,2.1102,2.1102,2.1102,2.1102,2.1102,2.1102,2.1102,2.1102,2.1102,2.1102,2.1102,2.1102,2.1102,2.172,2.2215,2.2834,2.3814,2.5359,2.6565,2.7718,2.8728,2.9596,3.0176,3.0081,3.0422,1.9482,1.9366,1.9366,1.9366,1.9366,1.9366,1.9366,1.9366,1.9366,1.9366,1.9366,1.9366,1.9366,1.9366,1.9366,1.9366,1.9366,1.9372,1.9386,1.9506,1.9666,1.986,2.006,2.0388,2.0765,2.0852,2.0893,2.1146,2.1532,2.1734,2.1859,2.1985,2.1985,2.1734,2.1607,2.1607,2.1481,2.1229,2.1481,2.1607,2.1362,2.1481,2.1355,2.1235,2.1109,2.1109,2.0976,2.0195,1.9297,1.8914,1.6716,1.4907,1.3486,1.2836,1.2836,1.2836,1.2836,1.2836,1.2836,1.2836,1.2836,1.2836,1.2836,1.2836,1.2836,1.2836,1.2836,1.2836,1.2836,1.2836,1.2836,1.2836,1.2836,1.2836,1.2836,1.2836,1.3223,1.5033,1.6431,1.8011,1.9297,2.0202,2.0589,2.0722,2.0976,2.1102,2.1102,2.1102,2.1102,2.1102,2.1102,2.1102,2.1102,2.1102,2.1102,2.1102,2.1102,2.1102,2.1102,2.1102,2.1102,2.1102,2.1102,2.1109,2.1601,2.2466,2.3186,2.4232,2.5351,2.652,2.7383,2.8197,2.8929,2.954,2.9912,1.9591,1.9366,1.9366,1.9366,1.9366,1.9366,1.9366,1.9366,1.9366,1.9366,1.9366,1.9366,1.9366,1.9366,1.9366,1.9366,1.9366,1.9399,1.9512,1.9679,1.9846,2.0047,2.0441,2.0615,2.094,2.1366,2.1393,2.1672,2.1964,2.1985,2.2118,2.2111,2.1985,2.1734,2.1734,2.1607,2.1607,2.1607,2.1853,2.1978,2.1859,2.1734,2.1607,2.1488,2.1362,2.1362,2.1355,2.0969,2.0195,1.9164,1.8518,1.6969,1.4907,1.3617,1.2968,1.2836,1.2836,1.2836,1.2836,1.2836,1.2836,1.2836,1.2836,1.2836,1.2836,1.2836,1.2836,1.2836,1.2836,1.2836,1.2836,1.2836,1.2836,1.2836,1.2836,1.2836,1.2951,1.3443,1.4461,1.5799,1.7619,1.9699,2.0234,2.0742,2.0976,2.1102,2.1102,2.1102,2.1102,2.1102,2.1102,2.1102,2.1102,2.1102,2.1102,2.1102,2.1102,2.1102,2.1102,2.1102,2.1102,2.1102,2.1102,2.1102,2.1607,2.2348,2.293,2.3492,2.4363,2.5529,2.6236,2.6807,2.7452,2.8095,2.8095,1.9475,1.9366,1.9366,1.9366,1.9366,1.9366,1.9366,1.9366,1.9366,1.9366,1.9366,1.9366,1.9366,1.9366,1.9366,1.9366,1.9399,1.9546,1.9666,1.9826,2.0114,2.0361,2.0708,2.0815,2.1332,2.1699,2.1859,2.1985,2.2362,2.2362,2.2362,2.2362,2.2362,2.2237,2.1985,2.2104,2.1978,2.1985,2.2104,2.223,2.2111,2.1859,2.1859,2.1859,2.1734,2.1607,2.1481,2.1481,2.0976,2.0202,1.9419,1.7876,1.6203,1.4782,1.3486,1.2964,1.2836,1.2836,1.2836,1.2836,1.2836,1.2836,1.2836,1.2836,1.2836,1.2836,1.2836,1.2836,1.2836,1.2836,1.2836,1.2836,1.2836,1.2836,1.2836,1.2836,1.2828,1.2795,1.3325,1.4259,1.684,1.906,2.0425,2.0788,2.0989,2.1102,2.1102,2.1102,2.1102,2.1102,2.1102,2.1102,2.1102,2.1102,2.1102,2.1102,2.1102,2.1102,2.1102,2.1102,2.1102,2.1102,2.1102,2.1102,2.1601,2.223,2.2466,2.2805,2.3799,2.4548,2.5293,2.5912,2.6156,2.6407,2.6529,1.9482,1.9366,1.9366,1.9366,1.9366,1.9366,1.9366,1.9366,1.9366,1.9366,1.9366,1.9366,1.9366,1.9366,1.9372,1.9392,1.9459,1.9713,1.9853,2.01,2.0414,2.0675,2.0828,2.1081,2.1475,2.1964,2.2104,2.2362,2.2606,2.2738,2.2606,2.2613,2.2856,2.2731,2.223,2.2355,2.2355,2.2355,2.248,2.248,2.2237,2.2237,2.2237,2.2111,2.2118,2.1859,2.1734,2.1481,2.1362,2.0722,1.9947,1.8652,1.7103,1.5944,1.452,1.3095,1.2836,1.2836,1.2836,1.2836,1.2836,1.2836,1.2836,1.2836,1.2836,1.2836,1.2836,1.2836,1.2836,1.2836,1.2836,1.2836,1.2836,1.2836,1.2836,1.2836,1.2836,1.2824,1.2824,1.4259,1.6711,1.8296,1.9517,2.0272,2.0335,2.1102,2.1102,2.1102,2.1102,2.1102,2.1102,2.1102,2.1102,2.1102,2.1102,2.1102,2.1102,2.1102,2.1102,2.1102,2.1102,2.1102,2.1102,2.1229,2.1607,2.2111,2.2104,2.2355,2.3084,2.3961,2.4626,2.4873,2.4833,2.5063,2.5186,1.9591,1.9366,1.9366,1.9366,1.9366,1.9366,1.9366,1.9366,1.9366,1.9366,1.9366,1.9366,1.9366,1.9372,1.9392,1.9526,1.9693,1.986,2.0114,2.0441,2.0641,2.0835,2.1015,2.1069,2.1481,2.1978,2.2104,2.248,2.2856,2.2988,2.2863,2.2738,2.2606,2.248,2.2237,2.248,2.2606,2.2606,2.2856,2.2856,2.2606,2.248,2.248,2.2362,2.2111,2.1859,2.1859,2.1481,2.1235,2.1102,2.0976,1.9553,1.7496,1.6845,1.5298,1.3744,1.2836,1.2836,1.2836,1.2836,1.2836,1.2836,1.2836,1.2836,1.2836,1.2836,1.2836,1.2836,1.2836,1.2836,1.2836,1.2836,1.2836,1.2836,1.2836,1.2836,1.2836,1.2836,1.2836,1.3095,1.5038,1.6753,1.8225,1.8956,1.9559,2.0456,2.1102,2.1102,2.1102,2.1102,2.1102,2.1102,2.1102,2.1102,2.1102,2.1102,2.1102,2.1102,2.1102,2.1102,2.1102,2.1102,2.1229,2.1355,2.1734,2.1859,2.1859,2.2237,2.2606,2.3238,2.3875,2.3743,2.3355,2.3596,2.4085,1.9475,1.9366,1.9366,1.9366,1.9366,1.9366,1.9366,1.9366,1.9366,1.9366,1.9366,1.9366,1.9366,1.9399,1.9519,1.9673,1.9853,2.0127,2.0401,2.0681,2.0835,2.0975,2.1069,2.1355,2.1734,2.1985,2.2237,2.248,2.2738,2.2863,2.2731,2.2613,2.2613,2.2606,2.2362,2.2731,2.2856,2.2981,2.2981,2.2981,2.2981,2.2863,2.2738,2.2613,2.2237,2.2104,2.1734,2.1607,2.1235,2.1102,2.1102,2.01,1.8179,1.713,1.5814,1.3227,1.2836,1.2836,1.2836,1.2836,1.2836,1.2836,1.2836,1.2836,1.2836,1.2836,1.2836,1.2836,1.2836,1.2836,1.2836,1.2836,1.2836,1.2836,1.2836,1.2836,1.2836,1.2836,1.2836,1.3095,1.349,1.5458,1.7287,1.8296,1.9425,2.0589,2.1102,2.1102,2.1102,2.1102,2.1102,2.1102,2.1102,2.1102,2.1102,2.1102,2.1102,2.1102,2.1102,2.1102,2.1102,2.1102,2.1229,2.1481,2.1734,2.1734,2.1734,2.2237,2.2856,2.2981,2.2988,2.3113,2.3106,2.3106,2.3472,1.9366,1.9366,1.9366,1.9366,1.9366,1.9366,1.9366,1.9366,1.9366,1.9366,1.9366,1.9372,1.9399,1.9499,1.97,1.9873,2.0074,2.0481,2.0688,2.0848,2.0982,2.1089,2.1235,2.1488,2.1859,2.223,2.2355,2.248,2.2613,2.2487,2.248,2.2613,2.2613,2.2613,2.2738,2.2981,2.3106,2.3106,2.3106,2.3106,2.3106,2.3106,2.2856,2.2606,2.2487,2.223,2.1853,2.1481,2.1229,2.1355,2.0583,1.959,1.8348,1.7028,1.5438,1.3358,1.2836,1.2836,1.2836,1.2836,1.2836,1.2836,1.2836,1.2836,1.2836,1.2836,1.2836,1.2836,1.2836,1.2836,1.2836,1.2836,1.2836,1.2836,1.2836,1.2836,1.2836,1.2836,1.2836,1.2968,1.3486,1.4651,1.6343,1.7625,1.9036,2.0589,2.1102,2.1102,2.1102,2.1102,2.1102,2.1102,2.1102,2.1102,2.1102,2.1102,2.1102,2.1102,2.1102,2.1102,2.1102,2.1102,2.1229,2.1481,2.1727,2.2111,2.2237,2.2731,2.3106,2.2981,2.2863,2.2981,2.3106,2.3106,2.3106,1.9366,1.9366,1.9366,1.9366,1.9366,1.9366,1.9366,1.9366,1.9366,1.9366,1.9249,1.9392,1.9305,1.9483,1.9509,1.9899,2.0588,2.0655,2.0828,2.0995,2.1102,2.1229,2.1481,2.1607,2.1985,2.2362,2.2355,2.248,2.2487,2.2237,2.2355,2.2606,2.2606,2.2863,2.2988,2.3106,2.3106,2.3106,2.3106,2.3106,2.3106,2.2988,2.2856,2.2613,2.2362,2.2104,2.1978,2.1481,2.1229,2.1355,2.0456,1.9188,1.8208,1.7044,1.5332,1.3358,1.2836,1.2836,1.2836,1.2836,1.2836,1.2836,1.2836,1.2836,1.2836,1.2836,1.2836,1.2836,1.2836,1.2836,1.2836,1.2836,1.2836,1.2836,1.2836,1.2836,1.2836,1.2836,1.2836,1.2836,1.3486,1.4525,1.5954,1.7372,1.9042,2.0589,2.1102,2.1102,2.1102,2.1102,2.1102,2.1102,2.1102,2.1102,2.1102,2.1102,2.1102,2.1102,2.1102,2.1102,2.1102,2.1229,2.1229,2.1607,2.1978,2.2362,2.2745,2.287,2.2995,2.2856,2.2856,2.2981,2.3106,2.3106,2.3106,1.9366,1.9366,1.9366,1.9366,1.9366,1.9366,1.9366,1.9366,1.9366,1.8887,1.8188,1.8233,1.7995,1.7793,1.8735,1.9186,1.9549,2.0625,2.087,2.1062,2.1102,2.1355,2.1481,2.1859,2.2111,2.248,2.248,2.223,2.223,2.2111,2.2111,2.2237,2.248,2.2731,2.2981,2.3106,2.3106,2.3106,2.3106,2.3106,2.3106,2.2863,2.2613,2.2362,2.1985,2.1734,2.1488,2.1235,2.1235,2.0969,2.0462,1.9334,1.8079,1.7314,1.5473,1.3231,1.2836,1.2836,1.2836,1.2836,1.2836,1.2836,1.2836,1.2836,1.2836,1.2836,1.2836,1.2836,1.2836,1.2836,1.2836,1.2836,1.2836,1.2836,1.2836,1.2836,1.2836,1.2836,1.2836,1.2836,1.3363,1.4281,1.5839,1.7394,1.8926,2.0462,2.0849,2.1102,2.1102,2.1102,2.1102,2.1102,2.1102,2.1102,2.1102,2.1102,2.1102,2.1102,2.1102,2.1102,2.1102,2.1102,2.1229,2.1607,2.1978,2.2362,2.2745,2.2885,2.3003,2.2863,2.2856,2.3106,2.3106,2.3106,2.3106,1.9133,1.8881,1.8765,1.9127,1.9366,1.9366,1.9133,1.8887,1.8765,1.8108,1.699,1.7115,1.6802,1.6579,1.7179,1.8447,1.8921,1.9834,2.0556,2.0976,2.1229,2.1481,2.1734,2.2111,2.248,2.2606,2.2606,2.2487,2.2104,2.1985,2.1985,2.2237,2.2487,2.2856,2.2981,2.3106,2.3106,2.3106,2.3106,2.3106,2.3106,2.2856,2.248,2.2237,2.1853,2.1607,2.1362,2.1235,2.0843,2.0456,1.9826,1.9237,1.8237,1.7071,1.5342,1.3757,1.2836,1.2836,1.2836,1.2836,1.2836,1.2836,1.2836,1.2836,1.2836,1.2836,1.2836,1.2836,1.2836,1.2836,1.2836,1.2836,1.2836,1.2836,1.2836,1.2836,1.2836,1.2836,1.2836,1.2836,1.3494,1.3888,1.5704,1.7254,1.892,2.0329,2.0849,2.1109,2.1102,2.1102,2.1102,2.1102,2.1102,2.1102,2.1102,2.1102,2.1102,2.1102,2.1102,2.1102,2.1102,2.1102,2.1355,2.1859,2.2111,2.2362,2.262,2.3003,2.2995,2.2863,2.2981,2.3106,2.2981,2.2981,2.2988,1.8648,1.7578,1.7578,1.8188,1.9153,1.9366,1.8661,1.762,1.7521,1.6924,1.5919,1.6033,1.6122,1.615,1.6377,1.7147,1.8297,1.8884,1.9807,2.0589,2.1229,2.1727,2.2104,2.2355,2.2606,2.2863,2.2738,2.2487,2.2104,2.223,2.223,2.2355,2.2731,2.2981,2.3106,2.3106,2.3106,2.3106,2.3106,2.3106,2.2981,2.2856,2.248,2.2104,2.1853,2.1607,2.1362,2.0849,2.0329,1.9801,1.8396,1.8372,1.9226,1.5924,1.3901,1.2968,1.2836,1.2836,1.2836,1.2836,1.2836,1.2836,1.2836,1.2836,1.2836,1.2836,1.2836,1.2836,1.2836,1.2836,1.2836,1.2836,1.2836,1.2836,1.2836,1.2836,1.2836,1.2836,1.2836,1.2836,1.2968,1.3494,1.5434,1.7109,1.8902,2.0189,2.0849,2.1109,2.1102,2.1102,2.1102,2.1102,2.1102,2.1102,2.1102,2.1102,2.1102,2.1102,2.1102,2.1102,2.1102,2.1235,2.1481,2.1985,2.2111,2.2237,2.2613,2.3113,2.2995,2.2878,2.2988,2.2981,2.2856,2.2856,2.2988,1.7929,1.7473,1.668,1.6635,1.697,1.6938,1.66,1.6406,1.6436,1.583,1.4948,1.4905,1.452,1.4363,1.4995,1.5863,1.6565,1.8646,1.9553,1.9814,2.0836,2.1727,2.2104,2.2355,2.2613,2.2738,2.2613,2.2362,2.2104,2.2097,2.2355,2.248,2.2856,2.3106,2.3106,2.3106,2.3106,2.3106,2.3106,2.2981,2.2731,2.2613,2.2237,2.1853,2.1601,2.1348,2.1102,2.0335,1.9419,1.8774,1.7361,1.7314,1.7842,1.4833,1.4576,1.3371,1.2836,1.2836,1.2836,1.2836,1.2836,1.2836,1.2836,1.2836,1.2836,1.2836,1.2836,1.2836,1.2836,1.2836,1.2836,1.2836,1.2836,1.2836,1.2836,1.2836,1.2836,1.2836,1.2836,1.2836,1.2968,1.3486,1.4912,1.5799,1.7457,1.9024,1.9814,2.0729,2.0982,2.1102,2.1102,2.1102,2.1102,2.1102,2.1102,2.1102,2.1102,2.1102,2.1102,2.1102,2.1229,2.1235,2.1488,2.1866,2.1859,2.1985,2.248,2.2856,2.2885,2.2892,2.2995,2.2988,2.2856,2.2981,2.2981,1.6634,1.6192,1.5571,1.4931,1.4789,1.5392,1.5661,1.533,1.5042,1.4392,1.3807,1.385,1.3561,1.321,1.3674,1.4651,1.5038,1.6586,1.8652,1.8908,2.0189,2.1082,2.1727,2.2237,2.2362,2.2355,2.1971,2.1713,2.1978,2.1587,2.1839,2.248,2.2988,2.3106,2.3106,2.3106,2.3106,2.3106,2.3106,2.2988,2.2731,2.2355,2.2111,2.1607,2.0969,2.0456,1.9947,1.917,1.8133,1.7613,1.6721,1.5694,1.5337,1.4833,1.4576,1.3239,1.2836,1.2836,1.2836,1.2836,1.2836,1.2836,1.2836,1.2836,1.2836,1.2836,1.2836,1.2836,1.2836,1.2836,1.2836,1.2836,1.2836,1.2836,1.2836,1.2836,1.2836,1.2836,1.2836,1.2836,1.2836,1.3613,1.4002,1.4749,1.5759,1.7205,1.8658,1.9711,2.0755,2.0856,2.0976,2.1102,2.1102,2.1102,2.1102,2.1102,2.1102,2.1102,2.1102,2.1102,2.1229,2.1235,2.1488,2.174,2.1985,2.223,2.2341,2.2591,2.2745,2.2878,2.287,2.2863,2.2981,2.2981,2.3106,1.5075,1.4019,1.4084,1.3429,1.2935,1.4798,1.5172,1.4066,1.3123,1.2701,1.2718,1.2878,1.2931,1.2816,1.2836,1.3486,1.452,1.5038,1.6586,1.8262,1.9285,2.0309,2.1215,2.1859,2.1846,2.1461,2.1076,2.0943,2.172,2.1454,2.158,2.2348,2.2988,2.3106,2.3106,2.3106,2.3106,2.3106,2.2981,2.2863,2.248,2.2355,2.1978,2.1348,2.0456,1.968,1.8908,1.7876,1.6586,1.5684,1.4907,1.4006,1.3358,1.2836,1.2836,1.2836,1.2836,1.2836,1.2836,1.2836,1.2836,1.2836,1.2836,1.2836,1.2836,1.2836,1.2836,1.2836,1.2836,1.2836,1.2836,1.2836,1.2836,1.2836,1.2836,1.2836,1.2836,1.2836,1.2836,1.2836,1.2836,1.3095,1.3227,1.3722,1.4711,1.5788,1.7272,1.8228,1.9241,2.0354,2.0602,2.1102,2.1102,2.1102,2.1109,2.1129,2.1102,2.1102,2.1102,2.1102,2.1229,2.1242,2.1481,2.1734,2.2237,2.2473,2.2466,2.2591,2.2856,2.2856,2.2863,2.2863,2.2856,2.2981,2.3106,1.4437,1.4093,1.3418,1.2867,1.2636,1.3393,1.3504,1.3029,1.2808,1.2759,1.2763,1.2812,1.2836,1.2836,1.2836,1.3091,1.3613,1.4394,1.5168,1.6586,1.8256,1.9413,2.0436,2.1082,2.1076,2.0563,2.0049,1.9916,2.0563,2.0683,2.1832,2.2856,2.2988,2.2981,2.3106,2.3106,2.3106,2.2981,2.2856,2.2613,2.223,2.1978,2.1601,2.0836,1.9553,1.8902,1.8262,1.6592,1.5298,1.4907,1.387,1.3095,1.2964,1.2836,1.2836,1.2836,1.2836,1.2836,1.2836,1.2836,1.2836,1.2836,1.2836,1.2836,1.2836,1.2836,1.2836,1.2836,1.2836,1.2836,1.2836,1.2836,1.2836,1.2836,1.284,1.2852,1.2856,1.2881,1.2885,1.2925,1.2921,1.2909,1.2901,1.3107,1.4103,1.492,1.5869,1.6695,1.7993,1.9136,2.0099,2.0611,2.1256,2.1303,2.1196,2.1182,2.1136,2.1102,2.1176,2.1223,2.1216,2.1343,2.1522,2.1747,2.2146,2.2376,2.2598,2.2724,2.2731,2.2981,2.2988,2.2863,2.2731,2.2981,2.3106,1.3527,1.3427,1.298,1.267,1.269,1.2791,1.2771,1.2702,1.2791,1.2836,1.2836,1.2836,1.2836,1.2836,1.2836,1.2836,1.2968,1.3617,1.4394,1.5554,1.6969,1.8127,1.9279,1.9795,1.9674,1.9158,1.8512,1.7993,1.9018,2.043,2.1706,2.2355,2.2738,2.2863,2.2856,2.2856,2.2863,2.2856,2.2613,2.2362,2.1853,2.1215,2.0576,1.9941,1.8518,1.7748,1.7232,1.5168,1.4263,1.4132,1.2964,1.2836,1.2836,1.2836,1.2836,1.2836,1.2836,1.2836,1.2836,1.2836,1.2836,1.2836,1.2836,1.2836,1.2836,1.2836,1.2836,1.2836,1.2836,1.2836,1.2836,1.2836,1.2836,1.2836,1.2852,1.2736,1.2901,1.2938,1.2982,1.2901,1.2905,1.2893,1.3059,1.3141,1.3341,1.4026,1.4436,1.4846,1.6444,1.8226,1.9233,2.0017,2.0909,2.155,2.1436,2.1376,2.1295,2.1334,2.1414,2.155,2.145,2.1565,2.1727,2.1981,2.2069,2.23,2.253,2.2613,2.2606,2.2899,2.3046,2.2885,2.2878,2.2988,2.2981,1.2584,1.2726,1.2767,1.282,1.2832,1.2836,1.2832,1.2836,1.2832,1.2836,1.2836,1.2836,1.2836,1.2836,1.2836,1.2836,1.2836,1.3095,1.3617,1.4777,1.5298,1.6457,1.7485,1.7753,1.8005,1.7619,1.6969,1.6452,1.7608,1.9018,2.043,2.1475,2.1978,2.2223,2.248,2.2223,2.1964,2.1713,2.158,2.1202,2.0956,2.0189,1.9158,1.8524,1.6845,1.5163,1.4777,1.3875,1.2836,1.2836,1.2836,1.2836,1.2836,1.2836,1.2836,1.2836,1.2836,1.2836,1.2836,1.2836,1.2836,1.2836,1.2836,1.2865,1.2881,1.2848,1.284,1.2836,1.2836,1.2889,1.2905,1.2929,1.2938,1.2986,1.3035,1.2881,1.2861,1.2994,1.3103,1.3007,1.2994,1.2994,1.3185,1.3251,1.3226,1.3576,1.3667,1.38,1.49,1.7032,1.8701,1.9489,2.0354,2.1248,2.179,2.1757,2.1555,2.1615,2.1766,2.2008,2.2031,2.2051,2.2105,2.2114,2.2215,2.2384,2.2468,2.2609,2.2658,2.2856,2.2968,2.2957,2.3039,2.3039,2.2981,1.2771,1.2771,1.282,1.2836,1.2836,1.2836,1.2836,1.2836,1.2836,1.2836,1.2836,1.2836,1.2836,1.2836,1.2836,1.2836,1.2836,1.2836,1.2964,1.3744,1.4263,1.5038,1.6068,1.6462,1.6457,1.5814,1.5294,1.5163,1.6188,1.7474,1.889,2.0303,2.0683,2.0943,2.172,2.1202,2.0556,2.0303,1.9661,1.9534,1.954,1.9291,1.8652,1.7361,1.5684,1.4777,1.4394,1.3617,1.2964,1.2836,1.2836,1.2836,1.2836,1.2836,1.2836,1.2836,1.2836,1.2836,1.2844,1.2852,1.2865,1.2856,1.2873,1.2934,1.2942,1.2881,1.2852,1.2852,1.2881,1.2954,1.3136,1.3031,1.3068,1.3145,1.321,1.3022,1.2831,1.3035,1.3107,1.3103,1.2954,1.2986,1.3181,1.3263,1.3362,1.336,1.3518,1.3731,1.4208,1.5852,1.8394,1.9422,1.9875,2.0649,2.1382,2.2118,2.2032,2.1985,2.2104,2.2356,2.262,2.2447,2.2261,2.2237,2.2247,2.2468,2.2589,2.2858,2.2915,2.2979,2.3213,2.3359,2.3354,2.3318,2.3201,1.2836,1.2836,1.2836,1.2836,1.2836,1.2836,1.2836,1.2836,1.2836,1.2836,1.2836,1.2836,1.2836,1.2836,1.2836,1.2836,1.2836,1.2836,1.2836,1.3227,1.3617,1.4259,1.4907,1.5187,1.5168,1.4651,1.4259,1.4259,1.5159,1.5809,1.7093,1.8506,1.8896,1.9279,2.0049,1.9279,1.8896,1.8634,1.7613,1.7356,1.7742,1.7227,1.6974,1.5814,1.4912,1.4132,1.3744,1.3095,1.2964,1.2836,1.2836,1.2836,1.2836,1.2836,1.2836,1.2836,1.2836,1.2836,1.286,1.2905,1.2946,1.2954,1.3047,1.3169,1.3185,1.3137,1.3128,1.3133,1.3137,1.3193,1.3337,1.3362,1.3234,1.3283,1.3303,1.3279,1.3066,1.2986,1.3133,1.3321,1.3145,1.2958,1.3157,1.3234,1.3179,1.3327,1.3498,1.3522,1.4051,1.4433,1.7072,1.8897,1.9177,1.9975,2.0965,2.181,2.2492,2.2559,2.2459,2.2553,2.2734,2.2558,2.2383,2.2469,2.2456,2.2394,2.2646,2.2898,2.3178,2.3242,2.3594,2.3907,2.3775,2.362,2.3318,1.2836,1.2836,1.2836,1.2836,1.2836,1.2836,1.2836,1.2836,1.2836,1.2836,1.2836,1.2836,1.2836,1.2836,1.2836,1.2836,1.2836,1.2836,1.2836,1.2873,1.2848,1.3575,1.3857,1.369,1.395,1.3919,1.3507,1.3752,1.439,1.4782,1.5294,1.6462,1.6969,1.735,1.735,1.7221,1.7098,1.684,1.6328,1.5689,1.5168,1.4777,1.4907,1.4394,1.3617,1.2836,1.2836,1.2836,1.2836,1.2836,1.2836,1.2836,1.2865,1.2877,1.2901,1.2913,1.2974,1.297,1.2978,1.3072,1.3108,1.3165,1.3307,1.3372,1.338,1.3259,1.3251,1.3271,1.3271,1.338,1.3388,1.3409,1.3413,1.3429,1.3433,1.3384,1.3291,1.3046,1.3082,1.3283,1.321,1.2998,1.3046,1.3126,1.3166,1.3319,1.3344,1.3497,1.3534,1.4039,1.5403,1.7172,1.8107,1.8971,2.0317,2.1769,2.2801,2.2699,2.2768,2.2766,2.2812,2.2734,2.2566,2.2579,2.259,2.2467,2.2545,2.2794,2.3091,2.3562,2.405,2.439,2.4213,2.3907,2.3479,1.2836,1.2836,1.2836,1.2836,1.2836,1.2836,1.2836,1.2836,1.2836,1.2836,1.2836,1.2836,1.2836,1.2836,1.2836,1.2836,1.284,1.2848,1.295,1.3023,1.295,1.3323,1.3532,1.3348,1.3315,1.3274,1.3079,1.312,1.3707,1.3541,1.3879,1.5187,1.5303,1.5814,1.6716,1.6328,1.5424,1.5163,1.4516,1.3744,1.4006,1.3875,1.4006,1.3617,1.2968,1.2836,1.2836,1.2836,1.2836,1.2836,1.284,1.2844,1.2889,1.2958,1.3011,1.321,1.3271,1.3181,1.3218,1.3271,1.3311,1.3327,1.3437,1.3359,1.3388,1.3169,1.3188,1.3247,1.3364,1.34,1.3535,1.344,1.3456,1.364,1.366,1.3498,1.3364,1.3046,1.2941,1.2909,1.297,1.2809,1.2817,1.2881,1.2925,1.3092,1.3149,1.3173,1.3262,1.358,1.3883,1.5264,1.6787,1.8439,1.9953,2.1881,2.2882,2.2819,2.2866,2.2866,2.2859,2.2853,2.2848,2.2687,2.2593,2.2492,2.2585,2.2825,2.3349,2.3813,2.4569,2.4885,2.456,2.4187,2.3749]}]]